GFSSGP_500_spd_003.txt.gz
Wind_Speed
24 25 24 24 26 25 23 23 23 21 20 20 20 21 20 19 21 20 19 19 22 25 28 31 31 31 29 25 22 25 22 22 28 26 26 27 29 31 32 31 30 31 30 28 28 27 25 24 23
25 25 27 23 22 23 24 23 22 20 20 21 22 21 21 23 23 21 21 23 25 27 27 25 21 19 15 16 17 21 22 25 29 31 32 33 32 30 30 29 30 27 25 23 24 24 22 24 24
26 26 23 19 20 20 18 18 19 18 17 19 19 21 23 23 25 26 27 28 28 25 27 24 21 17 15 16 21 26 27 30 34 32 31 28 29 28 26 23 22 19 20 23 22 22 20 22 26
20 19 17 18 16 15 16 16 14 15 17 19 21 22 21 18 12 13 17 20 20 21 21 21 18 17 19 22 25 29 32 33 29 28 26 24 24 24 23 23 21 20 20 19 20 19 19 19 18
16 15 16 13 10 10 11 9 11 12 16 15 12 10 11 11 11 12 11 12 12 13 16 18 18 20 22 22 24 24 23 22 21 20 19 17 16 17 19 19 18 17 17 18 18 17 17 16 16
12 8 6 6 8 9 8 7 8 7 6 6 7 8 10 12 14 11 11 11 13 14 14 14 15 17 17 17 16 16 16 15 14 13 13 13 15 15 14 14 14 14 14 15 17 17 12 11 12
3 2 1 3 6 5 7 7 9 3 3 5 5 6 6 11 9 6 4 3 5 7 9 9 10 12 12 11 10 10 10 10 12 14 16 18 19 19 20 20 20 21 20 17 14 15 15 14 13
4 8 4 5 3 3 7 6 3 5 8 9 8 9 9 9 8 9 9 9 8 7 8 9 11 13 15 12 10 12 15 17 17 18 20 21 21 21 21 22 24 24 24 22 22 21 19 17 15
12 6 5 2 1 4 1 7 11 15 11 11 10 9 8 7 8 8 10 10 9 10 10 12 13 14 15 16 17 17 17 18 19 20 20 21 21 20 21 22 23 23 23 24 24 23 23 22 22
7 5 6 4 2 5 12 11 7 6 7 7 7 5 5 4 5 8 10 11 12 12 13 13 15 17 18 19 19 19 20 20 20 21 22 22 22 23 23 23 23 23 23 23 24 24 25 24 24
10 13 15 13 14 13 12 10 8 7 5 5 4 3 3 5 7 8 9 9 10 10 10 12 14 15 16 18 19 20 21 21 22 23 22 23 25 28 29 28 28 30 30 29 28 28 27 27 27
15 19 17 15 13 12 9 6 4 2 2 4 4 3 3 4 5 7 9 10 11 12 11 12 14 15 16 19 20 22 24 25 27 28 28 30 33 35 36 36 36 36 36 37 36 33 31 31 31
14 13 13 10 8 8 5 2 1 1 1 2 3 5 6 6 8 10 13 15 15 15 17 17 18 19 21 22 25 27 29 32 33 34 36 37 39 40 40 40 39 39 39 40 40 39 38 37 38
11 12 9 8 9 8 5 1 3 4 3 5 7 10 9 8 10 12 12 14 14 16 19 22 24 26 28 29 31 34 36 38 39 39 39 40 41 41 40 39 39 40 40 41 42 43 43 43 43
9 9 9 10 9 4 2 2 2 7 10 9 10 11 12 11 12 14 17 20 21 22 23 25 28 28 30 30 32 35 38 40 41 41 40 40 40 39 39 41 42 43 43 43 45 45 45 46 47
6 6 5 2 3 3 2 2 4 7 9 10 11 12 12 13 15 18 21 22 24 26 27 29 33 34 35 36 38 40 42 43 43 42 42 42 43 43 44 45 46 46 46 46 48 50 51 51 51
3 2 2 2 3 5 5 5 3 7 9 10 14 16 18 17 18 21 23 25 28 28 28 31 36 39 41 40 41 43 43 44 45 45 46 49 50 51 51 51 52 52 51 50 49 48 48 47 47
2 4 5 4 5 4 5 6 7 10 12 14 16 17 19 19 18 19 23 27 30 32 33 36 38 41 40 42 43 46 46 46 44 47 49 50 51 51 51 48 47 48 49 49 50 50 49 49 50
2 4 5 5 6 9 10 10 11 14 16 16 17 19 19 20 21 25 27 29 32 34 35 37 40 41 42 45 49 49 49 52 50 50 50 51 52 52 54 54 53 53 53 53 55 57 58 57 56
4 5 7 7 6 9 11 11 12 14 16 18 19 21 23 25 27 29 31 33 35 34 36 39 40 42 46 49 50 51 52 51 51 52 53 55 55 56 55 55 56 57 58 59 59 60 61 62 63
7 8 9 10 11 12 14 15 16 18 19 21 23 25 27 28 30 32 32 34 35 36 40 41 42 46 50 50 53 52 52 53 54 55 56 58 58 57 58 59 61 62 63 64 65 66 66 66 67
12 11 11 11 14 15 17 17 17 19 22 22 24 27 28 30 30 30 33 34 35 38 41 43 46 50 51 50 50 51 54 55 56 59 61 62 63 64 64 65 67 67 68 68 69 70 70 72 71
16 15 16 15 17 19 18 21 21 24 24 25 27 29 30 27 29 32 34 36 39 41 44 45 48 49 50 51 53 56 58 59 61 64 63 65 66 67 68 70 69 69 70 71 73 75 76 73 74
18 19 20 20 20 21 21 24 24 27 28 30 29 28 28 30 33 34 36 40 42 44 46 47 49 50 52 55 58 59 61 63 65 68 70 71 72 71 73 74 76 75 76 77 76 76 76 75 73
18 18 20 21 21 22 23 27 27 28 30 30 30 30 31 33 36 38 40 42 43 43 45 47 49 52 54 57 59 62 63 67 69 71 74 77 78 79 80 81 81 82 79 79 79 78 78 78 78
16 15 16 19 21 22 25 30 27 28 30 32 33 33 35 36 37 39 41 43 45 47 49 50 52 56 59 61 64 68 71 73 75 77 78 79 82 83 85 87 87 87 85 82 82 80 81 81 81
14 16 18 21 24 26 26 28 28 30 32 34 35 37 36 38 40 41 44 46 48 50 51 55 59 63 65 67 71 74 76 77 80 81 82 83 87 89 88 89 91 90 91 91 93 90 84 79 76
19 20 23 25 27 28 26 24 30 32 33 33 32 34 36 36 39 42 46 47 49 53 56 60 64 66 69 73 76 78 79 82 82 82 85 89 84 88 90 92 95 96 98 97 83 73 67 61 56
21 23 25 27 28 32 33 21 31 32 31 32 31 33 37 39 43 46 48 50 53 57 62 65 68 71 74 77 78 80 82 83 83 87 90 86 87 92 98 96 95 91 77 62 56 47 48 45 51
24 26 29 31 32 32 35 29 31 33 33 32 34 39 42 45 48 47 49 52 58 62 65 69 72 75 77 78 79 80 83 87 87 87 85 88 93 100 97 91 81 66 52 44 43 47 50 53 50

GFSSGP_500_spd_006.txt.gz
Wind_Speed
22 22 20 19 19 20 21 22 22 21 19 18 19 20 21 22 23 22 22 24 25 27 27 28 25 27 28 27 26 26 26 26 25 25 27 27 24 26 25 25 26 25 24 22 21 20 22 21 23
21 21 19 19 18 19 21 22 21 20 18 17 18 19 20 21 21 22 22 26 27 28 28 27 27 25 26 25 27 26 24 25 26 25 24 24 22 21 21 19 19 19 19 18 18 20 21 21 20
21 20 20 18 15 19 22 21 18 16 16 17 16 17 18 19 20 20 18 18 19 19 20 21 21 21 20 20 21 24 25 23 20 19 18 18 17 16 16 17 18 18 17 16 17 20 20 21 21
21 17 17 14 16 18 18 14 12 13 12 12 13 16 16 13 9 10 11 11 12 13 13 14 14 15 17 18 19 19 18 17 17 17 17 16 14 13 13 13 13 14 15 14 14 16 16 15 16
15 12 11 12 13 12 8 7 7 7 9 11 11 9 8 9 9 11 12 11 11 10 11 13 14 14 16 16 14 14 14 14 13 12 12 13 14 13 14 13 14 14 14 13 13 13 13 14 15
7 8 5 9 7 5 4 1 3 6 6 6 5 5 6 9 11 10 9 8 8 7 9 9 9 11 10 9 8 8 9 11 11 12 13 13 15 16 17 17 16 16 17 16 14 13 11 10 11
7 7 7 4 5 3 1 3 5 6 5 3 3 2 4 7 9 9 8 7 6 6 6 6 6 7 8 8 8 9 9 9 11 12 14 15 16 16 16 17 19 20 19 18 17 16 15 13 12
9 9 7 6 2 4 3 2 5 8 8 7 8 4 4 5 6 7 7 7 6 5 4 4 6 6 6 6 7 8 10 11 12 14 16 16 16 15 14 14 15 16 17 19 18 17 16 17 16
14 10 6 5 5 5 5 11 17 11 11 10 9 7 7 7 8 7 7 5 4 3 3 5 6 8 8 10 11 13 14 16 17 17 17 18 18 18 19 20 19 18 17 17 19 21 20 18 19
13 10 8 8 5 6 15 16 10 8 8 8 6 4 3 3 5 4 2 1 3 4 5 7 8 10 12 15 17 18 19 20 20 21 22 22 21 21 23 24 25 25 24 24 24 23 23 23 23
11 10 11 10 7 14 12 8 6 5 4 4 4 1 1 2 2 3 5 7 9 9 11 13 14 16 17 18 19 20 20 21 23 25 27 28 30 31 32 34 35 34 33 32 31 30 29 28 27
11 13 13 11 11 9 8 5 3 2 4 3 3 2 2 4 6 8 9 10 12 12 14 15 15 14 15 17 20 23 25 27 28 30 32 34 36 37 38 38 38 37 37 35 34 35 35 35 33
13 13 13 11 10 8 6 5 5 5 5 3 2 4 4 4 6 9 11 14 16 17 16 16 16 17 19 23 27 29 30 31 32 33 34 35 36 37 37 38 38 38 37 37 37 38 38 38 38
12 13 12 10 10 10 8 7 7 7 6 4 4 5 7 9 10 12 14 16 17 18 20 22 22 23 24 27 30 31 33 34 35 35 37 38 38 39 39 39 40 39 39 40 41 42 42 42 42
11 10 9 8 8 8 8 8 7 6 4 5 8 9 11 14 15 15 17 18 19 20 23 26 27 28 29 31 34 35 36 37 39 39 39 42 43 42 42 43 44 44 43 42 42 42 42 44 45
6 6 8 10 10 9 6 8 6 7 9 8 9 12 14 14 14 15 17 18 20 24 26 26 28 32 34 37 38 39 38 39 41 44 44 44 42 43 44 45 46 47 45 42 41 40 40 40 42
6 7 7 6 4 3 4 7 4 9 9 9 12 12 13 14 16 18 20 23 26 28 29 31 34 35 35 38 40 40 41 44 45 45 46 49 48 47 47 47 47 47 47 47 47 46 46 45 45
9 7 7 6 6 6 9 8 9 10 10 13 14 14 14 16 18 20 23 27 30 32 34 37 37 36 38 41 42 42 44 48 48 49 50 49 50 50 50 50 50 52 53 53 53 53 54 54 52
7 7 8 10 10 9 11 13 12 15 13 13 15 15 16 18 21 23 26 30 32 34 37 40 40 40 43 45 46 48 50 52 52 51 52 52 52 53 54 54 55 57 58 59 59 61 62 60 62
4 5 8 9 10 11 11 11 11 13 14 16 16 18 20 23 26 28 31 34 36 37 39 41 42 44 46 49 50 51 53 54 52 52 53 55 56 57 58 59 61 63 66 66 66 67 68 68 65
7 8 9 11 12 14 14 15 14 13 15 17 20 22 25 27 29 31 34 36 37 39 41 42 44 47 50 52 54 54 54 54 55 57 58 61 62 64 65 66 67 69 70 70 71 71 71 73 71
10 10 11 13 13 14 15 17 15 16 19 21 23 26 29 30 33 35 35 37 39 41 44 44 47 50 51 52 53 53 54 56 59 61 63 65 67 69 70 72 74 75 75 75 75 75 75 77 75
14 14 14 15 15 16 16 16 19 21 23 26 28 30 32 33 33 35 37 39 42 44 45 47 48 47 49 52 53 55 57 60 64 66 67 69 71 74 76 77 79 79 78 77 76 76 77 78 78
18 17 17 19 19 20 18 19 26 23 26 30 32 32 33 33 36 37 39 42 45 45 45 44 46 48 50 52 54 57 62 66 69 70 71 73 76 78 80 80 81 80 81 81 83 82 81 79 79
19 17 18 18 19 20 19 21 24 26 29 30 32 33 34 36 37 38 41 42 42 42 43 46 49 52 53 56 60 64 67 72 74 74 75 78 79 80 80 82 82 84 85 84 82 85 86 83 82
13 13 14 17 18 21 21 24 28 28 29 31 33 35 36 36 38 37 39 39 41 45 48 51 52 55 57 60 64 69 71 72 75 77 77 78 80 82 84 84 86 85 87 86 87 91 93 94 91
12 14 16 19 21 22 23 24 25 28 30 32 34 35 34 33 35 35 39 42 47 50 51 51 54 57 61 65 67 68 71 74 77 78 79 81 82 83 82 83 84 86 90 91 95 91 88 80 74
16 18 20 21 23 24 22 26 27 31 34 33 31 32 34 33 38 42 45 49 50 51 53 55 58 61 63 66 69 72 75 77 79 81 82 81 80 82 85 86 88 92 94 93 84 71 61 53 50
19 21 23 26 26 28 29 25 32 36 35 36 34 31 34 37 41 44 46 47 50 53 56 60 62 66 70 72 74 75 78 81 81 82 81 79 82 86 88 89 91 95 85 71 56 48 45 40 47
23 26 27 30 33 33 34 30 31 37 37 35 33 35 38 41 45 45 48 51 54 57 60 64 67 68 70 74 76 80 83 83 81 81 78 79 87 88 91 91 82 72 61 47 45 44 43 45 50

GFSSGP_500_spd_012.txt.gz
Wind_Speed
15 15 13 10 11 8 10 20 32 27 26 22 18 18 19 19 17 22 23 23 21 28 25 25 20 16 15 13 10 7 7 5 8 11 12 14 14 15 14 13 13 14 15 16 16 16 16 15 16
14 14 15 11 10 8 12 26 30 27 14 14 19 19 25 15 20 25 24 26 25 21 18 16 11 10 9 9 7 6 6 8 9 9 10 11 11 10 10 10 11 12 13 14 15 15 16 16 16
13 12 11 11 14 6 27 27 23 19 15 19 17 21 21 20 22 18 21 21 18 13 10 7 8 9 8 6 5 4 4 5 6 7 8 10 10 10 10 9 8 9 11 12 13 14 14 14 15
9 13 7 11 9 18 18 25 29 19 18 15 18 18 21 19 13 16 13 12 9 6 4 4 6 4 1 1 3 3 5 5 5 6 6 7 7 8 9 9 10 12 13 13 14 13 13 11 11
12 7 12 8 15 26 32 36 25 12 6 13 12 22 11 12 11 9 7 5 1 2 1 1 3 5 6 6 7 6 5 4 3 4 5 7 8 9 10 11 11 12 12 14 15 15 15 14 12
16 12 9 14 26 29 35 28 7 9 7 8 16 13 8 5 7 7 5 5 5 5 6 6 3 4 5 5 5 4 4 4 6 8 9 10 10 11 12 12 12 12 12 12 13 14 15 16 17
15 14 11 22 19 16 16 11 11 13 14 14 11 5 3 2 7 11 13 12 9 8 7 4 3 4 4 4 5 6 8 9 11 13 14 15 15 15 16 16 16 17 17 17 17 19 19 19 19
24 17 15 20 15 24 12 11 11 11 16 4 10 5 6 7 10 10 10 9 7 6 4 1 1 3 5 7 8 10 12 15 16 17 18 18 19 19 20 21 20 22 24 25 25 25 24 23 23
20 17 12 12 9 22 10 11 11 11 8 10 8 5 5 6 5 6 6 5 3 1 3 6 7 9 10 13 14 14 15 16 18 19 21 21 23 24 22 26 25 26 28 27 27 28 26 25 27
27 14 18 20 21 17 13 10 10 9 9 10 9 7 6 4 4 4 2 2 4 6 8 10 11 11 13 14 16 18 19 21 21 22 24 26 27 27 28 26 28 28 30 29 29 28 29 26 26
21 7 22 18 17 13 14 14 9 7 7 8 7 6 4 5 4 4 5 6 7 8 9 9 10 12 15 17 19 21 22 24 25 26 28 30 29 28 29 30 31 31 32 34 33 33 31 31 31
6 19 23 24 16 14 16 15 7 7 8 5 5 5 3 4 5 5 5 6 8 8 9 10 14 16 18 20 22 24 26 28 29 29 31 32 32 33 33 35 38 39 39 39 37 35 35 35 33
15 13 17 14 14 14 10 8 6 7 5 7 6 3 2 3 3 5 8 11 12 12 13 14 17 19 22 24 26 29 32 33 33 32 33 36 37 36 36 39 40 39 39 40 38 36 37 35 34
8 9 11 11 11 7 5 4 6 6 7 6 6 6 3 5 7 8 10 12 13 19 20 20 21 23 25 27 30 33 35 36 36 36 37 36 38 38 40 42 42 40 39 37 37 37 38 38 37
10 9 6 3 1 2 5 7 9 7 9 8 5 7 12 10 13 12 13 16 18 18 23 25 18 25 27 28 32 35 36 39 40 41 41 41 43 42 43 42 40 39 39 40 40 40 40 40 41
7 4 3 1 2 5 6 9 9 6 7 9 10 9 11 17 20 21 15 20 20 24 25 23 36 29 32 34 36 38 40 42 45 45 47 44 44 41 43 43 42 42 44 46 47 48 48 48 49
3 2 3 9 7 5 6 4 14 10 10 10 12 15 14 16 23 26 20 21 23 26 27 33 41 36 35 39 41 44 44 46 49 51 51 51 51 48 48 49 47 48 49 51 53 54 54 54 55
10 2 12 12 7 7 7 8 14 11 14 13 14 16 19 21 20 29 26 27 27 30 31 38 41 41 39 42 46 50 51 51 52 54 56 52 53 51 52 52 53 55 56 57 58 58 58 59 61
14 14 9 17 5 11 12 12 21 12 17 15 16 17 17 25 26 29 27 29 32 33 36 40 39 36 44 51 51 52 52 54 56 58 57 55 56 56 57 57 59 60 62 63 62 62 63 64 66
17 17 14 15 11 12 14 14 18 14 18 20 20 20 23 26 27 29 30 31 35 35 39 42 44 47 49 51 54 54 53 57 58 58 58 59 58 57 60 61 64 67 68 71 71 72 71 70 70
12 14 11 12 9 10 11 14 23 20 18 22 25 25 25 27 29 31 33 34 37 41 43 45 48 49 50 53 55 56 56 57 57 58 62 63 62 60 58 69 74 73 72 74 76 76 77 77 75
15 8 13 13 12 9 12 7 26 26 29 27 26 28 30 32 33 34 34 37 40 42 45 47 49 51 50 54 55 55 55 58 60 61 62 62 64 66 69 72 75 75 76 77 78 78 79 80 78
15 15 15 16 15 17 15 12 21 30 36 39 24 28 31 35 37 37 39 40 41 42 45 48 49 50 51 51 52 54 58 58 59 61 63 65 68 72 74 76 77 77 80 80 80 81 78 78 79
20 20 20 19 19 18 10 16 18 15 28 24 33 35 35 37 38 39 41 44 43 42 42 44 46 47 51 53 53 54 56 58 61 65 69 72 75 76 77 79 80 82 84 82 84 82 83 82 82
11 11 13 10 10 10 14 13 27 28 30 40 42 40 38 37 38 40 42 43 45 41 38 41 44 49 51 55 57 60 62 65 69 72 74 76 77 76 77 79 80 82 82 84 88 91 94 90 86
6 6 6 8 10 12 17 17 30 26 28 36 37 36 38 39 37 40 40 40 39 40 42 45 46 48 53 58 61 64 68 71 75 75 75 76 77 79 82 82 83 84 85 87 91 92 89 86 84
8 9 10 13 15 16 10 17 29 32 30 37 36 35 40 38 40 42 37 39 39 42 46 48 51 52 56 60 64 69 73 76 78 79 79 79 78 79 82 86 87 91 87 87 87 85 82 79 75
10 12 15 16 19 18 11 17 27 31 25 37 43 44 42 34 35 40 39 41 41 44 47 49 52 57 62 67 73 77 79 81 81 80 80 79 80 81 84 86 86 87 85 84 80 73 66 60 55
17 19 18 19 22 24 24 20 34 37 36 37 39 39 35 30 32 38 40 42 42 44 49 55 60 65 71 77 79 81 83 84 82 82 80 79 80 81 82 83 83 81 77 71 65 60 54 49 47
18 20 22 24 25 27 27 20 29 31 33 32 36 34 33 31 36 37 38 43 47 52 58 63 68 74 77 80 85 85 85 82 81 80 81 81 81 79 80 79 77 71 63 57 52 48 47 48 48

GFSSGP_500_spd_015.txt.gz
Wind_Speed
12 13 13 14 14 18 20 14 22 26 23 25 26 19 23 25 23 24 23 26 22 24 25 23 17 15 10 6 5 3 1 3 4 5 8 10 10 9 9 8 8 9 10 10 10 11 12 13 14
15 14 12 14 17 21 28 27 27 23 20 22 27 30 26 24 24 25 24 21 25 23 19 14 13 8 8 7 4 2 1 1 4 7 9 10 10 10 9 8 9 9 9 10 11 12 12 10 10
18 10 14 18 23 20 20 26 28 26 24 27 29 25 21 18 16 20 22 19 20 13 12 11 9 9 7 5 5 4 3 7 5 5 5 6 6 7 8 8 9 9 10 10 11 11 11 11 11
7 13 21 19 18 14 21 25 19 26 25 27 27 24 20 10 15 19 16 10 11 11 9 8 7 3 3 3 3 4 6 4 2 2 3 5 6 7 7 8 8 9 11 12 13 14 13 13 13
14 18 21 14 11 13 20 22 21 19 28 29 21 13 9 10 14 12 9 12 11 10 9 7 4 5 6 7 6 5 2 0 2 4 7 8 10 10 10 10 10 10 11 12 12 13 13 14 16
10 26 23 22 16 14 18 19 21 25 20 18 20 10 7 8 9 10 10 11 10 10 9 7 6 4 4 4 2 1 3 5 7 9 11 12 12 14 13 14 14 15 16 16 17 17 18 19 18
20 25 24 23 17 21 20 21 32 33 33 23 21 4 2 2 2 7 13 13 12 9 7 6 5 3 1 1 4 7 8 10 11 12 13 14 15 17 18 18 20 19 20 21 22 23 23 23 22
26 23 17 24 20 24 18 22 24 28 24 16 6 6 4 7 9 13 13 12 9 7 5 1 2 3 5 7 8 11 12 14 15 14 15 17 17 20 23 22 21 22 22 23 24 24 22 22 24
16 18 9 14 15 18 18 18 20 20 14 9 2 3 5 7 8 10 10 8 6 3 1 4 5 7 8 11 12 14 16 18 21 20 20 21 21 23 24 25 24 23 23 23 24 24 24 23 22
17 14 13 15 19 19 15 18 18 11 7 3 6 4 5 6 6 6 5 4 1 2 2 6 6 8 11 12 13 15 17 20 23 25 26 25 24 24 23 23 24 26 27 29 31 31 30 28 27
22 16 23 22 24 25 21 14 12 6 4 4 4 3 5 6 6 5 4 3 3 3 4 8 10 11 11 11 15 18 20 22 23 26 27 28 28 29 30 30 30 31 32 33 33 32 32 30 29
14 20 24 20 22 26 16 10 6 2 1 3 1 3 5 7 7 6 3 4 5 4 8 14 13 12 14 17 20 20 23 25 26 28 30 32 34 35 35 35 36 36 36 36 36 36 35 29 28
25 23 21 22 24 14 8 8 4 2 5 3 1 4 5 6 5 5 7 7 7 10 11 15 16 13 14 17 21 26 29 30 31 32 33 34 34 35 36 37 37 38 37 36 35 34 32 31 31
26 9 6 10 8 8 5 2 2 4 6 6 5 5 6 6 4 8 10 12 15 17 17 15 26 18 14 21 27 30 33 34 34 35 37 37 39 39 40 40 38 37 35 35 33 32 33 34 34
11 11 11 10 8 4 1 1 7 4 3 3 7 10 8 10 8 7 12 16 18 20 24 26 19 20 17 26 31 34 34 35 38 41 39 40 43 42 44 43 42 40 39 38 37 38 40 41 40
9 8 10 9 5 3 2 7 6 2 4 5 6 10 13 16 19 16 13 17 20 22 26 35 26 31 37 29 32 36 37 42 48 47 47 45 43 46 48 47 46 46 44 43 43 45 47 48 48
12 6 4 8 3 3 5 8 7 4 4 7 11 15 17 20 21 24 20 17 21 26 28 33 32 33 34 31 33 42 47 50 49 52 53 53 53 51 49 49 50 52 52 51 50 51 53 54 54
15 6 2 12 5 1 6 10 13 8 6 10 11 18 19 22 26 25 28 26 27 28 29 35 36 37 39 44 46 47 49 51 53 55 54 52 51 52 55 56 56 57 58 59 60 60 61 61 61
5 13 13 13 2 4 6 12 17 18 14 14 16 18 21 26 27 30 31 29 32 33 38 40 40 43 46 48 49 48 53 54 56 57 55 55 56 58 58 59 59 60 60 62 65 67 69 70 71
14 19 16 11 7 9 10 16 18 18 14 19 16 18 22 25 28 30 31 35 33 34 37 42 45 44 48 49 52 53 51 55 55 55 57 60 61 61 63 65 65 66 67 69 72 74 76 76 78
13 14 16 12 6 9 10 17 19 17 17 19 17 20 21 23 27 29 32 33 36 40 42 43 45 48 50 51 52 53 53 51 53 56 58 59 62 64 65 67 71 74 76 77 78 79 79 79 79
7 8 12 12 10 12 11 17 22 20 21 23 27 26 28 27 27 29 35 38 40 42 43 43 46 47 48 50 49 48 50 52 53 55 58 61 63 67 71 73 76 78 80 82 82 82 82 82 81
9 12 13 13 12 15 14 15 20 30 33 27 25 27 27 24 30 34 35 37 38 39 42 44 44 43 43 44 45 49 49 51 55 58 61 66 70 74 77 78 80 82 83 82 82 82 83 84 83
16 17 18 18 17 14 13 17 30 31 27 31 32 23 28 41 43 41 40 40 39 38 37 40 41 44 47 48 47 47 49 53 57 62 67 73 76 77 80 83 82 81 82 83 84 84 84 84 85
9 10 12 14 14 14 14 22 25 26 32 36 36 38 43 44 44 43 45 46 42 36 36 37 39 41 46 48 51 55 60 65 70 74 77 80 82 82 84 84 83 83 84 84 84 85 87 87 88
3 4 5 6 9 7 13 22 20 22 27 32 36 42 42 38 40 42 47 43 39 38 36 38 40 41 43 48 53 58 64 69 74 77 80 82 83 82 81 81 82 82 82 84 85 85 86 87 86
6 7 8 8 10 10 18 21 24 25 29 35 37 41 46 36 46 37 37 37 35 36 37 39 43 47 53 57 64 69 74 79 83 85 83 82 80 79 80 80 80 80 81 81 82 81 79 75 70
8 10 12 12 12 9 14 26 28 32 31 37 43 41 41 46 36 38 39 38 38 39 42 45 50 56 61 66 71 76 80 83 85 86 82 81 80 81 81 81 80 80 79 77 74 70 65 59 53
11 15 19 19 18 16 8 22 29 33 37 39 37 40 39 33 31 32 34 38 40 42 47 52 57 62 66 71 76 80 84 87 86 83 81 80 82 82 84 75 74 72 71 69 65 61 54 47 44
11 14 18 21 21 22 21 12 26 27 32 32 28 33 33 29 30 31 35 38 42 47 52 57 61 67 72 76 80 84 87 87 84 83 82 85 86 86 75 76 71 72 70 64 59 52 44 44 45

GFSSGP_500_spd_018.txt.gz
Wind_Speed
22 17 15 16 21 28 32 27 27 25 28 28 29 29 24 21 23 26 26 24 25 29 27 25 18 16 15 11 7 5 3 3 2 5 8 10 11 10 9 8 7 7 8 9 10 11 12 13 13
22 18 13 15 12 27 24 26 26 23 29 29 31 27 33 26 31 31 29 30 28 26 24 16 15 14 11 11 9 7 5 3 6 5 6 5 5 5 5 5 5 7 8 10 12 12 13 14 15
23 21 15 19 24 25 28 30 25 21 24 20 13 21 26 31 36 36 30 29 24 24 14 14 13 12 11 9 7 6 4 5 4 3 1 2 3 4 5 6 8 10 11 12 13 15 16 16 17
20 18 25 26 32 28 28 31 37 31 28 23 18 23 24 29 32 32 28 24 19 14 14 13 9 7 2 2 4 5 6 3 2 2 4 6 7 8 9 10 11 12 12 13 14 15 17 17 18
19 22 27 30 28 34 31 30 24 20 12 17 24 23 25 27 24 23 23 17 14 14 12 8 3 5 6 7 6 4 3 3 5 6 8 10 11 12 13 15 16 17 17 17 18 17 17 17 19
17 28 27 17 15 19 19 14 16 9 17 23 26 18 21 25 20 22 18 14 14 13 7 7 8 6 5 5 3 2 4 6 9 10 12 13 15 15 15 16 18 19 20 21 22 23 24 24 26
26 28 24 23 23 24 20 10 16 15 19 22 20 24 24 13 15 16 12 14 13 9 9 10 8 6 4 2 5 7 9 11 12 13 14 16 19 19 20 21 23 23 24 25 24 24 25 25 25
27 32 30 27 22 17 11 15 21 22 20 19 17 17 10 6 6 8 11 11 11 11 10 8 6 6 7 8 10 11 13 14 14 15 18 20 22 24 25 25 26 24 24 25 24 24 24 24 24
25 25 24 24 26 11 15 23 25 22 20 15 11 10 9 7 7 8 10 9 9 7 8 8 8 10 11 12 13 13 13 14 17 19 21 23 24 24 26 26 25 25 26 27 27 27 28 30 28
24 19 22 24 17 16 13 14 17 20 17 10 11 9 6 7 7 7 6 6 5 6 10 9 11 14 11 12 12 13 16 17 19 20 21 22 22 23 24 26 26 27 29 31 32 32 32 32 32
22 18 11 16 12 12 11 18 21 12 7 5 3 5 5 6 6 6 7 8 7 10 12 15 12 13 11 12 14 17 19 20 23 23 24 25 25 27 29 30 32 33 36 36 36 36 35 34 33
17 15 11 14 16 17 17 18 5 5 2 3 3 4 4 6 5 6 7 7 7 11 14 16 14 14 14 17 18 21 22 23 25 26 28 30 32 33 34 34 35 36 37 36 35 36 36 35 31
14 19 16 14 16 16 15 10 8 5 7 7 6 3 4 5 5 6 6 8 9 10 15 21 17 16 20 23 14 24 26 26 26 26 26 32 36 36 38 39 38 38 37 35 35 33 32 31 30
15 19 13 21 19 15 8 6 4 5 4 5 7 6 7 8 6 8 8 9 11 13 11 15 19 13 24 27 25 33 28 33 31 28 31 42 39 40 41 43 43 40 38 37 35 34 34 34 34
22 13 8 12 14 11 8 7 4 4 1 2 4 6 6 8 9 10 13 16 14 16 16 13 19 20 17 24 27 36 30 34 35 37 43 41 44 44 44 44 42 41 40 41 43 43 42 41 39
18 17 16 16 12 10 8 5 3 7 5 4 3 4 7 10 10 12 12 10 15 21 23 27 21 20 27 28 30 30 39 43 40 40 44 46 43 42 40 42 44 45 46 46 47 48 48 47 46
15 18 17 15 9 3 2 4 1 5 3 1 6 9 10 13 13 12 15 18 18 22 27 26 27 32 35 35 37 39 39 42 42 45 49 50 48 44 43 44 46 46 47 49 52 54 55 56 56
14 15 15 13 5 1 5 8 6 3 1 5 9 12 14 18 22 22 21 21 23 27 30 27 31 32 35 43 47 47 43 38 40 47 50 47 48 49 49 48 49 49 50 52 55 57 60 61 62
7 6 7 6 3 4 10 16 13 9 6 9 11 15 19 20 24 26 26 29 31 27 29 35 37 42 49 50 50 45 41 41 47 51 48 50 50 51 53 55 56 57 58 61 64 66 68 70 72
8 11 9 3 5 10 15 15 16 17 16 14 16 16 17 22 24 25 25 26 27 29 35 42 47 49 50 50 43 42 49 51 48 48 52 53 55 58 60 61 65 68 71 73 74 75 76 78 79
14 18 16 14 9 12 14 14 14 17 20 18 15 15 18 21 21 22 23 25 31 36 41 43 46 48 49 51 52 53 51 48 50 54 55 57 60 63 65 69 73 76 79 81 83 84 83 82 84
8 14 17 14 13 15 16 18 20 21 22 19 16 20 20 22 25 22 23 28 35 39 41 43 46 49 50 50 49 46 46 49 51 53 56 60 63 66 71 75 78 81 83 85 85 84 83 83 83
11 14 16 17 16 15 18 22 27 26 25 22 21 16 16 22 26 25 31 36 35 39 39 42 43 46 45 44 43 45 47 49 49 53 57 62 67 71 76 80 82 84 85 83 82 82 84 86 86
12 14 16 18 18 18 21 24 30 28 25 24 22 26 27 31 30 31 40 40 42 41 46 45 45 42 42 42 42 43 44 49 54 59 64 69 73 78 82 84 86 87 86 83 82 82 83 84 86
9 10 11 13 14 19 21 23 30 29 31 26 28 30 36 37 34 35 35 42 43 41 36 35 37 38 40 39 41 46 51 57 63 68 72 78 84 86 89 90 88 86 84 84 84 86 86 88 88
3 2 3 5 6 11 15 19 23 28 30 33 36 32 31 36 35 36 43 47 41 33 28 29 31 32 36 42 48 53 60 65 70 74 79 83 87 90 90 88 86 87 86 86 88 88 87 84 85
1 2 2 4 7 12 17 21 26 28 30 34 33 31 31 39 44 45 39 39 35 32 31 33 37 41 45 51 57 63 68 72 77 80 84 87 89 90 88 88 89 89 88 86 81 75 76 77 79
3 6 8 8 6 11 15 19 23 26 31 33 37 38 42 45 39 31 32 34 34 34 37 41 45 50 54 59 63 68 73 77 81 86 88 89 87 86 88 88 86 84 81 75 66 68 78 73 63
3 4 8 11 13 13 17 18 21 26 29 30 32 33 34 31 30 34 39 38 39 41 43 47 52 56 61 64 69 73 78 81 85 88 89 89 90 92 91 87 84 79 66 69 73 78 67 59 49
2 4 7 10 15 17 17 21 25 26 29 30 31 28 24 24 30 35 37 38 40 43 47 51 55 59 63 68 73 77 81 85 89 92 93 93 92 92 88 80 71 66 59 68 75 74 60 49 47

GFSSGP_500_spd_021.txt.gz
Wind_Speed
28 25 24 19 23 33 29 30 30 28 29 25 24 24 24 21 23 22 21 23 26 29 29 28 26 25 20 18 11 9 6 2 2 5 5 5 5 5 5 5 6 8 10 11 13 14 16 16 17
20 22 22 20 23 29 31 30 31 29 29 28 27 25 24 23 23 33 23 28 33 32 30 27 26 21 18 12 10 8 6 3 5 3 1 1 3 4 6 8 9 11 13 14 16 17 18 17 18
20 13 15 17 17 21 33 35 29 29 28 31 32 26 26 15 24 24 29 36 39 35 31 23 19 17 12 9 7 7 4 6 6 5 6 6 8 9 10 12 13 14 15 16 17 19 20 20 20
13 19 17 20 21 26 29 29 30 27 32 25 28 21 15 16 25 31 35 38 36 31 23 19 16 10 6 4 5 7 7 6 7 9 10 10 12 13 15 16 17 19 20 20 22 22 23 24 24
12 20 25 26 29 27 30 28 31 29 23 22 16 16 9 19 26 33 37 35 30 23 18 16 9 7 7 8 7 6 7 9 11 12 13 15 16 17 18 19 20 21 23 23 25 25 27 27 29
15 25 32 28 32 30 27 25 21 27 25 22 15 19 18 23 26 28 31 25 19 17 15 10 10 10 9 8 7 8 10 12 13 15 15 17 19 20 20 21 23 25 26 28 29 28 29 29 29
19 25 30 30 30 32 32 31 22 17 9 13 16 21 24 26 31 29 24 19 17 14 11 11 12 9 8 8 9 11 13 14 15 16 17 17 19 22 24 26 27 29 31 29 28 28 26 26 27
30 33 27 24 22 23 20 20 13 8 8 11 15 23 24 24 21 17 15 14 12 11 12 12 10 9 9 11 12 15 16 16 16 16 19 20 23 25 26 26 26 27 29 29 30 30 30 30 30
25 27 24 32 27 25 16 11 2 11 10 14 15 20 18 14 6 4 7 9 11 11 11 12 11 11 12 14 16 17 17 17 19 21 22 23 23 24 24 25 26 28 29 30 32 33 35 36 35
27 29 23 28 21 21 14 3 11 19 13 14 14 14 13 10 6 5 6 7 8 10 10 10 13 13 15 15 17 18 19 21 22 22 23 23 23 24 25 28 29 30 32 33 35 36 37 36 35
24 34 25 23 19 11 3 6 14 13 3 3 6 8 7 7 6 6 6 5 9 10 12 13 13 12 14 18 20 22 22 23 25 24 26 27 27 26 28 31 32 33 34 35 36 37 35 35 35
27 16 16 4 3 4 2 6 14 7 5 2 5 6 7 6 6 7 8 8 9 10 12 11 12 15 17 17 20 26 21 21 22 25 28 29 30 27 38 33 33 34 35 36 36 34 32 31 30
15 8 7 9 7 10 10 11 10 6 6 6 7 7 7 7 7 8 5 5 9 12 14 14 15 16 17 16 20 23 22 25 26 28 28 30 28 40 37 38 38 37 37 35 34 33 32 31 31
15 10 9 12 13 13 8 8 10 9 11 10 10 7 6 6 5 5 5 6 10 11 13 17 18 16 18 19 18 21 28 35 34 35 37 37 40 39 38 38 40 39 37 35 35 35 35 34 36
15 13 7 13 17 15 7 11 10 11 12 13 13 10 8 6 6 7 11 11 11 14 15 17 19 21 19 19 22 24 23 27 35 39 41 42 40 42 41 39 38 39 40 39 38 39 39 38 39
15 17 10 9 11 12 12 11 9 13 11 10 11 8 6 7 8 8 9 12 13 16 18 16 17 19 24 29 29 29 31 43 44 43 46 43 43 44 41 37 39 40 41 40 41 42 42 44 45
13 13 14 13 8 12 11 7 5 4 8 9 7 6 7 10 11 10 12 14 15 17 20 18 21 22 24 28 27 43 45 46 46 43 40 42 46 46 41 40 39 39 40 41 43 46 49 51 54
19 21 18 15 12 11 12 7 6 4 7 9 6 8 10 10 13 15 16 18 21 22 18 19 27 29 28 38 47 47 48 48 40 38 43 47 45 45 45 42 45 46 48 51 53 55 57 60 61
20 24 19 17 13 9 8 7 9 8 10 9 8 12 13 14 17 18 21 20 21 19 18 22 28 41 43 45 49 49 45 38 44 48 46 48 47 47 47 49 52 56 58 61 62 65 67 69 71
18 24 15 11 6 8 7 9 13 13 11 10 12 13 14 16 19 23 25 23 22 21 25 33 38 44 47 48 49 44 45 49 52 50 48 49 49 51 54 58 62 65 67 70 73 76 77 78 80
16 16 12 10 10 10 11 15 15 17 15 13 13 15 15 18 23 24 22 23 27 28 33 37 42 45 50 52 52 53 52 51 49 50 50 50 53 58 62 66 71 74 76 79 82 83 84 85 85
13 12 14 15 17 21 19 21 18 17 18 18 17 16 18 21 25 26 27 29 29 35 37 46 50 51 53 56 56 53 50 50 50 51 54 57 61 65 68 72 76 78 79 83 85 87 87 87 86
11 11 12 13 17 22 27 26 23 22 22 22 21 22 23 22 24 26 32 33 35 41 45 47 50 54 54 48 46 44 45 47 50 52 56 59 63 67 71 74 78 83 87 90 90 90 89 88 87
10 11 15 16 19 23 27 28 28 26 25 24 21 22 26 27 27 33 35 33 42 41 41 45 50 49 44 43 43 44 45 47 50 55 60 64 69 74 77 82 86 89 91 91 90 90 90 91 90
14 16 18 20 21 25 27 29 29 27 26 27 28 28 29 30 33 32 31 37 41 47 46 46 44 39 37 38 40 43 46 51 56 61 66 72 77 82 85 88 91 93 93 92 92 92 92 92 91
8 9 9 10 11 12 14 18 21 23 25 29 30 30 29 28 29 32 30 42 45 44 46 39 34 33 36 39 43 49 54 59 63 67 72 77 82 86 89 93 95 96 96 96 96 95 93 85 78
7 6 5 6 7 9 10 12 17 19 23 24 25 26 25 28 34 39 45 43 39 43 36 32 35 38 41 45 50 55 59 63 67 73 78 82 85 89 94 96 97 97 97 99 97 87 75 74 68
6 5 2 1 3 6 9 11 13 15 17 18 20 23 25 27 29 32 34 36 37 35 38 40 41 44 48 52 56 60 64 69 73 78 82 85 89 93 96 98 97 99 99 93 80 76 71 66 64
7 4 2 3 6 8 10 13 15 16 16 17 20 21 22 26 30 33 35 37 36 40 43 45 47 51 54 58 61 65 70 73 78 82 85 89 93 97 99 97 99 98 90 77 72 70 65 65 68
5 5 4 7 10 14 15 15 17 17 18 19 20 21 25 29 32 36 39 42 44 46 47 48 52 56 59 62 65 70 73 77 80 84 88 92 95 99 98 99 96 83 75 68 65 58 60 64 61

GFSSGP_500_spd_024.txt.gz
Wind_Speed
23 27 23 22 28 38 43 35 44 37 33 31 27 26 25 27 26 26 22 23 21 23 24 27 29 30 29 25 18 10 7 6 3 3 1 0 2 3 5 7 8 10 11 13 15 16 17 18 17
18 21 20 18 19 30 26 25 31 35 32 32 28 28 26 17 24 23 17 24 20 24 29 30 28 26 25 20 14 10 9 6 5 5 4 4 6 7 9 11 12 14 15 16 18 19 20 22 21
16 17 20 15 22 26 31 28 27 31 30 31 34 33 23 19 14 17 20 21 23 29 30 28 25 22 19 13 11 9 8 7 8 8 8 9 11 13 14 16 17 18 20 21 23 23 25 26 27
14 14 18 9 21 23 27 28 28 31 34 25 32 31 34 25 18 18 18 22 29 31 29 24 21 17 12 9 7 6 8 9 9 10 12 13 15 16 18 20 22 23 24 25 26 27 28 29 30
17 13 16 18 20 24 26 33 33 32 27 30 33 29 23 19 13 16 21 25 27 27 23 19 15 11 8 7 6 8 9 10 13 14 15 16 17 19 21 22 24 25 26 27 29 30 32 31 30
15 13 21 23 24 26 27 27 31 14 30 20 13 19 12 9 14 16 18 24 26 22 17 15 11 8 7 8 8 9 11 14 15 15 16 18 20 21 22 24 27 29 30 30 29 28 27 28 28
19 13 27 27 26 27 26 27 20 17 16 20 10 11 13 14 18 21 22 23 18 16 13 10 8 9 9 10 11 13 14 15 16 18 19 19 20 23 26 28 28 26 25 26 27 27 27 28 30
23 17 35 33 19 31 32 24 20 9 1 3 9 15 17 19 21 22 19 16 14 13 9 7 10 10 12 13 14 15 16 18 19 20 20 21 25 28 28 28 28 28 28 29 30 31 32 32 32
26 24 27 30 29 28 25 24 14 5 9 6 9 14 14 14 14 13 8 7 9 7 6 6 8 11 13 13 16 17 20 19 18 19 22 26 28 29 28 29 27 31 33 32 31 32 32 34 35
19 24 32 29 28 27 17 13 23 17 11 7 8 9 8 8 8 6 1 2 4 3 2 5 9 10 13 15 18 18 19 20 20 20 22 25 26 29 32 31 28 38 35 35 34 34 34 36 34
18 21 22 18 13 20 11 6 12 13 6 2 2 5 8 7 7 5 3 3 1 2 6 9 10 12 13 15 18 19 20 24 23 21 24 26 27 29 33 32 32 39 37 38 38 36 34 35 32
27 24 24 22 19 9 11 11 8 11 2 4 4 6 7 8 8 6 4 4 6 8 7 7 10 13 16 18 20 21 21 23 24 21 25 26 29 31 34 34 43 39 39 39 36 34 32 30 30
26 15 15 3 8 9 7 6 7 4 5 6 5 7 7 6 4 4 3 4 4 6 9 11 14 19 20 20 21 23 23 22 22 25 30 32 35 38 38 40 40 41 41 37 34 32 31 30 30
15 7 7 5 2 1 1 5 2 7 8 8 9 8 7 4 2 3 3 4 7 10 14 17 18 20 21 21 24 24 21 17 17 26 35 37 38 41 42 40 42 41 39 37 36 34 33 32 32
13 7 8 2 7 8 6 6 10 9 11 11 12 11 8 5 1 4 6 8 11 14 16 19 22 20 17 19 26 31 24 14 29 34 38 42 43 43 41 43 43 42 39 41 39 37 36 36 37
9 7 3 2 7 12 12 12 10 10 11 12 13 13 10 6 7 6 7 9 12 15 19 22 20 22 22 24 26 20 28 32 36 42 42 43 41 37 40 45 45 44 42 41 39 39 39 43 45
6 7 9 8 12 14 16 14 10 11 15 13 11 14 10 7 8 8 9 8 14 17 18 20 15 21 28 24 25 32 37 37 45 45 46 41 37 48 46 44 45 41 40 42 45 48 50 52 53
12 13 13 12 12 15 14 13 13 11 9 10 11 11 7 9 10 12 14 12 15 18 20 16 15 22 27 33 36 36 39 44 47 45 42 47 54 54 49 47 42 44 47 51 54 56 59 61 63
11 17 16 16 15 15 14 12 12 12 11 12 10 11 11 10 12 14 17 20 21 21 20 17 23 35 38 38 36 45 49 46 51 54 54 51 51 49 46 46 49 53 57 61 63 65 67 71 73
15 22 18 20 18 16 15 13 12 12 10 10 12 11 12 13 14 17 21 22 21 19 20 32 38 41 44 45 53 52 52 53 52 49 47 46 45 44 48 52 56 61 66 69 72 74 76 78 81
22 23 23 19 14 16 11 10 9 11 10 11 12 14 16 15 18 21 21 23 25 29 34 39 43 44 46 51 52 53 54 48 46 46 44 43 47 52 56 60 63 66 69 72 75 78 81 84 86
20 20 27 23 18 17 16 17 15 14 15 16 17 17 19 21 24 23 23 24 25 33 38 36 39 46 48 51 54 57 54 49 45 42 45 50 54 58 60 62 65 70 74 78 81 83 86 89 92
16 15 18 16 16 18 19 20 16 16 17 20 22 23 24 26 26 26 26 26 31 36 39 36 43 42 52 51 55 55 50 46 46 49 52 54 57 60 64 68 73 78 81 84 86 89 92 96 98
15 15 15 15 16 20 19 22 20 20 22 24 26 27 27 24 24 29 29 33 36 34 39 42 47 57 49 49 50 46 45 46 47 50 55 59 63 67 70 74 78 82 85 89 92 95 99 99 97
16 16 16 18 19 22 22 25 23 22 20 21 23 24 25 26 26 26 28 32 41 39 41 46 52 48 47 47 46 45 47 50 53 58 61 64 67 71 75 79 83 86 90 94 96 99 99 100 101
16 16 16 14 13 13 15 12 11 13 15 17 18 20 22 23 24 25 25 37 41 41 46 50 47 47 45 45 46 49 51 54 58 60 63 67 70 76 79 84 87 91 94 95 98 98 102 103 92
12 11 9 8 8 8 7 4 4 4 5 7 10 12 14 17 19 22 26 31 34 37 41 42 44 44 47 46 46 49 53 57 59 62 66 70 75 79 85 90 93 96 100 103 103 104 104 87 75
10 8 5 3 3 2 4 6 8 8 8 10 12 14 17 20 23 26 29 31 34 36 38 40 42 45 45 47 51 55 58 60 63 67 71 76 82 87 91 94 96 100 103 102 104 95 77 67 59
10 8 5 4 4 7 8 8 9 11 13 15 16 19 22 25 27 29 31 33 34 36 40 44 47 49 51 54 57 60 61 64 68 72 77 82 88 92 93 95 97 101 102 100 87 66 59 50 43
10 9 8 7 9 12 12 11 13 15 16 17 19 22 25 26 29 32 34 37 40 41 44 47 50 53 56 58 60 61 64 69 73 77 82 87 92 92 94 95 100 100 98 82 60 50 43 39 42

GFSSGP_500_spd_027.txt.gz
Wind_Speed
21 24 27 27 25 28 32 34 36 39 38 35 33 31 29 31 33 33 29 28 26 25 21 21 23 24 23 22 21 17 11 7 5 6 3 1 2 5 7 8 10 13 15 17 18 19 20 21 21
19 20 24 28 25 24 26 25 26 37 41 40 36 35 31 30 34 34 34 29 19 13 15 22 23 20 20 21 18 13 10 8 6 6 5 4 6 8 10 12 14 16 18 20 22 23 24 24 25
17 16 19 22 21 15 19 20 27 32 41 35 28 40 38 34 34 39 22 20 14 13 17 21 20 17 18 16 14 11 9 7 9 9 8 9 11 13 15 17 19 20 21 22 23 25 26 27 28
16 14 17 17 19 20 18 27 27 30 30 33 38 23 29 31 35 17 18 8 13 14 15 17 15 16 14 14 10 6 6 9 11 11 11 12 14 17 19 20 22 23 25 27 28 29 30 29 26
16 14 16 17 22 21 21 23 24 28 21 26 23 25 35 31 29 19 7 10 10 13 15 14 14 12 13 10 6 6 9 10 12 10 12 15 18 19 21 23 25 27 29 29 28 27 26 24 24
17 15 18 21 22 22 25 21 30 25 22 21 21 20 16 15 15 5 10 13 14 13 13 12 10 12 11 7 6 7 8 10 11 13 16 18 21 22 23 25 27 29 28 26 26 27 27 27 27
16 17 18 21 24 22 26 16 17 28 23 18 16 9 3 7 9 7 11 13 14 11 11 10 12 12 10 8 8 8 10 12 14 17 19 21 22 23 25 28 28 27 28 28 28 31 31 30 30
18 20 18 23 21 25 22 19 22 25 12 17 3 5 9 10 10 11 9 8 10 8 9 11 11 11 8 8 8 9 13 15 17 20 21 22 23 25 26 26 27 29 29 27 33 36 33 32 31
20 19 22 26 21 20 23 24 18 12 16 1 1 3 3 4 5 6 3 1 5 6 8 8 9 6 5 6 10 13 16 18 20 19 22 24 24 24 26 26 28 31 33 30 38 35 36 36 35
18 20 25 22 28 25 26 24 23 23 7 5 3 3 3 3 2 0 5 7 7 7 8 6 6 6 7 10 14 16 18 19 20 21 23 25 23 24 27 28 30 32 31 33 40 38 36 37 35
20 19 27 22 21 16 19 14 11 8 11 6 5 5 5 4 3 3 3 4 7 7 5 5 5 7 10 13 15 18 20 22 21 21 23 24 23 27 31 35 35 34 35 38 38 39 39 35 33
13 11 12 14 19 17 10 17 13 11 6 5 6 6 4 3 4 5 5 7 7 5 5 4 7 11 13 15 18 21 25 25 24 25 27 25 27 32 33 35 36 38 40 35 38 39 37 34 33
19 14 14 15 13 16 19 14 9 9 5 3 3 1 0 1 3 5 6 7 5 3 5 8 9 13 17 19 23 24 28 29 29 26 26 26 28 32 37 40 40 37 37 39 39 38 38 37 35
19 18 14 5 11 17 11 13 10 8 4 2 1 1 3 3 3 4 4 4 4 6 9 10 14 15 18 20 22 24 27 27 27 28 20 24 32 36 38 42 38 35 40 43 43 41 39 37 34
18 13 6 6 1 7 5 6 8 8 5 2 4 6 5 5 5 5 6 6 7 9 12 16 17 20 21 21 22 27 31 30 19 21 29 33 44 42 40 38 33 42 50 45 44 44 38 36 36
18 12 8 4 4 10 8 8 9 9 4 5 5 8 10 7 7 7 7 8 13 13 15 15 18 23 25 27 28 31 24 22 20 29 33 41 44 44 42 50 50 50 44 43 41 40 40 42 45
8 11 4 1 5 9 10 8 8 8 10 9 6 9 13 11 11 12 10 10 12 16 18 21 22 23 24 26 35 29 30 26 33 40 39 38 38 42 51 48 45 45 41 39 41 44 47 50 54
6 8 5 5 5 10 13 12 12 9 7 7 9 11 13 12 13 11 9 10 13 16 18 20 22 25 33 27 39 38 36 40 43 44 41 45 46 43 44 44 42 40 42 45 47 51 55 58 61
6 10 11 9 9 12 11 11 12 11 10 9 10 11 12 12 15 15 15 18 19 20 22 20 26 23 41 42 44 43 44 45 46 48 48 47 45 44 43 41 42 46 50 54 57 60 63 66 68
12 14 15 15 13 9 10 12 10 8 9 10 11 12 13 16 18 17 17 19 21 22 20 25 30 35 42 39 42 45 44 49 51 49 45 43 42 40 42 46 51 55 58 59 60 62 64 66 72
14 17 18 13 14 13 14 16 11 9 6 7 9 11 13 16 19 20 21 22 25 28 28 30 34 40 42 42 45 53 55 59 58 54 50 47 47 48 50 53 56 58 58 61 64 69 72 78 83
19 17 18 19 19 20 20 18 14 11 9 11 13 15 16 19 20 19 21 23 26 28 31 34 38 42 42 43 50 53 57 52 53 53 51 50 51 52 55 56 59 61 64 68 72 76 81 85 88
18 15 16 19 23 22 20 20 12 11 11 14 16 18 20 20 19 19 23 25 24 26 31 32 38 40 41 49 53 53 48 51 50 52 52 52 54 57 60 62 64 67 71 76 81 86 89 91 93
17 18 17 16 18 21 17 19 13 13 17 17 19 19 17 15 17 20 24 26 28 29 31 36 40 41 47 49 49 48 49 50 50 52 53 56 58 61 62 65 69 73 78 82 87 92 93 95 98
17 17 17 17 17 18 16 16 12 11 12 13 13 13 14 16 18 21 24 27 28 30 34 38 39 39 42 44 46 48 50 54 53 53 56 59 61 61 65 70 74 78 83 88 92 92 95 100 105
18 18 18 18 16 12 11 5 7 8 8 9 9 10 11 13 15 18 20 23 25 27 30 32 35 38 41 44 47 50 51 51 53 56 59 61 62 66 70 74 79 84 89 93 94 97 102 106 110
18 17 14 11 8 5 2 2 2 3 2 3 4 6 9 12 15 17 19 22 25 29 32 34 37 40 43 46 49 52 54 56 58 59 60 61 66 70 76 81 86 90 93 95 98 102 107 105 90
14 12 10 7 5 3 2 2 3 4 5 7 9 10 12 15 18 20 22 25 28 31 34 38 41 43 46 48 51 55 58 59 60 60 62 65 70 76 81 86 89 92 94 97 101 104 98 83 64
12 10 8 6 5 5 5 6 8 8 9 11 12 15 17 19 21 24 27 30 32 34 36 39 42 45 48 50 54 58 59 60 60 62 65 70 76 81 86 91 92 94 96 100 99 90 76 58 46
11 11 9 9 9 9 10 9 11 13 14 16 17 19 20 22 25 28 31 34 36 38 42 44 47 49 50 52 56 59 60 60 61 64 69 75 81 86 90 91 92 95 99 96 85 72 56 45 44

GFSSGP_500_spd_030.txt.gz
Wind_Speed
24 24 24 25 25 26 28 34 38 37 39 37 37 42 43 38 37 41 36 36 34 29 28 19 19 14 15 18 17 16 15 10 8 10 7 5 3 4 6 8 11 13 16 18 19 21 22 23 23
23 21 21 23 22 23 18 30 34 36 40 39 38 41 41 37 37 39 37 34 30 37 27 19 11 13 14 16 14 15 12 7 8 11 9 7 6 7 9 11 14 17 19 21 23 24 25 25 26
22 19 20 20 21 19 19 30 32 35 33 33 35 39 39 35 35 38 40 40 34 39 25 11 11 14 15 14 14 14 8 8 11 12 10 10 10 11 13 15 17 19 21 24 25 25 24 23 23
21 17 19 16 13 23 28 26 30 31 24 23 31 37 39 38 36 35 38 39 28 12 11 4 9 13 12 12 14 9 7 8 11 11 11 12 13 14 16 18 20 22 25 25 25 23 21 22 23
19 16 19 16 18 23 26 25 23 24 20 20 23 34 29 35 35 33 31 34 12 6 3 6 12 13 10 12 11 8 7 7 7 9 11 14 15 17 20 20 21 24 26 24 25 24 24 25 26
20 17 16 15 22 24 26 24 23 22 22 23 22 27 23 33 42 25 17 7 8 4 5 9 13 14 11 11 9 9 8 6 8 10 14 16 18 21 22 21 24 26 25 26 26 24 22 25 26
21 19 20 21 20 23 26 25 23 22 23 29 18 15 19 15 14 24 5 2 3 3 7 14 14 12 12 12 11 9 7 8 10 13 16 19 22 24 23 24 26 25 25 26 27 27 25 29 29
21 18 19 18 16 20 23 26 23 22 18 7 22 6 3 3 3 3 5 1 6 9 11 15 12 12 13 11 10 8 8 11 13 17 20 22 23 23 25 25 26 22 24 28 28 28 29 37 38
19 18 18 21 19 21 24 28 25 22 16 11 10 7 6 5 9 6 3 5 8 9 11 12 13 14 12 11 9 10 13 16 18 19 20 21 22 25 25 26 25 23 31 31 30 31 37 39 38
18 17 21 21 23 22 20 26 22 21 10 4 10 11 10 7 6 7 5 10 12 13 12 11 12 12 11 10 12 14 17 19 20 20 21 24 25 26 24 25 26 29 30 30 32 33 37 38 38
17 19 19 25 24 18 16 26 31 18 9 11 13 13 11 8 7 7 10 11 12 12 12 11 9 10 11 13 14 16 19 20 23 24 25 26 25 25 29 30 32 31 35 35 34 32 32 35 38
18 17 16 10 12 10 11 7 13 16 14 12 11 6 8 6 7 9 9 7 9 9 8 9 9 9 10 11 14 18 21 23 24 26 30 30 31 29 28 30 33 36 38 39 35 33 35 37 37
16 11 6 9 6 16 14 16 17 13 12 11 9 6 6 5 4 5 7 8 7 7 7 7 8 9 11 14 16 21 23 27 28 30 35 35 31 29 26 33 36 38 39 40 36 37 42 44 40
16 12 7 9 17 18 14 14 14 12 11 10 7 5 6 5 4 4 4 5 7 7 9 10 9 12 14 15 20 24 26 28 30 30 29 22 16 23 35 40 44 45 44 43 44 46 45 42 42
16 17 11 9 13 14 12 11 11 7 7 7 4 2 3 4 4 4 6 8 9 10 9 10 11 13 17 20 25 26 29 30 34 27 18 23 40 37 38 41 45 46 48 47 44 41 39 37 37
17 13 6 5 7 11 12 9 7 8 6 6 3 3 3 3 5 7 8 9 11 9 11 12 14 19 20 21 32 30 31 28 23 23 25 46 42 42 42 40 42 45 39 39 37 34 35 37 38
15 12 9 8 10 14 12 13 11 6 4 4 4 6 7 8 11 11 11 11 12 13 14 16 18 23 24 28 33 37 35 32 38 40 36 35 38 39 39 40 39 40 39 38 38 40 41 43 45
12 8 6 6 8 13 13 13 13 8 4 4 6 8 9 12 13 13 14 16 15 16 19 21 23 24 26 36 33 38 38 32 37 40 43 44 39 37 39 40 41 42 42 42 44 47 50 53 54
8 5 9 7 4 6 8 11 12 9 6 6 7 9 11 11 13 14 16 18 18 20 22 22 26 25 28 34 38 40 43 42 43 45 50 47 43 40 39 39 42 45 47 50 53 56 57 57 58
8 7 14 9 7 5 7 11 10 7 6 9 11 12 14 15 17 18 17 17 19 21 23 25 27 31 33 38 41 42 42 44 49 57 57 52 50 50 50 50 51 52 55 56 57 57 59 62 65
12 8 14 11 11 7 6 10 10 9 9 8 10 13 14 16 17 16 18 19 21 23 26 27 28 30 35 37 42 45 48 52 54 49 48 49 50 51 53 54 56 57 57 59 60 62 66 69 73
14 11 12 16 9 10 11 9 15 14 13 14 15 16 16 15 16 19 19 20 22 25 28 28 27 32 36 37 40 45 48 47 47 48 50 50 53 55 56 56 57 59 61 62 65 68 73 77 81
13 13 13 10 12 16 19 17 20 18 18 18 17 17 17 17 18 18 20 22 26 27 28 30 32 31 31 36 40 42 43 46 49 51 52 56 58 56 57 60 61 62 64 67 71 76 80 83 86
15 14 12 13 17 18 19 19 19 18 20 21 20 20 19 18 17 20 22 25 24 21 20 21 24 28 31 34 37 40 43 46 49 51 54 56 58 60 61 62 62 63 67 72 77 81 86 90 92
17 13 15 16 16 16 15 20 18 17 20 23 21 18 16 17 18 19 18 15 15 17 20 23 27 31 34 38 41 43 46 48 51 54 56 59 61 62 62 62 64 67 73 79 84 89 92 92 94
15 18 18 18 18 19 17 13 12 15 14 13 12 12 11 10 10 12 14 17 18 21 24 27 30 33 36 40 43 46 49 52 54 55 59 61 61 62 63 65 68 74 79 84 88 92 92 95 99
15 17 17 19 18 14 10 9 7 6 5 4 4 5 7 8 11 14 17 19 22 25 28 31 34 37 40 42 45 48 51 53 54 57 60 61 62 62 63 67 73 78 83 87 89 90 95 99 101
17 16 16 14 11 8 6 6 7 7 8 8 8 9 11 14 16 18 21 23 27 30 32 35 38 40 43 45 47 49 51 54 56 59 62 62 62 63 67 72 77 82 85 87 90 95 98 99 88
17 15 13 12 10 9 7 9 10 9 10 11 13 15 17 19 21 24 26 29 31 33 36 39 41 44 46 49 51 53 54 56 57 61 62 62 63 67 73 77 82 85 87 90 95 98 97 83 72
16 14 14 13 12 11 10 10 11 12 13 15 17 20 23 25 27 29 32 34 36 38 40 42 44 47 50 52 53 55 57 57 59 62 62 63 67 72 77 81 83 86 89 94 96 93 81 68 58

GFSSGP_500_spd_036.txt.gz
Wind_Speed
23 25 27 28 28 26 22 18 22 27 29 28 38 38 39 34 41 38 38 32 34 41 38 38 40 40 37 35 32 27 23 19 17 12 13 16 14 11 7 4 4 6 8 11 13 15 15 14 11
22 22 23 25 25 22 10 23 35 28 38 27 33 49 45 34 36 39 40 38 38 42 41 43 43 42 36 34 38 26 18 18 14 13 17 17 13 10 6 5 7 9 11 14 16 17 16 15 14
22 22 21 21 22 19 7 31 25 24 34 42 41 27 31 33 37 38 41 42 40 41 42 47 48 45 37 49 34 18 16 17 13 14 18 17 14 10 7 8 10 12 14 16 19 19 17 16 15
23 23 21 21 18 8 21 25 27 30 32 33 37 40 36 38 37 39 39 39 43 44 46 49 48 35 41 38 30 15 16 13 13 15 18 18 14 10 9 11 13 15 17 19 21 21 19 17 16
23 24 20 19 13 5 19 29 36 36 39 32 32 35 35 38 36 34 37 42 42 40 43 42 46 37 31 17 11 12 12 10 11 14 18 15 13 11 12 14 17 19 21 22 23 21 18 20 19
24 23 20 12 6 23 22 34 30 35 25 30 31 26 35 32 32 30 31 31 33 37 36 36 38 23 24 13 8 9 6 8 11 14 15 13 13 14 15 19 21 22 23 24 24 23 22 21 21
23 21 15 9 14 22 29 37 32 30 17 29 24 30 30 32 30 25 31 27 33 31 38 27 30 19 11 11 7 4 5 8 11 12 11 15 16 17 20 22 23 23 26 25 25 26 27 28 27
24 23 16 15 6 33 26 25 33 18 16 28 30 29 34 29 21 18 28 33 24 37 20 26 21 9 11 4 3 6 7 9 11 13 12 15 17 20 21 24 25 27 27 25 28 29 28 30 30
29 27 20 9 21 38 33 35 30 23 24 18 25 23 21 20 20 23 20 33 41 16 23 19 4 6 4 4 7 7 7 7 8 11 14 17 19 21 23 25 28 30 28 28 31 29 29 31 31
27 27 9 17 31 35 37 14 14 21 30 31 31 24 7 20 21 26 12 15 28 24 18 5 8 4 1 4 5 5 6 8 11 13 16 17 21 23 24 26 28 30 30 35 32 29 30 35 38
20 17 11 8 27 32 28 20 25 26 24 21 26 19 20 22 23 23 26 13 13 8 9 12 9 4 2 3 5 6 9 11 14 16 19 21 22 24 26 29 28 29 23 26 24 26 30 34 37
19 20 10 12 27 21 26 26 20 10 10 9 21 17 12 12 12 11 10 3 4 5 6 5 5 5 6 6 7 9 11 15 17 20 21 23 24 26 31 28 28 34 36 43 38 37 35 34 38
18 11 19 25 20 19 19 13 13 13 17 17 20 16 11 10 8 7 7 2 1 1 3 4 4 7 6 7 10 12 13 16 19 23 26 24 27 28 27 29 34 36 42 45 45 44 44 41 40
15 13 19 17 18 23 20 16 8 11 12 16 12 12 10 8 6 5 5 5 5 4 3 5 6 6 8 12 14 16 18 21 24 29 18 21 29 18 32 27 37 37 42 38 39 39 39 38 38
18 22 19 18 16 17 13 6 6 10 6 8 10 10 7 5 6 6 7 7 7 6 6 5 6 8 12 14 17 19 19 26 26 27 21 30 30 27 23 31 34 37 37 32 33 37 36 33 34
13 18 17 13 13 6 5 11 8 3 4 5 7 7 6 5 4 2 2 3 5 8 10 11 11 13 16 18 20 23 21 27 26 33 29 32 30 34 34 36 34 36 35 35 33 36 37 39 39
18 13 8 10 9 13 11 12 11 4 5 3 0 2 3 2 1 2 2 3 4 7 10 12 15 18 18 21 25 28 26 26 34 35 35 34 34 34 34 36 37 39 40 41 42 44 45 46 45
14 9 11 2 4 8 13 5 7 10 7 6 6 3 3 1 2 3 4 7 8 11 14 17 19 21 25 26 28 30 32 33 33 35 35 33 32 34 36 38 41 42 44 46 48 49 49 51 52
11 9 7 9 5 9 9 9 7 10 8 6 4 4 4 5 5 7 10 11 15 14 19 20 22 25 27 28 29 29 28 30 33 32 32 33 36 38 42 44 46 45 47 50 49 50 51 49 49
6 4 9 10 7 11 7 15 19 9 8 7 7 7 7 8 8 10 12 14 17 15 20 23 25 27 27 27 28 27 29 28 30 33 35 38 41 44 47 49 51 52 52 52 55 56 56 54 53
4 8 15 6 7 7 14 13 21 9 8 8 8 11 11 11 10 14 15 16 20 21 24 26 28 26 27 25 23 22 25 28 31 34 37 41 43 47 49 51 51 54 56 58 59 59 59 58 56
10 12 8 6 9 7 17 13 27 16 11 8 10 14 17 18 18 17 20 21 23 26 26 27 27 23 21 21 23 26 28 31 34 36 38 42 45 49 52 55 57 58 58 59 59 60 60 60 62
9 9 9 9 8 12 16 19 7 18 10 14 10 16 23 24 24 24 22 26 27 28 27 25 19 20 21 24 26 30 34 36 39 42 45 48 49 53 54 55 57 58 59 59 59 62 62 63 67
1 4 5 7 11 20 3 10 18 23 14 21 4 11 21 27 28 29 28 28 29 27 21 18 20 20 25 29 31 35 39 42 44 47 49 51 53 54 57 58 60 62 62 62 63 64 65 68 73
6 3 5 16 12 8 4 14 18 19 22 24 24 22 25 30 29 30 29 26 19 16 19 21 23 26 30 33 37 40 43 46 48 50 51 53 55 56 57 59 61 63 62 63 64 65 68 72 76
11 10 16 15 9 4 13 2 12 17 20 21 25 21 20 19 18 18 17 15 16 20 22 25 29 33 35 39 42 44 47 49 51 53 55 56 57 57 59 60 62 62 62 64 66 67 71 76 80
11 13 17 11 10 12 9 11 19 12 16 16 13 12 11 12 12 14 16 19 22 25 28 32 35 39 41 45 47 49 51 53 54 55 57 58 55 59 61 62 63 63 65 67 69 71 76 80 83
17 15 12 15 14 11 1 2 21 15 13 13 14 13 14 15 17 19 21 24 26 29 32 37 41 44 45 48 49 51 54 54 55 56 56 55 57 60 62 63 63 64 66 69 71 75 78 82 83
14 14 13 15 13 12 9 10 17 18 16 15 17 17 18 20 22 24 27 29 32 35 38 40 44 48 49 51 51 54 56 56 56 57 57 55 61 65 64 63 64 65 69 72 75 79 83 85 84
14 13 13 16 15 18 14 19 16 16 18 17 19 23 23 25 27 29 31 35 37 41 43 45 48 51 53 54 53 55 57 58 57 59 58 54 61 63 63 64 65 68 72 78 81 84 83 82 85

GFSSGP_500_spd_039.txt.gz
Wind_Speed
24 26 29 31 29 26 25 21 20 19 24 32 18 26 28 32 37 37 34 36 36 34 35 32 28 33 35 35 36 35 36 36 24 19 16 15 20 18 15 12 9 7 6 7 9 12 13 12 12
23 23 24 27 26 27 20 22 18 16 24 32 27 25 29 36 38 42 37 38 39 39 41 39 40 38 39 40 37 39 39 25 22 19 16 19 23 19 15 11 9 8 9 9 11 14 15 14 14
24 23 22 23 24 20 5 12 15 27 22 29 31 33 37 32 23 31 32 34 38 42 42 42 43 43 42 42 40 42 42 32 21 19 17 20 23 19 15 11 11 10 12 12 13 15 17 18 16
25 24 22 20 18 12 7 14 15 24 24 27 31 35 35 40 40 36 37 38 41 46 42 39 41 45 45 44 43 38 36 42 21 17 17 20 20 18 14 13 13 13 14 16 17 18 19 20 20
25 25 22 20 7 5 7 16 14 23 30 30 34 33 33 27 30 30 34 36 40 48 29 40 42 45 46 42 34 37 37 24 18 16 16 17 20 17 14 15 16 15 18 20 21 21 23 23 22
23 26 25 16 16 5 12 17 23 27 29 29 35 23 29 34 32 25 29 32 35 32 39 34 22 39 48 41 37 21 14 11 9 10 13 17 16 14 16 18 19 19 22 22 22 23 22 25 24
21 25 23 18 14 13 19 24 27 25 26 29 24 20 27 29 32 30 26 20 35 46 48 49 32 39 36 31 20 12 8 8 8 12 12 11 9 13 19 19 21 21 23 26 25 24 24 28 28
24 24 22 24 11 17 25 24 25 29 21 28 15 27 29 33 28 25 21 26 28 43 37 27 31 30 19 10 6 10 9 5 7 8 2 9 14 17 18 19 19 21 25 27 24 25 29 29 27
32 30 21 13 10 22 24 27 35 18 17 29 33 28 24 27 20 19 18 26 33 35 12 19 26 17 5 8 11 9 5 4 4 6 9 11 15 16 18 20 21 22 25 26 24 23 23 22 23
32 29 13 13 14 23 28 26 33 23 18 26 27 28 26 14 11 14 17 22 38 45 52 22 13 11 18 14 11 8 3 3 8 10 9 13 15 18 18 19 21 23 22 21 22 25 36 36 34
27 24 18 14 15 17 17 26 29 19 22 20 17 14 21 19 17 14 24 15 18 44 30 5 20 19 15 13 8 3 5 8 8 9 11 14 16 20 19 21 23 26 27 29 28 25 37 35 37
19 20 17 19 11 16 13 19 13 19 23 19 17 17 11 7 14 23 19 20 18 9 17 15 11 11 9 6 3 6 6 9 9 11 13 17 21 19 16 18 20 27 22 27 36 37 38 31 32
17 16 10 20 12 20 17 15 18 19 13 16 15 14 11 10 12 10 8 9 11 8 9 9 7 5 3 3 2 6 6 10 10 14 17 21 21 15 22 23 20 20 22 25 25 26 29 30 32
14 11 12 12 22 19 19 21 17 9 15 16 14 12 9 7 5 3 0 3 6 8 8 6 5 4 2 1 6 7 8 8 10 16 11 16 24 26 26 28 26 23 23 26 28 30 31 31 32
15 15 11 15 19 14 15 12 16 2 12 7 7 5 5 7 6 0 1 1 2 2 3 3 1 1 2 4 6 8 10 13 18 20 22 29 23 21 25 25 24 25 27 28 30 32 32 33 35
22 22 13 13 21 8 5 5 1 6 10 7 4 6 6 6 6 6 4 1 1 2 2 2 4 5 5 9 13 14 18 21 20 21 24 24 25 27 25 25 27 29 30 32 35 37 38 40 42
16 23 16 1 11 7 3 4 5 4 9 7 5 4 5 4 5 7 6 4 1 3 3 5 9 10 10 16 18 20 22 22 21 20 23 24 23 23 25 28 31 33 35 37 39 41 42 44 44
14 15 11 8 4 6 9 2 4 6 9 3 4 2 5 5 5 4 4 5 1 4 7 10 15 13 16 18 20 21 22 22 21 23 21 22 24 26 28 31 34 37 40 42 45 46 47 47 48
18 13 13 6 3 9 2 2 6 3 4 0 1 1 3 3 2 0 3 1 3 9 13 14 19 19 20 22 22 24 23 21 20 22 24 27 29 30 33 36 38 42 44 46 48 49 50 50 50
14 10 7 11 4 9 10 7 10 2 6 5 3 2 4 3 5 8 10 9 8 9 14 18 22 24 21 21 20 18 18 20 22 25 28 32 34 36 40 42 43 45 47 49 50 51 54 54 53
15 3 7 12 10 4 11 11 5 4 7 8 5 2 2 5 7 12 14 16 16 17 18 21 22 23 20 20 17 17 20 23 27 30 33 37 40 42 45 46 47 48 49 49 51 54 56 56 55
12 6 7 11 4 8 18 15 17 19 7 12 10 9 7 7 7 12 19 23 21 22 24 22 19 19 17 17 18 23 25 28 31 35 38 42 45 48 50 50 49 50 51 52 54 56 57 56 55
4 2 13 10 8 10 16 20 19 26 19 16 13 12 16 14 14 12 15 22 25 24 23 19 14 15 17 20 22 29 31 33 37 41 43 46 49 51 51 53 55 55 53 54 56 58 58 57 56
4 9 9 14 19 15 6 15 6 12 14 17 13 4 17 17 16 14 12 17 23 25 18 15 16 18 22 26 29 34 38 41 44 47 49 52 55 56 57 57 58 58 59 61 61 62 61 59 61
6 11 13 13 14 11 11 16 8 11 14 14 6 13 15 17 18 17 14 12 13 16 15 18 21 22 27 33 36 39 43 46 49 53 54 56 57 57 58 58 58 55 60 63 63 63 63 63 65
4 11 13 16 17 16 13 9 9 7 12 12 10 10 9 9 11 13 11 9 12 15 18 22 26 27 31 36 39 43 46 49 52 54 54 55 55 57 57 57 56 54 62 65 66 64 64 67 69
11 7 15 18 10 9 3 7 14 14 17 11 11 9 8 8 9 11 13 14 17 20 22 26 31 34 36 38 41 45 48 51 54 55 55 54 55 56 56 58 54 55 61 64 65 64 68 70 72
15 16 14 17 16 8 8 15 14 12 14 11 9 12 12 12 14 16 18 20 22 26 29 31 35 39 41 41 44 47 47 50 52 52 54 57 57 52 58 61 56 60 67 64 63 66 68 71 75
15 16 16 17 15 13 14 14 8 10 13 17 15 14 15 17 19 21 23 25 26 28 32 37 40 45 46 47 47 47 47 49 51 53 56 56 56 50 65 61 58 62 65 66 69 71 74 74 78
13 12 14 19 15 18 12 14 18 14 17 17 22 22 19 20 24 27 29 31 32 34 37 39 41 45 48 50 50 48 49 52 50 55 56 56 52 51 61 60 60 62 68 73 75 77 78 79 79

GFSSGP_500_spd_042.txt.gz
Wind_Speed
29 28 28 30 30 32 33 26 28 24 25 21 26 25 27 27 29 30 29 33 36 36 33 36 37 35 27 28 30 31 33 37 34 29 28 26 20 19 21 17 13 10 10 12 12 13 14 15 13
28 26 27 28 28 29 21 23 19 19 18 22 34 33 19 34 35 31 30 34 38 38 39 38 39 37 38 34 34 32 35 36 36 36 26 19 21 22 21 16 13 11 14 14 14 15 16 16 15
27 26 25 26 25 14 9 15 18 21 21 21 26 25 28 27 27 28 26 30 37 36 40 41 39 40 39 38 35 35 37 36 37 36 33 19 21 25 22 17 13 14 14 15 16 17 19 20 19
28 27 26 24 12 8 18 19 19 19 17 21 25 27 29 31 29 29 37 42 47 44 43 47 42 44 40 38 37 38 37 34 39 35 25 18 23 25 22 16 16 16 16 18 18 18 19 21 22
29 27 26 20 8 14 16 19 16 20 20 26 22 24 28 27 28 29 25 33 37 36 42 49 41 42 39 39 41 40 35 39 40 29 16 17 21 22 19 19 18 16 18 20 21 20 22 21 22
28 28 26 14 14 16 16 16 17 19 20 21 23 25 29 30 22 33 33 32 32 35 35 42 43 26 35 40 45 42 35 35 18 14 12 16 16 16 19 19 18 17 20 23 22 24 23 22 23
25 27 19 20 16 15 16 17 21 19 19 20 21 26 26 29 28 26 29 26 28 28 22 45 44 37 26 36 47 42 33 9 7 5 6 9 16 19 17 15 16 20 21 22 25 27 26 27 26
24 24 24 24 24 18 24 17 13 17 19 25 23 22 26 25 30 34 29 18 36 33 42 48 38 48 48 46 42 33 16 11 9 8 9 13 11 13 15 18 22 22 22 25 26 29 26 16 21
26 22 12 18 27 29 9 12 13 16 22 25 25 26 27 22 22 19 18 21 25 33 37 39 34 29 27 29 12 10 17 16 10 5 5 8 13 16 20 22 19 19 22 25 27 26 26 25 22
27 19 18 21 29 22 10 11 15 17 16 19 19 25 27 28 24 14 22 20 32 40 26 32 31 26 16 12 16 20 16 14 12 11 13 15 15 15 16 17 16 20 24 22 21 24 29 30 31
26 19 22 24 29 24 6 6 11 20 23 20 22 22 28 24 19 21 13 17 20 38 37 20 17 16 22 20 15 12 11 10 8 7 10 14 12 14 19 21 12 16 19 25 24 23 26 26 29
19 26 27 32 23 16 8 10 13 16 15 25 21 19 14 18 8 10 19 14 12 17 18 23 23 23 19 16 13 11 7 6 7 8 10 12 17 17 16 16 16 17 21 23 20 20 24 24 25
21 21 32 32 20 7 11 16 17 16 21 20 13 17 20 13 5 5 11 8 9 13 22 19 16 16 12 11 8 5 5 5 5 9 8 14 15 16 18 22 23 24 21 17 20 22 25 27 30
18 23 20 14 14 13 14 16 20 15 11 11 14 15 21 12 7 1 7 13 8 9 11 13 12 11 9 5 3 3 5 5 6 10 16 16 19 20 20 17 20 19 17 20 24 28 29 31 33
25 16 16 7 5 8 12 12 5 3 1 4 10 8 9 9 9 5 8 12 10 11 11 10 11 10 8 4 1 3 5 8 12 16 15 17 18 19 19 17 17 19 23 27 30 30 31 32 34
20 16 12 10 3 11 8 6 1 5 7 11 5 2 6 6 9 5 4 6 8 8 6 5 6 4 1 2 5 7 11 13 15 17 17 17 17 16 15 17 20 22 26 28 29 31 33 35 36
17 11 6 6 2 2 1 5 6 5 8 10 6 4 7 6 8 5 5 5 3 5 2 2 3 4 1 5 10 12 15 15 14 15 15 15 14 17 18 21 23 26 29 31 34 36 37 39 39
15 22 20 15 4 8 8 7 7 8 4 4 4 3 3 5 9 9 6 5 3 3 4 7 8 7 7 10 13 14 14 15 14 11 12 16 17 20 23 26 29 33 36 38 40 40 40 41 42
15 13 11 8 6 2 6 1 2 5 6 4 4 4 5 4 5 6 2 4 5 5 7 10 12 12 13 11 13 14 15 12 13 15 17 20 24 27 30 34 37 39 41 43 44 44 44 44 45
15 18 14 10 5 3 1 2 6 5 3 5 3 1 3 4 4 5 3 1 4 8 11 14 16 14 10 11 13 10 10 14 18 21 26 29 32 34 36 39 41 43 46 47 47 49 50 50 49
15 11 15 13 7 1 5 11 9 6 7 3 2 3 3 4 5 2 1 1 4 6 11 16 17 16 11 13 13 12 17 20 26 28 32 35 38 40 42 44 46 47 49 50 51 52 52 52 53
19 16 19 14 13 11 11 14 6 11 12 7 4 6 7 5 6 8 7 8 7 8 12 16 14 17 13 14 15 19 21 25 30 33 37 39 43 44 45 48 50 51 51 52 52 52 52 53 56
8 10 11 19 15 11 12 15 13 13 14 16 9 7 4 4 6 9 10 9 11 12 12 12 11 11 14 16 19 24 27 31 34 37 40 43 45 47 49 50 51 52 53 54 54 55 53 56 60
12 15 13 12 12 13 13 12 7 15 5 5 5 1 7 6 6 7 6 7 11 14 12 10 9 13 16 19 23 27 31 34 38 41 43 45 48 49 50 52 53 54 54 53 54 56 56 56 59
12 13 13 14 14 13 17 16 11 8 5 1 3 10 9 6 3 2 3 3 6 9 10 11 15 18 22 25 28 31 34 38 42 45 47 49 51 52 53 53 55 58 59 59 61 62 62 63 65
16 15 14 15 14 7 22 19 13 11 6 4 5 7 5 1 1 1 4 6 6 10 15 16 19 23 27 31 33 35 40 42 46 48 51 55 54 51 53 49 58 61 61 57 66 67 65 65 67
16 16 15 16 16 13 15 25 19 12 10 9 4 4 3 6 6 4 8 10 11 13 19 22 25 28 32 35 36 42 43 44 49 50 50 49 53 55 50 60 60 60 59 60 68 69 68 67 69
16 14 16 15 16 15 14 21 16 13 12 7 8 7 9 9 8 10 11 14 16 19 23 28 32 36 38 39 41 41 40 41 43 46 49 50 54 55 59 59 61 62 59 60 67 70 68 70 74
23 19 18 18 18 15 15 17 17 16 16 14 12 14 11 11 12 13 15 17 20 24 29 33 37 42 43 44 39 38 43 43 48 49 50 52 55 58 59 59 60 61 62 64 67 67 71 74 77
29 17 16 17 18 21 18 16 19 23 23 21 20 17 14 14 16 19 22 23 26 29 33 39 42 42 40 40 46 47 49 50 52 54 53 52 57 59 59 60 62 63 64 65 69 72 74 82 85

GFSSGP_500_spd_045.txt.gz
Wind_Speed
31 31 31 31 30 32 35 35 33 32 31 29 31 32 30 30 29 29 29 28 26 26 29 31 33 33 36 36 32 28 29 27 27 31 30 26 30 23 20 19 18 14 14 14 15 14 14 15 16
29 31 30 29 28 30 27 20 27 23 23 29 30 33 33 29 27 32 31 30 31 33 34 32 33 36 37 33 31 32 35 33 30 29 30 29 32 19 19 20 17 13 17 18 15 15 15 16 17
27 30 30 30 28 16 11 19 18 21 23 23 28 29 34 28 27 23 29 31 29 33 33 35 38 40 40 37 32 34 36 35 31 30 26 30 29 21 19 21 18 20 19 19 17 17 16 17 18
27 29 30 27 13 13 18 21 22 23 24 25 25 27 27 36 29 29 30 33 36 36 41 44 45 40 38 31 36 35 35 30 36 31 29 27 18 17 19 22 21 22 20 20 20 19 19 19 21
27 28 28 18 11 16 19 18 20 22 22 23 30 25 24 30 29 31 30 32 32 34 35 38 38 31 33 37 42 36 31 39 41 34 26 22 11 12 20 18 22 21 22 20 21 23 23 25 26
25 26 19 14 15 17 21 21 18 21 31 10 18 19 19 22 27 26 30 28 31 32 38 33 27 34 43 44 41 36 45 42 43 31 20 6 10 12 17 21 22 22 19 21 25 28 26 26 28
24 24 19 18 19 17 21 22 20 28 30 23 16 17 22 28 27 31 35 32 29 31 35 48 44 49 50 39 37 35 46 45 34 7 5 9 13 16 18 18 18 17 21 26 28 27 24 24 21
25 22 17 20 20 19 21 19 16 23 18 8 16 21 25 28 26 28 29 35 33 33 33 40 46 48 51 41 37 45 44 30 18 16 11 9 12 15 18 17 15 19 25 27 27 25 26 26 27
25 18 16 20 24 23 24 10 12 14 17 14 17 20 22 31 24 21 22 24 34 33 28 30 34 34 42 40 48 47 28 16 16 14 14 14 14 11 11 13 20 24 26 25 21 22 23 25 26
21 20 21 20 23 23 21 14 18 19 17 16 15 16 19 23 26 25 24 24 21 22 30 41 42 37 28 23 35 30 21 21 17 11 8 6 9 11 15 19 21 24 17 16 21 25 26 28 29
21 20 24 27 27 26 24 20 18 16 20 20 19 20 22 23 24 22 27 24 22 26 23 26 29 27 24 28 24 22 21 18 15 10 10 11 13 14 15 14 16 17 16 18 23 27 25 21 22
20 23 28 23 24 18 19 19 14 15 17 19 16 17 17 16 13 16 18 20 13 19 30 39 39 29 25 21 20 15 13 11 9 8 7 11 13 15 14 14 17 19 18 24 27 25 21 24 26
13 25 26 20 19 17 15 24 23 25 19 17 15 13 15 16 14 12 4 21 8 15 13 17 17 22 20 17 14 11 9 9 7 7 9 10 11 14 16 18 19 23 24 24 25 23 26 29 31
19 20 22 23 20 20 18 17 25 21 15 16 10 11 11 15 11 7 12 11 17 20 18 16 13 13 14 14 12 9 7 5 5 7 10 15 14 18 17 19 20 17 16 20 24 27 32 35 36
20 16 14 11 14 19 17 8 10 5 4 6 2 0 12 16 11 20 15 13 12 14 11 13 11 11 10 12 9 6 3 5 7 10 14 15 17 18 17 18 15 18 21 25 29 31 35 36 37
19 14 19 14 9 9 9 4 3 3 3 13 15 13 13 12 15 18 15 14 13 14 12 11 10 9 7 9 4 2 4 6 11 13 15 17 15 14 14 17 19 22 26 30 33 36 39 40 42
13 17 13 13 9 2 7 4 5 9 8 11 11 12 10 11 15 15 15 12 11 11 11 10 8 3 6 4 3 6 7 8 11 15 15 13 12 15 17 21 24 27 31 34 37 40 41 42 43
14 13 14 11 5 8 14 9 7 5 5 7 6 8 7 6 10 12 12 13 13 12 9 5 3 2 1 5 6 8 9 11 12 10 11 13 14 20 23 27 30 33 35 37 40 41 42 45 45
15 15 14 8 8 7 11 9 5 2 2 5 7 10 9 7 6 7 6 5 4 2 3 3 3 4 4 5 7 10 11 11 9 12 14 17 21 26 28 30 34 36 38 42 44 44 45 48 47
16 12 13 13 9 8 6 10 9 6 8 9 7 9 11 10 9 7 6 4 3 2 1 2 3 3 4 6 7 9 9 9 13 15 20 23 26 30 32 35 38 40 44 46 46 48 48 49 50
13 15 17 14 12 8 9 10 8 7 9 9 10 10 12 10 8 5 5 3 2 4 5 6 7 3 4 6 8 9 8 14 18 21 26 29 32 34 37 41 43 46 48 49 49 49 50 50 49
18 13 18 20 15 13 8 6 7 8 13 10 5 5 8 9 9 8 6 5 4 6 7 10 10 7 5 7 10 13 14 19 24 29 33 35 37 40 43 46 47 49 50 51 51 50 53 56 56
21 18 19 20 18 12 12 10 6 12 13 9 12 11 13 9 8 7 6 8 10 9 11 11 11 10 9 10 14 17 20 24 30 34 37 39 41 45 49 49 49 50 51 51 52 53 59 60 58
18 18 20 22 19 15 13 11 3 8 7 6 6 8 10 7 9 10 10 11 13 12 12 11 9 12 12 15 18 22 25 30 34 37 40 43 44 49 51 50 47 48 52 52 54 59 61 60 60
21 17 14 16 17 17 15 15 9 6 7 10 11 11 9 8 9 8 8 10 10 11 9 10 11 14 14 18 23 28 30 34 36 41 46 43 48 49 50 50 52 52 56 50 62 63 66 62 65
22 18 18 16 15 16 15 13 11 12 12 14 13 11 9 7 5 5 7 6 7 9 10 12 16 17 20 23 27 32 35 40 41 47 48 48 47 51 53 51 52 46 65 61 65 66 61 65 68
18 17 17 17 16 18 17 18 14 15 15 16 12 10 9 7 6 5 6 7 9 12 13 17 19 23 26 29 34 37 41 42 43 44 47 45 50 49 37 58 52 64 60 66 66 66 67 68 71
17 17 19 21 22 17 19 17 14 16 18 18 13 11 8 7 8 10 10 11 12 15 18 21 26 30 33 37 40 43 39 41 40 45 44 51 52 53 56 57 56 60 65 66 67 68 69 70 71
18 21 22 22 24 22 19 17 17 18 18 18 17 14 13 10 12 13 13 15 17 20 23 26 30 34 37 39 39 39 39 44 44 49 54 53 53 56 57 58 61 63 65 66 67 68 70 73 76
20 30 31 26 23 24 22 16 18 19 21 22 21 19 18 17 16 16 18 19 21 24 27 30 32 36 37 37 39 41 46 51 49 51 50 52 54 55 62 62 65 65 65 66 68 73 75 78 81

GFSSGP_500_spd_048.txt.gz
Wind_Speed
23 24 30 34 34 32 30 33 36 39 40 31 30 32 31 32 31 29 28 26 26 25 26 26 26 28 30 31 31 30 27 27 27 30 28 26 21 21 21 14 12 16 12 11 14 14 14 14 15
19 22 27 32 32 32 28 21 28 32 37 36 35 27 30 30 26 26 30 29 27 29 28 30 30 32 32 27 26 29 26 22 25 28 29 25 22 21 19 13 12 15 14 15 16 16 15 16 17
18 20 26 30 32 28 19 21 24 25 31 32 33 32 28 31 34 32 28 30 32 32 31 32 36 37 33 34 34 32 31 28 31 27 26 23 25 22 19 16 13 16 16 20 18 18 18 19 20
18 19 24 26 24 20 17 21 22 24 26 28 27 29 31 30 36 33 31 25 27 30 32 35 34 36 38 37 38 37 35 30 32 30 31 28 26 25 13 13 17 17 20 22 20 17 19 22 23
17 17 20 22 20 14 17 23 22 23 24 25 28 27 27 28 31 38 34 33 30 31 33 34 33 32 30 38 33 31 26 34 34 34 33 30 30 17 12 16 17 22 23 22 16 19 22 24 24
15 14 17 18 16 17 20 25 20 22 25 27 27 37 26 23 26 32 36 34 35 33 30 34 37 33 30 27 32 30 36 36 41 37 36 31 26 9 10 13 16 19 22 21 19 22 24 29 29
14 14 15 16 18 18 18 19 23 18 22 23 27 21 13 18 21 23 27 30 32 32 24 38 43 29 42 39 46 28 42 48 40 39 36 24 11 9 12 14 17 21 20 20 21 24 28 29 28
13 14 17 19 18 20 20 20 15 13 20 23 25 30 18 17 21 22 26 28 30 30 35 44 44 48 48 49 43 51 40 43 41 34 20 9 8 10 11 13 16 17 18 20 23 26 28 25 26
12 14 16 19 22 23 23 18 4 7 13 14 17 11 11 13 21 27 27 27 26 21 26 31 43 48 42 45 40 39 54 49 34 23 18 11 8 7 9 13 16 17 18 24 27 23 21 24 26
11 15 15 20 22 25 23 17 14 9 15 14 13 14 15 19 19 23 32 27 22 25 20 33 39 38 34 36 24 32 43 35 22 18 13 9 9 8 9 11 11 16 21 25 21 22 22 26 24
12 20 22 23 21 20 19 19 15 12 12 16 19 18 18 20 22 21 23 27 30 29 28 32 29 44 41 34 22 25 30 21 17 15 14 12 9 9 10 13 18 20 22 22 23 23 25 26 21
12 22 23 17 23 21 17 17 19 17 17 17 20 20 20 17 18 18 16 20 22 25 24 15 18 25 31 22 25 30 28 21 19 14 8 6 8 12 15 15 17 17 18 23 25 25 25 21 24
11 24 24 24 17 19 18 11 16 21 25 21 27 20 15 15 13 14 12 10 15 16 17 24 22 29 32 21 24 25 18 15 12 11 9 8 10 12 16 15 17 21 21 21 21 21 22 25 29
9 15 17 20 12 12 14 15 18 22 28 30 23 17 14 12 13 6 8 14 12 11 15 16 15 18 20 15 12 13 14 11 10 7 8 11 15 14 16 16 17 20 18 17 21 24 27 30 32
9 9 13 13 14 17 17 20 19 17 17 10 14 9 9 11 12 15 13 16 20 18 14 18 16 14 8 11 8 6 5 5 4 9 11 13 13 14 14 15 15 16 19 22 26 29 30 34 37
11 8 8 9 10 11 11 14 14 6 10 8 18 14 9 18 19 18 15 16 13 15 14 12 13 11 11 11 8 6 6 7 9 9 11 11 12 11 14 14 17 20 24 27 30 33 35 39 41
13 10 12 12 6 11 9 7 9 13 9 9 11 14 15 20 18 15 15 14 16 14 12 11 10 9 10 12 6 6 8 8 8 9 11 9 9 11 14 18 21 26 27 33 35 37 41 43 45
10 13 14 13 7 5 9 13 13 8 7 6 7 9 13 17 18 17 15 13 13 13 11 10 9 7 7 7 9 9 10 11 9 8 7 8 11 15 19 23 26 29 33 38 40 42 45 47 48
11 11 9 7 7 12 10 14 14 10 7 5 4 6 9 11 12 13 12 11 11 11 9 9 7 6 6 8 10 9 11 10 10 8 10 14 16 20 24 27 30 34 38 42 44 45 46 46 46
12 13 11 12 8 15 13 11 14 12 8 7 6 5 6 8 9 11 13 12 11 10 9 7 6 5 6 9 9 10 9 10 11 12 15 18 22 25 29 33 36 39 43 46 46 46 48 49 49
14 15 13 15 14 11 12 13 8 7 7 8 7 6 4 6 8 10 11 11 9 8 8 7 6 8 8 10 11 10 9 11 14 18 21 23 28 32 35 37 40 42 46 47 48 47 48 50 52
17 17 17 17 17 13 11 10 11 12 11 11 8 5 5 6 7 8 9 8 8 10 10 10 9 11 11 12 13 11 11 14 19 23 23 31 32 35 39 43 43 47 48 45 47 50 51 52 52
17 19 17 23 21 14 14 11 8 10 12 10 13 12 13 16 15 13 13 13 13 15 14 12 13 12 12 14 12 13 15 18 22 25 30 32 39 42 46 49 45 48 50 48 50 55 51 56 59
18 15 19 19 18 15 13 11 2 3 7 11 15 20 18 18 18 18 18 14 14 17 17 16 14 14 13 11 13 16 19 22 24 29 31 41 42 45 51 46 48 51 54 50 50 50 50 62 65
14 16 15 17 18 16 16 15 4 8 6 11 7 9 9 15 17 21 21 20 19 19 16 15 12 12 14 15 15 20 23 26 30 32 35 43 45 49 46 45 45 56 47 47 59 64 58 64 66
20 18 19 20 18 16 17 15 8 13 10 9 11 15 16 15 16 18 21 17 15 13 12 13 12 14 15 16 20 24 28 31 34 36 41 41 44 45 47 42 52 48 54 58 59 60 64 64 67
21 23 22 23 20 18 17 17 13 12 17 14 11 13 17 12 11 10 10 12 12 10 12 15 14 16 18 21 25 29 30 34 33 34 38 41 46 50 52 50 56 62 58 60 65 63 67 67 69
20 19 21 19 20 18 19 21 20 17 19 18 18 16 16 15 13 11 10 12 14 13 14 17 19 21 23 27 30 32 32 31 31 35 39 43 47 54 57 61 59 61 63 64 70 71 70 70 72
23 22 21 20 22 24 22 17 20 20 17 19 17 18 18 19 16 15 14 15 16 17 20 21 24 27 30 32 34 34 34 34 32 36 40 44 52 55 55 66 62 66 67 70 73 69 70 71 76
27 27 27 26 26 25 27 20 19 20 21 18 18 16 18 19 20 19 19 19 20 24 26 26 30 32 33 35 36 37 39 37 37 38 47 49 57 60 65 54 68 69 71 70 70 71 71 75 81

GFSSGP_500_spd_051.txt.gz
Wind_Speed
20 24 24 25 28 31 32 32 40 38 40 42 37 36 34 31 28 26 26 24 25 23 24 27 27 31 30 29 28 26 24 25 23 20 21 22 19 15 13 12 8 10 13 14 13 14 14 13 13
21 22 22 20 24 28 29 29 32 36 40 41 40 38 37 40 29 28 29 24 25 26 26 25 25 28 30 30 31 27 23 24 24 19 21 22 21 16 14 12 9 14 15 15 14 14 14 14 15
21 22 21 18 20 24 26 28 29 27 30 34 43 37 35 20 25 31 28 27 27 29 30 30 31 34 34 33 31 30 31 33 28 26 25 26 20 18 17 15 13 15 17 18 16 16 17 17 18
19 21 19 15 15 19 20 23 24 25 22 24 28 30 28 30 30 28 33 32 31 31 32 35 36 35 33 32 27 32 37 33 27 31 27 26 23 22 23 19 14 16 18 18 19 19 18 18 20
15 17 15 12 14 14 12 19 23 19 23 24 27 28 29 30 33 33 31 33 31 32 29 28 31 31 32 32 29 32 34 31 29 28 29 29 26 26 28 21 16 19 19 20 20 19 17 18 22
13 12 11 10 10 13 16 20 22 19 22 20 26 27 28 29 29 31 31 30 31 32 27 31 31 33 33 33 30 28 26 20 24 26 33 34 33 31 25 15 15 18 19 21 17 18 19 21 23
14 11 9 10 12 17 17 20 16 16 19 17 23 27 29 31 30 25 25 27 31 32 32 33 35 37 35 33 35 33 26 32 26 30 37 39 37 36 28 15 16 15 16 17 17 20 19 22 24
12 7 8 13 15 18 19 20 15 15 18 17 14 22 28 20 24 21 22 24 30 31 31 34 36 35 33 54 37 40 32 41 32 29 39 37 25 22 17 16 17 16 15 16 16 18 21 23 25
8 4 13 16 16 16 19 17 13 1 3 11 13 17 22 13 16 21 22 24 28 29 31 32 26 37 41 41 47 57 44 44 35 36 37 22 14 14 15 12 11 12 13 13 15 21 23 23 21
5 9 18 19 17 16 18 16 17 4 4 7 11 15 22 20 15 15 18 21 27 33 32 30 31 18 31 35 38 42 57 42 44 44 35 19 16 16 11 8 7 8 11 14 20 22 25 22 22
4 14 19 18 14 12 12 17 18 11 9 7 7 13 16 20 21 20 25 23 26 31 30 20 27 31 30 32 41 42 37 34 37 36 16 16 16 13 9 7 9 12 16 20 22 25 21 25 24
6 16 17 9 14 12 13 14 14 13 15 18 14 16 18 20 22 21 26 24 21 29 31 31 32 31 33 37 36 30 28 31 29 23 21 19 15 11 8 11 13 17 18 18 16 21 22 20 17
5 13 18 14 11 14 11 12 15 14 16 20 25 23 25 23 18 14 19 17 16 20 24 24 24 22 19 21 27 30 30 31 18 14 11 11 10 12 14 12 14 15 17 18 16 14 15 19 23
4 5 12 18 14 11 11 10 14 19 21 22 22 24 28 20 14 12 8 3 6 10 15 15 22 25 28 24 25 21 21 17 12 14 16 14 12 10 13 12 16 14 14 12 15 17 21 24 28
5 5 5 6 6 11 11 11 16 18 20 22 19 20 19 18 15 10 11 12 9 13 18 19 22 20 19 18 16 14 15 14 14 13 12 11 8 12 15 11 11 12 12 16 20 23 26 29 32
3 3 6 6 8 7 8 9 10 11 3 5 4 10 13 13 13 14 11 17 19 19 20 19 18 17 15 13 10 8 5 7 9 9 8 8 10 11 12 11 11 13 17 22 25 28 31 33 37
5 5 7 9 7 4 3 6 6 8 5 6 14 13 21 24 19 15 13 14 14 12 11 13 13 12 11 11 11 9 11 12 11 11 11 10 12 13 10 11 15 18 23 26 29 32 35 38 41
5 6 5 8 4 5 4 10 15 11 6 7 7 11 13 18 17 15 14 14 15 13 10 9 8 10 13 13 10 10 9 10 11 12 10 10 10 10 12 15 20 24 27 31 33 36 39 42 44
6 6 4 12 4 5 8 13 13 12 9 8 6 9 10 11 10 10 11 12 12 12 10 9 9 9 9 9 10 9 11 11 12 11 9 11 13 12 15 20 25 29 32 35 36 39 42 45 43
8 9 8 6 7 10 14 13 11 10 10 7 8 9 8 10 11 11 11 11 12 11 11 12 11 10 8 9 10 11 12 12 12 11 13 14 16 17 21 26 29 31 35 40 38 42 44 44 45
12 12 13 10 10 10 13 11 11 9 7 8 7 6 7 7 9 11 11 11 11 13 14 12 9 8 9 10 12 13 13 13 13 16 17 19 21 25 28 32 35 37 41 44 41 45 46 50 49
10 11 14 12 9 12 11 9 10 12 12 10 9 6 7 7 8 8 9 12 13 13 13 12 12 12 13 15 15 15 12 13 16 19 20 24 29 31 31 36 37 40 44 43 44 46 49 49 51
11 16 16 15 14 12 9 10 8 12 10 10 12 7 8 11 12 13 13 15 14 16 16 14 14 13 14 15 16 15 14 15 18 22 22 24 30 34 35 41 40 44 44 45 45 47 46 52 53
12 16 18 15 15 14 13 11 5 7 12 13 17 19 15 17 18 17 18 17 15 17 18 18 18 16 17 17 18 18 17 19 21 23 25 29 31 33 38 42 41 46 45 46 47 47 52 62 61
12 17 16 14 14 13 14 12 4 10 6 12 17 16 17 20 21 20 20 21 22 21 21 19 17 16 15 16 16 20 21 23 24 28 29 30 31 32 40 42 45 48 47 43 46 54 67 63 66
14 16 18 16 13 11 12 9 9 10 13 7 14 11 11 11 16 20 22 26 26 25 21 17 15 18 16 18 22 22 22 24 28 29 30 28 29 33 42 45 49 47 50 57 61 64 68 64 71
17 18 19 20 17 16 13 11 9 11 11 13 13 11 10 11 16 23 24 24 25 22 16 15 15 16 16 16 22 25 28 28 29 29 29 29 32 36 39 46 49 55 58 63 62 69 58 73 71
21 23 23 22 20 20 17 12 11 14 14 16 15 15 14 15 14 14 15 14 15 17 16 17 18 18 20 24 27 29 29 29 30 31 32 32 32 37 46 51 55 60 64 64 64 57 72 68 76
21 22 22 22 24 22 19 16 11 12 17 16 17 17 15 14 15 15 16 17 17 17 18 21 23 24 27 29 30 27 30 32 33 35 35 34 36 43 50 54 58 63 66 63 69 72 72 75 73
24 25 26 27 24 23 23 18 15 17 19 18 18 18 17 17 18 17 19 19 20 21 23 25 27 29 31 32 31 34 33 34 35 36 38 37 44 51 50 57 58 62 66 68 67 69 73 72 75

GFSSGP_500_spd_054.txt.gz
Wind_Speed
23 21 21 21 24 25 25 23 30 35 38 40 42 38 41 37 36 38 44 43 39 37 35 34 34 35 31 30 30 28 28 26 25 23 22 21 22 16 15 12 12 13 13 14 14 13 10 12 11
20 19 20 20 19 19 16 23 24 29 33 38 37 41 32 33 34 32 18 29 39 33 33 31 23 24 28 32 31 31 29 24 21 19 21 21 20 18 19 14 13 13 15 16 15 16 12 13 13
21 19 18 19 18 17 15 28 25 24 27 31 37 41 36 31 24 34 32 29 24 24 18 24 26 29 31 32 32 30 27 26 28 28 23 22 23 21 20 18 16 15 17 18 18 19 14 15 15
22 20 18 17 14 19 20 21 21 21 24 24 27 34 37 39 36 34 37 28 26 26 26 28 30 32 35 36 32 29 27 27 30 30 26 25 26 22 20 21 22 20 20 20 20 18 17 15 16
22 17 14 13 16 16 12 15 18 20 20 22 24 28 31 32 32 27 25 24 29 32 34 31 31 32 33 34 34 32 29 30 27 27 24 25 23 27 21 20 24 25 22 21 20 19 16 17 14
25 15 10 8 10 12 15 16 19 17 17 19 22 26 28 29 31 28 26 30 29 28 37 37 37 31 29 31 30 31 31 31 22 21 21 22 23 29 28 24 25 27 24 22 22 20 14 15 16
20 11 7 8 11 14 16 16 16 13 14 17 22 20 25 28 27 28 29 34 33 32 36 32 36 28 27 30 30 33 34 32 35 27 26 29 30 33 33 28 24 23 23 22 19 15 16 15 18
15 6 5 14 11 9 15 16 14 12 10 13 17 14 19 26 26 32 34 37 31 32 31 33 25 22 25 31 34 25 44 39 37 28 30 31 34 35 36 31 25 21 19 16 17 17 15 15 18
9 3 10 15 12 15 14 13 13 13 12 5 9 8 9 20 27 34 42 32 29 28 30 30 30 26 20 29 33 37 43 61 41 41 40 26 34 32 29 21 19 16 13 14 14 13 16 20 21
6 8 15 16 11 13 14 13 14 15 8 5 2 3 8 12 21 23 25 27 32 27 28 29 27 25 24 23 30 38 45 49 43 52 45 30 34 26 21 20 13 13 15 11 12 16 21 22 24
7 8 17 14 7 10 10 10 11 15 13 5 7 8 9 8 13 17 16 26 21 25 27 27 29 23 32 21 32 32 42 28 35 41 52 51 31 23 16 11 12 10 11 16 17 18 18 18 18
7 5 15 15 17 11 8 10 10 13 14 8 14 18 15 16 15 18 17 19 26 32 33 28 28 21 24 37 28 37 35 38 41 36 37 28 25 16 17 14 15 14 14 15 16 18 20 15 13
5 5 11 14 4 7 12 14 15 16 14 13 15 19 24 24 23 24 21 16 19 25 29 25 25 30 29 35 36 41 44 36 33 38 26 19 13 14 15 14 11 14 14 16 15 14 13 13 16
3 2 4 14 14 10 12 12 12 14 16 17 19 22 20 18 18 17 18 17 14 17 18 21 26 29 33 35 28 27 31 34 26 18 19 19 16 12 11 12 14 13 15 15 11 12 15 18 22
5 2 3 3 5 8 7 9 12 17 20 22 18 23 18 15 14 11 6 6 5 6 9 17 28 33 32 36 26 27 30 18 21 16 14 14 15 11 10 15 16 13 13 11 12 16 19 22 26
6 1 2 7 5 8 4 5 11 14 8 9 12 14 15 21 15 14 11 12 13 14 17 14 14 19 18 21 20 17 15 13 13 16 15 14 15 14 14 14 14 11 10 12 16 20 23 27 30
3 2 6 8 9 12 3 9 10 1 3 7 10 14 23 17 17 14 9 12 14 16 16 17 17 18 18 17 14 11 10 10 10 10 12 16 14 13 14 10 10 10 13 17 21 25 30 33 34
4 3 5 6 5 3 3 5 8 4 3 4 4 9 19 21 16 14 11 6 7 6 6 7 8 11 12 11 11 10 10 11 11 12 13 16 9 12 9 10 12 15 18 21 25 28 33 36 38
7 4 7 12 10 3 4 9 11 8 8 5 8 5 9 12 10 10 9 8 9 8 6 5 8 9 10 10 8 10 11 12 13 14 16 12 13 12 11 14 18 19 23 27 29 33 38 39 41
8 8 10 6 7 5 7 7 13 10 9 7 4 8 9 9 8 10 10 9 8 8 8 8 8 8 8 9 11 12 12 12 13 14 16 16 12 16 17 20 23 25 28 32 36 37 40 40 44
8 9 11 9 7 11 7 7 11 9 9 4 7 4 4 6 8 9 10 10 10 11 10 9 8 8 9 11 12 12 14 12 11 13 16 15 19 20 24 25 28 31 32 35 38 39 40 44 45
10 12 14 14 10 8 11 7 14 12 11 10 10 7 8 9 9 8 9 11 11 11 12 13 13 12 12 12 14 14 14 14 14 14 18 20 21 23 27 32 35 37 37 41 39 41 44 48 46
8 13 16 12 8 7 9 8 8 5 9 15 13 11 11 12 12 11 12 13 13 13 14 14 15 15 16 15 17 19 17 17 16 15 17 23 25 25 29 32 35 35 38 40 43 46 48 50 52
6 11 13 13 13 13 14 12 9 10 10 13 15 17 16 13 12 13 18 17 15 16 17 17 17 17 18 17 18 21 22 21 20 21 21 25 29 31 33 35 36 35 38 44 48 51 56 56 56
11 12 14 13 14 11 11 13 11 12 12 12 15 21 21 20 20 21 18 18 18 19 21 20 19 20 19 18 17 20 21 27 25 25 24 29 32 34 34 34 37 38 43 48 52 57 53 58 62
16 14 14 12 11 10 10 10 10 13 10 13 11 18 20 19 17 14 18 23 23 22 22 22 22 20 18 19 20 20 22 22 19 25 29 31 32 31 36 35 35 38 47 50 54 58 60 63 65
19 21 18 19 17 15 13 10 12 8 8 9 14 14 16 13 13 17 20 21 25 25 25 24 21 19 19 21 20 22 24 26 29 32 33 33 35 34 34 34 36 42 50 53 59 63 60 66 61
21 23 20 20 18 18 15 13 11 16 13 12 14 16 17 15 15 15 17 18 20 20 18 18 20 19 20 22 24 26 29 33 36 35 37 37 34 31 34 34 38 46 52 57 64 62 68 67 69
23 26 26 23 24 19 17 13 15 16 15 14 14 15 19 19 17 17 17 18 18 18 18 20 21 22 24 25 27 29 33 34 35 39 36 35 34 35 35 36 38 48 58 62 61 67 69 71 66
25 24 26 26 23 26 22 18 16 16 19 23 19 17 18 19 19 19 20 19 18 19 22 23 24 26 29 30 32 35 36 38 38 39 37 37 38 38 43 46 51 57 61 62 60 63 67 66 65

GFSSGP_500_spd_057.txt.gz
Wind_Speed
49 36 22 21 21 19 17 17 18 31 36 35 40 28 50 34 44 39 25 36 40 34 35 35 36 34 32 32 33 32 30 29 27 24 19 17 18 19 19 16 15 15 15 18 16 14 13 12 10
44 26 21 19 16 12 12 14 26 22 38 34 27 41 34 40 39 51 46 17 38 40 38 35 35 36 34 37 37 35 32 31 27 25 20 18 20 21 18 18 16 15 16 18 17 17 16 15 11
37 25 21 19 15 13 13 28 11 24 31 34 29 33 27 37 36 33 29 36 34 30 40 37 30 39 34 31 36 34 32 30 27 25 24 25 25 24 20 21 19 18 17 19 19 19 18 17 14
32 24 18 15 12 13 20 16 13 20 31 23 24 19 33 32 32 35 26 19 28 25 33 35 45 34 30 34 32 30 29 27 26 27 26 29 27 25 23 23 20 20 20 18 20 22 18 19 15
26 20 15 11 11 16 19 18 33 19 15 22 24 35 27 29 25 28 27 32 26 33 33 31 28 33 30 32 31 32 31 31 30 30 29 25 27 25 25 27 24 19 20 23 23 24 18 19 16
21 17 7 6 11 11 14 18 15 17 15 23 22 29 17 21 21 22 26 28 31 29 36 35 33 30 30 28 30 32 31 32 32 31 27 23 21 23 21 25 30 25 23 24 24 23 19 16 14
17 9 7 13 11 12 15 16 10 10 13 27 22 19 21 21 23 23 23 30 34 37 30 36 24 27 31 30 30 29 30 29 31 33 32 26 25 26 26 27 30 30 27 26 21 19 16 14 15
15 8 4 6 7 8 14 14 13 12 10 24 13 13 17 21 20 23 24 35 34 31 30 33 38 32 45 31 29 28 40 27 25 34 39 38 33 31 34 30 33 35 28 24 18 18 15 15 15
13 5 5 8 9 15 13 15 10 14 20 24 13 10 15 11 15 19 25 33 36 38 37 33 36 20 27 23 17 21 26 37 34 38 41 41 41 34 37 31 30 29 24 11 13 15 16 13 16
9 0 7 16 14 13 16 5 13 15 21 7 14 11 8 10 12 14 21 31 35 43 38 27 29 19 19 19 19 16 35 46 41 39 38 52 47 39 34 27 22 12 14 17 11 15 16 15 17
6 4 10 10 15 13 10 12 13 16 20 15 16 10 10 10 9 10 14 19 22 29 36 31 22 23 23 22 20 23 30 31 47 55 47 52 53 38 30 22 21 14 8 11 14 14 18 14 16
9 7 8 10 17 17 11 9 8 16 26 17 10 10 13 14 17 15 17 19 20 24 27 27 27 25 24 26 29 31 27 36 40 29 40 47 35 40 31 21 13 12 14 13 13 15 16 16 15
11 6 8 10 12 11 13 12 13 20 23 22 17 17 18 19 23 23 24 20 19 20 27 30 28 25 22 22 31 27 29 29 27 31 35 32 38 29 20 13 12 16 14 14 14 16 13 11 12
9 8 10 7 16 11 10 12 13 18 20 23 23 22 22 22 22 21 21 19 14 15 21 24 22 22 22 26 26 27 29 28 33 37 31 30 19 18 15 15 15 13 12 15 14 11 8 13 16
11 7 5 8 10 17 15 15 18 14 20 22 21 18 22 20 15 15 15 18 15 11 14 15 18 24 22 28 30 31 39 37 27 28 21 21 19 17 16 12 11 13 15 14 9 10 13 17 19
8 5 10 15 2 9 13 16 11 18 19 18 16 14 23 20 14 18 10 6 5 7 3 12 22 24 25 26 34 33 25 20 19 18 18 18 15 10 13 14 14 14 12 10 10 14 18 19 23
12 7 8 15 4 8 4 10 7 19 13 13 11 8 15 19 18 14 10 8 11 13 14 12 8 15 25 22 20 20 18 16 11 8 9 7 11 15 14 13 10 11 11 13 15 17 20 23 26
9 10 10 20 13 3 6 4 15 18 10 9 11 1 19 16 14 12 7 12 8 7 7 7 9 15 16 15 14 14 11 6 4 5 5 12 16 18 12 12 12 12 13 16 18 21 24 27 31
10 15 9 19 10 4 7 3 16 12 16 11 7 8 2 9 8 7 9 9 6 4 2 3 5 4 6 6 7 7 7 7 8 9 11 14 15 15 14 13 13 14 17 20 25 26 28 33 35
10 11 8 12 17 12 6 6 11 19 15 10 2 3 4 4 1 5 5 5 3 2 3 4 2 0 1 1 2 4 6 8 10 11 15 15 15 18 15 16 17 19 21 26 29 31 31 34 33
11 14 12 16 11 13 9 5 19 12 11 2 5 4 4 4 5 4 3 4 5 6 7 8 7 6 5 6 7 8 10 10 11 12 14 16 17 18 20 21 24 25 28 33 36 38 36 38 37
10 13 20 21 14 10 20 13 9 10 20 8 7 8 8 7 6 6 5 7 8 8 9 9 9 9 10 11 11 11 12 12 15 15 14 15 18 22 21 26 24 31 33 35 37 38 38 42 43
9 13 13 18 14 13 9 10 12 9 8 13 15 8 12 10 9 8 9 11 10 9 10 10 11 12 12 13 14 16 17 19 17 17 18 18 19 21 22 24 27 33 37 40 39 38 40 45 49
12 7 9 12 12 14 12 10 20 13 7 11 18 13 15 15 12 11 11 12 12 13 13 14 14 15 15 16 18 19 21 23 22 22 22 23 21 24 27 30 32 37 37 37 41 41 45 48 53
14 11 6 14 13 12 14 16 15 7 15 16 15 14 18 17 15 15 18 18 14 16 18 19 17 16 17 18 17 19 20 22 23 26 29 29 25 28 32 36 38 44 34 34 44 45 47 49 56
16 15 14 13 10 13 17 12 11 23 18 15 15 12 16 18 18 17 15 15 15 18 20 20 20 21 19 17 16 26 20 18 21 21 17 24 29 32 35 35 37 39 32 39 43 50 46 52 60
15 20 11 18 17 17 11 9 16 16 15 14 14 16 16 15 16 16 17 16 17 20 20 21 19 19 19 19 20 23 19 22 24 26 29 33 34 35 38 40 40 34 33 39 49 47 51 58 63
24 19 22 23 19 17 12 16 15 18 18 16 16 17 19 18 19 19 18 16 17 18 18 17 17 18 18 19 22 24 23 25 27 31 34 35 39 40 37 36 38 37 35 38 44 52 59 61 69
24 25 22 18 20 19 15 10 19 21 23 17 16 16 19 22 23 22 21 22 20 20 18 16 19 20 21 23 24 25 28 29 33 36 37 39 40 42 41 38 41 38 45 49 51 57 63 66 70
21 21 27 24 21 26 25 20 16 19 21 20 19 21 22 22 24 24 23 22 21 19 20 20 21 23 25 26 27 28 32 35 37 38 40 41 42 41 42 42 45 48 48 51 55 58 63 68 69

GFSSGP_500_spd_060.txt.gz
Wind_Speed
44 47 50 43 31 25 12 11 11 13 35 37 44 42 30 40 43 35 48 47 23 4 32 26 35 33 27 28 29 30 30 31 32 29 27 23 21 16 17 17 17 16 16 16 19 19 17 14 11
44 48 44 31 23 16 8 16 16 26 39 36 34 44 28 46 57 46 43 49 57 38 24 24 27 31 34 35 35 36 35 34 32 30 27 23 20 17 16 17 17 16 17 17 19 18 18 16 15
45 49 39 26 16 11 5 22 23 31 29 28 27 35 44 48 33 57 46 40 50 36 20 26 32 36 39 38 37 37 37 36 33 30 27 23 22 22 23 21 20 21 18 18 17 18 18 19 17
46 44 26 14 11 9 18 22 28 29 29 23 27 40 41 45 38 40 36 29 28 41 36 28 42 38 31 36 35 36 34 34 35 31 26 24 23 25 29 26 24 22 20 19 18 17 19 21 19
46 36 19 12 12 14 17 25 27 33 31 29 26 40 34 40 23 27 21 21 26 33 32 36 34 31 41 40 37 39 36 31 29 28 26 24 27 26 28 26 24 23 21 18 19 21 22 22 20
43 27 8 9 16 21 17 30 34 34 41 30 33 25 24 30 19 15 16 20 30 37 28 38 32 30 37 43 48 38 33 32 32 32 30 28 28 25 26 21 21 19 23 27 22 23 23 19 17
31 11 8 7 13 16 18 31 25 29 27 25 31 7 12 17 25 15 17 24 34 34 32 19 33 33 34 39 35 36 33 32 33 33 31 30 28 27 26 20 23 21 23 28 26 26 22 17 14
21 8 12 7 10 22 24 22 23 21 26 10 17 16 24 18 16 12 19 26 32 30 33 31 29 19 36 46 37 37 31 31 35 35 31 31 22 30 34 30 26 26 27 30 32 28 15 13 13
12 6 8 16 13 18 26 25 10 16 23 22 15 18 18 17 11 14 19 24 29 27 28 33 34 32 24 15 32 40 38 34 33 34 34 24 23 29 36 36 34 31 30 27 28 15 8 12 11
10 4 5 12 23 18 24 15 17 18 17 28 14 21 22 12 9 11 15 16 20 23 28 31 27 29 24 16 13 8 8 21 28 32 34 31 30 32 31 38 39 38 23 18 13 10 12 12 13
11 6 14 12 18 23 19 14 18 21 26 26 13 19 13 12 14 14 16 15 14 20 20 26 30 29 14 15 19 17 18 19 20 37 37 45 45 44 56 47 44 30 18 10 11 11 10 13 15
16 13 9 16 18 12 14 19 19 23 26 13 15 19 8 14 12 17 18 21 17 20 20 26 19 17 19 25 22 21 21 31 23 26 37 27 35 32 43 32 29 29 14 12 10 10 11 14 16
13 15 11 11 22 12 10 14 12 23 17 14 14 19 22 20 17 21 21 22 22 25 21 21 20 22 27 25 25 24 24 23 24 19 23 20 23 28 33 35 25 16 12 11 12 12 11 13 12
8 9 9 11 17 13 13 19 22 17 11 16 16 20 23 21 17 19 20 20 16 16 19 20 20 26 26 24 29 25 22 25 31 31 31 22 25 28 32 22 20 17 12 13 13 11 11 10 10
9 9 11 8 15 11 13 22 26 19 9 12 19 20 19 18 17 17 16 16 15 11 16 16 19 20 21 17 17 21 24 28 31 28 28 20 17 23 18 21 17 14 13 13 12 11 10 11 13
8 5 13 19 19 8 6 15 27 20 15 10 20 22 19 18 16 15 12 10 7 7 5 10 15 17 18 17 17 21 24 27 27 23 15 14 17 19 18 14 13 10 10 13 11 11 13 15 16
15 14 15 24 12 12 11 16 14 17 10 21 27 25 13 15 16 17 11 4 6 9 11 3 12 20 22 19 24 29 26 16 12 14 16 17 12 11 9 11 9 10 13 13 13 14 15 18 20
2 13 18 23 17 23 14 9 20 20 11 24 24 20 13 9 12 11 9 8 6 10 14 17 20 17 10 12 13 15 19 19 17 15 11 5 2 8 12 12 12 13 15 14 16 17 19 20 24
14 17 10 20 16 18 16 1 17 21 12 18 20 9 8 9 8 9 8 9 8 10 11 12 11 12 11 11 12 14 14 9 7 4 3 2 6 10 16 16 14 14 15 17 20 20 24 26 28
12 10 13 14 21 12 10 7 14 19 13 17 12 7 6 8 7 7 7 7 8 7 8 9 10 9 10 10 9 8 5 3 3 4 4 6 11 11 11 14 14 16 19 20 23 24 28 33 36
12 11 11 15 20 7 14 8 11 16 17 15 12 4 4 1 3 5 4 4 4 6 6 7 9 11 11 10 10 10 8 6 4 5 7 8 12 13 12 14 18 21 24 27 30 30 32 36 39
11 7 11 21 23 11 17 15 18 15 15 13 7 13 3 3 3 4 4 4 4 5 5 6 8 7 8 10 11 10 8 6 7 8 10 11 11 13 15 18 18 21 26 29 28 33 37 39 38
10 12 13 20 25 19 11 21 13 13 8 11 17 8 12 5 5 5 5 4 6 5 6 6 7 9 10 12 12 13 13 13 12 11 12 13 15 16 17 19 22 23 27 31 32 31 41 36 43
16 11 10 13 18 15 11 18 13 20 10 13 17 14 18 8 6 6 6 6 10 8 9 9 10 11 11 10 12 15 16 16 15 14 15 19 19 20 21 24 26 29 31 30 36 35 30 33 43
16 14 10 12 14 6 5 16 20 24 12 12 5 22 19 14 8 10 10 9 8 6 10 12 12 12 12 11 13 16 16 16 16 13 11 17 10 13 21 27 30 33 35 35 37 42 39 33 46
18 16 16 14 12 14 17 18 13 20 13 11 15 17 22 17 12 9 9 7 10 10 10 12 13 12 12 13 15 14 19 17 16 11 16 19 19 19 25 27 32 34 32 36 32 30 36 35 41
20 20 12 15 20 17 9 7 11 20 22 15 17 16 15 17 18 15 14 14 15 17 15 14 15 14 13 15 17 17 17 16 18 19 19 22 25 25 26 30 31 33 32 32 35 36 36 39 45
27 16 21 24 24 18 17 9 25 18 21 16 19 19 18 17 16 18 19 22 21 19 17 15 14 14 15 18 19 20 32 19 24 25 22 27 30 30 32 34 36 35 34 37 40 41 43 48 53
21 27 26 24 27 23 15 20 23 12 19 22 18 22 19 19 17 19 23 26 25 25 23 18 18 19 17 19 23 23 25 27 26 27 31 33 34 35 35 37 39 39 41 42 42 42 52 54 55
25 19 26 28 26 23 23 23 19 17 19 23 19 23 22 18 21 23 25 26 29 26 25 21 20 23 24 26 26 28 26 30 29 32 34 38 39 39 41 42 42 42 43 43 43 48 51 54 57

GFSSGP_500_spd_063.txt.gz
Wind_Speed
39 39 42 44 46 49 19 5 3 5 18 25 31 31 30 33 43 46 48 41 40 40 37 37 27 43 37 32 29 29 29 29 29 28 27 26 25 23 21 18 19 18 18 19 19 19 19 18 16
37 39 41 45 45 33 10 12 7 19 28 27 26 33 27 36 40 44 45 43 48 46 46 48 44 38 38 32 34 35 32 32 33 31 31 28 24 22 17 16 16 16 17 17 17 18 18 18 16
36 39 41 40 35 11 9 2 11 22 30 34 30 30 28 33 37 40 29 41 35 50 49 48 40 24 32 34 32 32 32 34 35 33 30 26 24 23 21 20 20 19 19 19 19 17 15 16 15
35 38 38 35 18 10 1 11 20 31 31 25 28 22 29 34 32 40 44 57 44 40 42 42 34 29 38 35 41 41 34 36 35 34 35 33 30 25 23 23 23 23 22 21 19 17 15 16 17
35 36 35 28 19 14 14 14 19 28 36 35 29 32 32 32 39 38 40 44 34 46 42 40 39 41 37 36 41 42 43 41 38 37 32 29 27 25 26 24 25 24 24 22 19 18 18 20 20
32 34 31 22 10 7 20 18 29 32 31 37 36 38 40 42 40 33 18 13 17 29 39 37 38 48 43 43 44 40 42 42 38 37 30 28 27 26 27 24 24 22 22 23 22 22 23 22 21
32 35 23 14 6 6 20 27 29 29 28 28 25 25 35 39 23 23 16 17 18 23 30 33 40 39 47 46 52 48 57 43 46 36 33 32 31 28 28 25 22 20 21 17 18 23 26 26 18
29 28 12 9 10 13 23 27 31 32 35 28 12 17 6 5 5 13 17 16 18 26 29 27 37 29 44 49 32 46 40 40 35 34 34 33 32 29 23 23 27 29 24 21 23 24 23 23 17
27 17 12 9 14 14 20 30 29 28 29 26 17 16 10 19 12 14 17 16 19 23 23 27 28 34 26 21 21 27 35 51 39 40 34 33 31 27 20 18 23 26 28 29 27 24 21 20 16
22 14 13 13 11 19 20 28 29 32 28 26 24 16 13 12 11 13 16 12 9 16 19 19 18 23 27 29 14 11 20 22 39 39 37 35 34 30 29 26 30 29 32 34 28 22 12 9 11
21 9 12 12 14 24 21 20 24 27 28 23 16 7 9 4 9 15 16 17 10 13 22 17 18 18 19 21 20 14 16 9 18 24 25 25 43 36 35 38 30 28 33 30 23 16 10 13 12
22 14 11 9 14 13 10 14 17 21 25 31 19 14 15 10 16 12 15 20 22 19 21 18 16 17 20 22 17 13 14 16 14 13 16 16 24 32 41 35 25 26 26 21 14 13 15 13 12
20 11 10 13 9 12 17 18 15 16 29 21 17 14 14 17 19 17 18 21 21 21 22 19 15 18 18 17 19 19 20 17 16 17 18 26 15 15 16 22 23 26 25 17 16 15 13 11 10
19 12 10 9 9 15 22 16 18 20 20 17 11 11 10 13 16 18 17 17 15 18 20 11 14 18 23 21 22 21 22 15 17 14 14 21 20 24 18 18 22 27 20 19 15 12 11 9 12
17 11 6 1 13 18 15 12 12 21 28 18 11 14 16 14 12 12 14 13 13 13 10 12 12 16 17 22 22 18 22 22 14 12 20 20 23 13 12 15 25 22 20 15 12 11 10 11 12
10 9 6 4 8 13 12 10 20 17 25 14 13 14 12 10 9 9 9 11 13 16 10 12 15 16 17 15 15 13 13 11 13 17 22 22 13 9 10 18 23 19 13 12 11 12 12 14 14
10 6 7 11 17 29 19 14 17 18 16 23 13 15 19 7 5 5 7 3 7 9 9 6 10 12 15 14 15 15 16 14 19 19 18 13 8 8 17 22 17 13 11 13 15 16 16 16 15
14 16 13 13 16 18 14 16 14 18 20 21 19 17 16 16 3 1 3 2 10 12 12 12 2 10 14 16 19 17 14 13 16 15 16 17 15 16 16 16 14 13 15 17 17 17 17 17 15
11 10 12 16 17 14 17 17 16 14 13 15 20 17 15 16 4 2 2 2 10 11 14 14 15 20 18 16 18 20 18 18 18 17 13 11 9 5 7 12 15 15 16 17 17 19 19 18 20
7 9 8 13 14 12 13 8 16 18 11 12 19 13 10 6 9 6 8 7 8 7 10 13 14 14 14 15 14 11 11 12 10 10 9 6 4 6 3 8 15 15 17 15 18 19 21 24 27
7 8 9 22 19 14 12 6 12 19 22 13 9 8 5 3 6 4 3 6 4 5 7 9 10 10 11 12 12 10 9 10 7 5 4 4 3 6 7 4 7 12 13 19 22 23 25 30 28
11 12 14 24 22 19 19 12 10 19 19 9 3 5 6 2 1 1 2 4 4 4 5 6 8 9 9 8 7 7 7 8 3 1 3 4 3 5 8 9 10 11 12 15 18 25 29 28 33
12 16 15 17 23 21 21 21 8 19 10 14 10 11 5 4 3 1 1 5 2 2 3 5 6 7 6 5 5 5 5 4 2 2 3 6 6 9 9 10 12 14 17 20 23 26 30 33 35
18 19 18 17 17 14 12 25 13 12 12 17 17 10 5 10 7 4 3 3 4 5 4 3 4 4 4 5 6 7 9 8 6 6 6 7 10 12 13 13 16 16 20 23 27 29 30 33 36
22 20 19 18 13 7 18 24 13 13 14 19 12 12 10 5 10 7 8 8 4 4 5 5 5 6 8 8 9 8 9 8 6 7 8 6 7 7 14 15 15 18 23 24 26 28 30 29 30
20 16 21 22 16 12 16 13 11 12 16 10 12 15 13 6 2 8 10 8 8 7 7 10 11 12 13 13 13 12 12 10 9 11 9 11 12 11 13 16 18 22 25 28 29 32 30 33 36
21 25 13 21 25 15 13 13 13 16 17 16 13 13 13 11 10 5 13 13 13 11 12 15 16 16 16 16 14 15 15 17 14 15 18 20 19 16 12 18 20 24 28 31 31 32 35 38 40
30 21 24 26 25 22 16 15 17 21 15 13 15 14 15 17 18 15 10 10 14 15 18 20 18 18 20 20 18 18 17 16 21 22 23 28 29 21 15 22 25 29 31 32 33 34 36 39 41
31 29 31 28 28 27 20 20 24 21 20 24 19 16 16 15 17 22 20 17 13 14 19 21 24 22 22 24 21 20 22 24 27 27 25 21 20 27 25 29 31 32 33 34 35 37 39 40 43
32 25 28 33 26 27 27 26 24 21 22 21 13 13 18 15 15 19 23 19 13 12 17 20 23 28 28 24 26 28 34 25 28 32 16 24 30 31 35 36 34 36 36 38 38 40 41 43 45

GFSSGP_500_spd_066.txt.gz
Wind_Speed
34 34 36 35 34 32 24 14 13 10 8 12 15 19 24 25 26 31 36 38 41 34 37 44 33 41 25 37 36 35 32 32 30 30 29 28 26 23 19 18 19 18 19 18 17 18 16 16 18
31 33 34 34 33 29 12 10 8 14 14 20 26 24 27 26 27 31 33 37 39 43 38 40 37 40 40 34 36 35 32 31 31 29 29 27 25 24 21 16 16 16 17 17 17 18 17 15 16
31 32 33 32 31 15 5 7 9 14 17 24 26 25 25 28 30 30 34 34 36 47 47 43 45 45 43 34 32 40 34 35 33 32 30 28 27 25 22 22 21 20 18 18 18 18 17 14 15
29 30 29 29 21 8 11 15 13 16 17 25 27 23 24 25 26 32 32 31 31 34 49 48 47 57 48 55 54 49 44 39 40 37 32 31 28 29 28 28 26 24 22 21 21 19 16 16 15
28 28 28 19 13 6 11 10 20 17 22 27 30 32 35 31 31 31 30 33 32 38 47 46 46 45 56 36 38 38 41 44 48 41 35 31 34 32 30 28 27 24 22 22 24 21 18 19 20
27 26 26 13 8 6 10 14 19 23 27 30 32 32 29 25 32 33 32 32 32 36 42 51 55 37 48 35 37 45 51 46 43 37 37 35 37 30 27 25 25 25 24 24 24 23 20 20 24
25 25 23 15 9 4 5 12 25 28 29 31 29 26 26 23 29 35 39 37 33 37 32 33 38 38 64 59 48 52 50 49 47 42 39 38 38 30 26 25 26 27 24 23 22 23 25 21 24
22 23 24 16 11 4 11 20 28 30 28 31 25 12 21 5 5 8 11 22 30 26 32 25 30 31 33 37 58 48 41 51 50 40 37 40 38 32 28 28 27 23 25 28 24 21 21 16 18
19 22 21 15 15 8 10 24 27 31 23 22 18 12 18 22 10 7 11 15 17 17 25 22 23 32 50 19 26 40 53 55 49 47 35 42 33 32 29 30 25 12 10 16 26 26 26 22 17
18 23 21 16 15 11 13 19 25 29 30 22 18 16 14 14 10 8 11 11 13 16 19 16 19 28 34 40 23 6 21 40 43 43 45 44 34 33 31 30 29 24 15 22 21 27 31 26 17
17 24 21 12 12 14 14 16 19 23 20 18 18 16 13 14 9 10 11 12 9 11 15 15 19 17 17 22 26 20 15 18 25 37 38 35 32 32 29 33 31 31 26 25 17 25 26 21 14
16 23 19 11 7 7 12 16 18 17 17 24 23 17 19 16 16 11 8 13 14 15 18 21 21 20 18 13 9 8 9 16 18 19 20 25 24 22 17 22 37 29 26 22 18 20 19 18 17
18 23 23 8 1 7 14 21 18 15 14 25 9 12 16 17 20 16 11 13 16 18 19 23 24 22 19 14 16 10 12 13 11 12 16 15 15 13 12 8 20 19 25 22 15 19 19 18 16
17 19 14 9 5 8 9 11 8 14 14 21 18 11 12 16 20 17 15 10 13 17 19 20 22 25 21 17 24 21 21 16 14 16 20 21 18 18 16 17 21 16 17 17 21 21 16 14 13
15 16 11 4 4 5 8 9 11 12 18 21 10 11 14 15 15 8 5 7 8 13 15 18 15 19 22 22 24 20 19 20 21 18 20 17 11 14 17 20 18 15 13 21 23 18 16 14 15
15 15 15 14 11 2 10 12 14 13 12 15 11 8 16 14 12 8 7 4 8 13 11 9 16 16 16 17 21 20 18 20 22 18 19 21 16 18 18 18 16 12 18 24 20 17 16 15 16
17 19 17 18 9 7 2 6 10 10 9 9 18 17 16 5 2 4 4 3 7 9 13 5 8 11 14 18 20 18 16 14 16 18 17 18 19 21 21 19 13 19 23 19 18 18 17 18 18
19 18 18 21 11 9 9 10 14 10 8 11 19 18 20 12 6 4 4 4 2 4 7 8 3 9 12 14 16 19 14 21 19 18 16 20 22 21 20 16 23 20 19 19 20 18 18 18 18
20 19 17 23 14 14 14 16 13 5 2 12 11 9 10 9 10 8 10 8 7 7 2 4 4 4 10 9 13 20 21 19 15 15 19 20 20 19 19 22 20 20 22 21 20 19 21 20 18
20 17 18 23 18 16 15 11 13 6 3 9 8 2 2 3 9 10 9 8 8 8 9 11 13 15 15 12 9 8 12 13 15 19 19 17 18 18 15 16 16 16 20 20 17 18 19 21 22
18 16 20 22 21 21 18 10 17 16 10 4 3 4 0 3 3 4 7 7 5 8 8 8 11 13 12 11 10 11 10 11 12 10 11 12 14 14 10 10 13 12 16 22 23 20 20 24 27
18 16 21 20 23 23 21 15 17 16 9 5 4 2 1 2 2 2 2 4 6 7 9 7 8 8 9 10 10 12 11 10 9 9 8 9 10 10 11 11 11 13 12 12 11 16 19 26 28
14 22 23 21 23 22 18 24 18 20 15 7 5 5 7 5 2 6 7 5 4 5 6 7 6 4 5 6 7 8 7 6 6 6 8 9 9 11 12 12 11 11 13 14 15 18 22 25 29
23 26 24 23 24 19 14 26 19 21 17 9 5 5 7 8 7 6 10 6 5 4 4 4 4 5 7 6 6 8 6 6 7 10 10 10 13 13 15 15 15 15 16 15 16 18 21 25 27
31 27 24 25 24 10 16 16 14 19 19 17 5 5 6 4 6 8 10 8 6 6 4 5 6 6 6 5 6 7 8 7 7 8 10 10 12 16 12 14 13 12 14 16 18 20 22 27 29
32 27 26 27 25 18 20 15 12 18 18 18 8 6 4 7 5 5 8 10 9 7 7 7 9 10 10 10 12 10 10 6 7 7 9 11 14 13 14 16 15 12 18 20 20 23 26 28 29
31 31 17 27 29 27 24 20 22 17 17 17 12 12 8 8 4 4 9 12 13 11 12 13 15 16 15 15 17 15 14 12 15 15 14 18 17 23 25 22 19 17 18 19 24 26 29 30 30
35 25 30 34 32 29 23 20 22 17 13 15 14 10 9 10 8 9 7 10 11 13 15 16 17 17 19 19 18 16 19 21 19 22 23 21 22 24 35 19 18 20 16 24 26 29 30 31 32
34 34 37 34 37 32 24 24 22 22 18 16 19 16 17 15 14 13 12 11 13 16 16 17 18 21 22 24 24 26 25 25 27 28 26 26 27 26 17 18 18 20 21 25 27 29 30 31 32
35 39 34 35 36 33 30 26 24 24 25 23 22 21 19 19 18 16 14 14 15 14 14 15 20 26 26 28 31 30 33 32 31 35 36 36 43 19 20 22 24 25 25 25 28 29 31 33 35

GFSSGP_500_spd_069.txt.gz
Wind_Speed
31 29 28 29 30 31 31 30 31 28 25 24 20 22 17 18 19 23 28 28 32 37 36 42 30 38 38 40 35 47 33 28 28 25 27 23 21 21 23 19 14 15 18 17 17 18 15 16 15
26 25 26 29 29 30 30 31 31 25 23 22 23 19 14 19 24 24 26 32 33 24 28 33 36 31 36 32 36 28 34 32 31 34 28 26 23 22 23 20 17 17 15 16 18 16 15 16 16
23 23 25 26 28 30 29 26 23 24 17 16 18 20 18 19 17 24 25 27 25 28 33 32 37 41 40 40 40 35 35 34 30 30 29 28 25 24 23 20 19 17 17 17 18 17 17 19 17
21 22 24 24 27 26 25 19 20 19 16 19 16 20 24 25 26 29 30 25 32 25 27 31 35 43 45 46 46 42 24 34 37 34 36 32 29 27 24 20 21 22 20 18 23 21 21 20 19
19 20 22 23 24 27 23 23 20 20 19 19 23 26 27 32 31 28 31 28 30 29 33 31 36 38 46 48 42 46 51 49 46 39 36 36 32 30 26 25 26 27 23 21 22 22 23 22 22
19 19 23 22 24 26 21 20 22 19 18 19 26 28 29 33 26 25 26 30 32 31 29 31 34 36 43 49 53 45 47 49 43 46 45 41 35 33 31 29 26 22 21 22 23 23 24 27 23
16 21 22 22 24 24 21 22 23 20 19 20 23 21 20 22 22 16 17 26 34 36 31 30 28 31 40 44 47 59 53 52 51 45 45 43 38 36 33 29 22 21 22 21 22 22 23 27 26
15 21 22 24 22 22 19 21 22 18 16 19 21 16 14 21 21 18 16 18 24 33 33 33 30 29 30 39 24 39 44 45 42 45 40 38 37 34 31 27 24 24 23 22 23 25 25 22 24
16 21 24 28 29 23 17 18 19 22 22 22 17 14 12 19 19 16 17 16 12 16 20 27 28 21 21 20 36 46 42 44 43 47 50 45 40 37 35 31 30 25 22 23 19 17 24 27 25
14 20 23 27 32 25 12 11 15 17 19 17 14 13 14 13 13 13 16 14 10 13 13 19 22 20 20 23 40 40 43 42 45 42 46 46 42 37 30 33 26 26 28 19 21 17 22 23 26
10 17 22 25 29 24 9 6 11 13 12 17 19 14 14 12 11 13 14 15 12 12 13 16 17 14 13 12 18 33 34 26 44 44 46 38 40 38 37 28 27 31 35 31 27 24 21 21 21
10 15 20 22 24 19 11 10 9 7 8 18 15 8 6 15 15 19 17 19 19 17 19 18 19 18 14 10 10 9 12 15 8 36 30 34 40 41 32 24 23 22 30 30 28 26 22 16 18
14 14 19 19 20 17 14 16 9 7 13 18 18 10 7 7 12 17 21 23 22 20 23 20 19 19 16 16 12 7 5 2 15 22 17 16 35 26 22 23 28 23 22 35 30 28 22 17 21
18 16 18 20 20 15 14 12 6 8 11 14 11 10 7 7 13 15 17 23 25 19 18 17 17 16 16 17 16 17 14 18 17 12 18 17 22 23 17 17 15 15 22 26 25 23 18 20 23
15 18 20 21 20 17 18 12 11 8 11 12 19 13 9 13 14 15 11 15 16 14 13 12 15 12 13 17 16 24 24 22 17 18 20 24 20 21 18 19 20 20 24 23 23 19 19 22 22
15 17 22 22 21 20 20 15 12 6 9 11 10 6 6 11 11 11 14 13 12 13 12 9 11 12 11 17 17 20 23 22 22 23 23 20 20 22 18 18 20 23 25 24 20 22 23 21 20
17 19 22 25 21 23 25 22 15 6 7 10 14 8 10 8 5 9 13 13 9 10 13 9 8 13 20 19 26 22 25 23 21 24 27 23 27 24 22 21 24 26 25 21 22 24 22 20 20
25 21 23 19 21 28 24 27 13 14 8 6 9 5 8 8 2 3 7 7 7 6 10 8 4 10 18 18 21 21 22 19 17 20 22 22 23 24 22 23 27 27 22 22 24 21 21 20 20
26 23 21 20 21 25 24 26 12 12 7 5 10 10 7 11 9 1 7 5 4 7 8 9 6 6 12 11 15 18 20 21 20 18 22 26 23 23 27 28 30 26 28 23 22 21 21 20 20
24 26 21 20 26 26 27 20 14 9 7 7 9 8 6 7 7 4 5 4 3 5 5 9 10 13 13 10 9 6 15 23 24 22 23 24 22 22 23 25 26 27 24 22 18 17 18 20 21
22 22 24 27 29 27 25 18 24 13 8 4 10 7 5 4 5 4 2 4 5 4 2 3 6 7 8 9 10 10 12 15 14 14 13 16 18 19 18 18 20 21 21 19 18 19 20 22 22
21 21 23 29 30 27 23 22 20 19 12 4 8 3 5 3 5 5 5 8 7 8 6 4 4 4 5 7 7 7 8 13 15 15 17 19 20 18 15 16 20 21 16 12 17 23 24 24 28
18 25 24 28 31 26 19 22 14 27 15 8 7 9 6 9 6 8 9 7 6 6 7 7 6 5 5 7 7 7 8 9 9 9 10 13 14 13 14 15 15 16 17 15 14 14 18 21 24
23 25 27 28 31 25 14 25 8 26 18 12 12 11 10 10 9 9 10 8 5 5 6 7 7 5 6 8 10 10 8 9 11 13 14 13 14 14 15 16 17 18 18 17 18 20 20 21 23
29 26 28 32 31 22 17 28 9 21 19 15 11 15 23 15 9 9 13 11 8 5 4 6 5 5 5 7 8 8 8 9 12 13 13 11 12 15 16 20 22 21 20 19 21 23 22 21 25
29 28 30 31 32 29 27 25 14 20 20 13 13 12 14 12 9 7 11 12 10 9 6 6 5 5 5 7 10 11 12 12 12 12 10 11 13 15 17 20 23 24 23 21 23 24 24 23 27
31 35 26 34 37 35 30 28 21 23 22 18 14 19 13 14 10 8 7 10 11 10 11 12 12 10 8 9 10 13 14 14 15 14 13 16 19 22 24 25 24 25 25 25 26 28 27 28 30
37 32 33 36 38 36 29 25 24 27 25 21 14 15 18 16 15 9 8 9 11 13 16 16 14 14 15 14 15 16 18 20 19 19 22 23 22 28 34 32 32 33 27 27 30 30 25 32 30
38 39 36 35 39 40 30 26 19 29 27 19 17 16 17 15 17 18 12 12 14 16 14 16 17 18 19 22 24 25 26 26 27 25 25 28 29 34 41 43 42 36 26 25 24 23 29 32 33
38 38 37 39 41 39 38 26 22 24 32 27 24 17 19 18 14 16 15 15 15 16 20 18 20 23 25 29 25 27 37 32 27 21 35 30 35 41 29 33 24 29 23 23 23 29 31 34 35

GFSSGP_500_spd_072.txt.gz
Wind_Speed
27 27 28 27 25 26 28 32 33 33 33 30 25 20 17 20 19 22 25 28 30 31 28 32 41 31 32 35 35 30 33 28 29 28 39 30 26 22 20 15 13 12 8 9 12 15 16 16 16
24 25 26 26 25 26 27 30 31 31 30 25 16 16 18 18 21 20 25 25 29 33 32 25 27 36 32 35 34 35 32 33 34 34 33 35 29 24 17 14 10 9 9 9 12 12 14 16 16
23 24 24 25 26 26 27 30 31 28 27 21 16 17 19 18 20 20 20 22 27 33 31 29 26 28 40 36 33 30 32 28 32 38 36 35 28 24 18 16 13 10 10 12 14 15 13 16 17
22 23 23 25 24 27 26 29 28 24 27 25 21 20 17 18 22 27 28 28 31 29 30 29 34 33 33 37 38 32 36 34 28 36 37 30 27 24 20 20 16 12 14 14 16 17 18 20 19
21 22 22 23 25 26 28 25 25 27 26 22 17 15 18 23 24 29 27 28 30 29 29 29 34 26 29 26 35 33 33 32 33 39 40 36 26 27 25 22 17 15 17 19 20 20 21 21 21
21 20 20 22 25 27 28 25 24 25 23 19 19 18 21 24 21 19 24 21 25 29 29 28 30 32 32 32 34 32 37 38 42 40 40 35 34 29 29 25 19 19 18 20 20 21 22 22 24
21 17 19 19 23 27 26 25 23 23 16 14 16 17 21 24 20 21 22 10 12 20 25 26 25 34 34 26 35 39 38 42 40 36 39 41 40 41 30 26 21 19 19 19 20 21 21 21 20
19 18 17 16 21 27 26 22 22 20 14 14 17 18 19 19 20 22 12 11 14 13 20 26 29 37 36 31 29 33 39 36 34 38 40 45 43 38 34 29 23 20 22 20 24 22 21 23 25
17 19 18 17 19 24 22 17 20 18 17 13 12 20 17 20 22 19 11 9 7 6 9 17 25 26 32 27 18 35 37 45 42 31 47 42 46 51 41 32 24 22 25 26 25 22 24 20 22
15 16 17 17 19 22 20 14 17 17 15 10 14 22 22 22 22 15 9 8 7 7 8 11 11 11 12 18 20 22 23 39 41 51 45 41 40 45 37 29 26 26 29 28 26 23 18 16 21
14 17 16 21 18 20 21 13 14 15 14 11 16 22 19 16 20 13 15 11 9 10 10 10 11 12 15 17 19 17 6 29 49 41 39 40 40 37 34 31 27 29 29 29 28 30 25 26 24
15 19 20 21 23 21 24 14 13 15 17 16 20 25 19 18 14 16 18 16 14 14 13 14 15 17 18 19 13 3 14 16 32 39 39 41 41 40 34 32 34 30 32 29 28 32 26 31 27
16 19 21 22 22 19 22 19 16 18 16 13 15 15 18 14 12 14 15 17 16 15 16 16 18 22 20 21 14 6 21 8 8 18 37 39 30 36 44 37 33 37 31 23 19 28 30 26 26
17 17 22 23 22 20 19 22 15 14 14 18 14 19 19 18 16 17 20 17 15 13 16 17 18 18 18 18 16 12 11 13 14 17 23 22 21 20 42 35 28 30 27 26 22 28 28 27 25
19 18 23 25 25 19 18 19 19 15 16 19 18 17 17 20 17 19 14 15 15 12 11 14 16 16 16 16 17 17 25 28 31 29 25 21 21 20 19 22 27 23 19 22 21 24 26 23 23
21 18 23 27 26 23 17 17 26 18 16 20 17 16 17 17 15 9 7 11 10 12 13 10 15 14 14 16 18 19 27 26 26 21 18 24 22 23 23 25 25 23 19 21 21 24 24 23 24
21 21 25 27 28 25 21 20 27 22 22 19 16 13 13 12 12 10 5 10 13 10 13 11 11 13 18 12 12 17 25 25 20 18 18 19 24 25 24 25 20 19 19 24 23 26 23 23 24
20 27 22 23 31 31 24 21 25 23 21 21 16 12 11 9 10 10 6 7 9 9 14 15 7 12 18 18 18 22 12 19 19 18 24 27 26 23 25 22 21 17 21 25 28 27 24 24 24
28 27 20 21 26 32 30 25 25 24 16 14 15 14 10 9 8 7 7 7 6 8 11 15 3 9 13 21 20 27 23 28 21 21 26 26 27 27 27 23 22 20 26 32 28 25 23 26 25
27 25 20 19 25 31 28 23 23 23 14 13 13 11 8 11 6 7 5 5 6 7 6 8 10 6 8 10 14 20 25 27 28 33 26 29 30 29 30 28 26 28 33 33 22 20 22 23 21
29 21 22 23 30 30 30 21 18 22 13 13 15 11 6 8 6 5 2 4 5 7 6 5 6 9 9 11 14 16 25 29 32 32 29 29 30 29 28 26 30 32 31 22 19 21 22 18 19
30 21 26 27 29 29 30 19 19 27 14 14 16 8 7 7 8 8 7 6 8 7 7 4 1 4 5 6 8 8 10 14 20 24 23 22 21 22 24 23 22 21 22 21 21 20 20 23 25
26 27 32 30 31 30 25 27 13 21 21 13 15 13 12 8 9 9 9 7 7 6 6 5 5 2 2 2 4 6 10 11 15 15 15 13 14 16 17 18 21 20 21 20 18 19 23 24 24
30 32 34 30 29 30 21 27 14 13 20 11 17 15 13 9 10 10 10 9 6 7 8 6 5 5 5 3 2 3 6 10 12 13 13 14 14 14 16 18 18 21 23 23 22 20 22 22 24
36 34 34 33 31 26 24 28 20 15 21 9 20 18 18 17 15 10 11 13 10 7 8 8 6 4 4 4 3 4 5 6 9 12 14 14 14 16 20 21 23 23 25 24 25 24 24 24 25
35 34 35 33 32 30 29 32 22 18 23 10 13 17 22 21 17 12 12 14 12 9 8 6 7 6 6 6 8 7 8 7 7 9 12 14 15 17 17 18 19 20 23 25 25 25 24 25 28
36 37 31 34 37 36 30 32 26 20 23 19 13 16 19 13 17 14 12 13 16 13 12 12 10 10 11 13 11 11 11 12 13 12 14 13 13 14 14 16 17 21 23 27 29 28 27 33 32
41 36 38 40 40 36 33 30 21 23 26 21 14 17 24 18 18 15 11 12 14 15 17 16 14 15 16 15 15 16 17 18 18 17 17 19 19 19 19 21 23 28 33 36 34 32 32 31 37
42 42 42 40 40 39 34 31 18 21 25 22 19 21 26 23 21 21 18 15 16 15 15 15 16 19 21 19 20 20 21 24 24 24 22 22 24 27 28 25 32 34 39 44 47 36 36 36 35
41 43 41 45 44 40 38 34 24 20 23 24 21 19 19 23 27 24 25 21 18 17 18 19 20 21 26 27 25 25 26 24 27 29 33 26 25 36 33 35 36 40 49 44 45 37 39 31 32

GFSSGP_500_spd_075.txt.gz
Wind_Speed
30 29 26 27 26 24 24 26 26 26 27 25 24 25 24 23 22 22 23 24 27 30 36 36 36 43 36 27 33 32 29 24 24 22 23 31 21 22 24 22 17 14 11 9 6 5 9 8 9
27 25 27 28 25 22 21 25 25 27 25 24 23 22 22 20 22 22 25 25 25 28 31 34 31 24 31 37 29 31 33 29 29 24 18 35 28 25 30 26 19 15 12 9 7 8 9 8 10
25 23 26 25 23 21 22 25 27 26 24 23 21 20 21 20 21 23 26 30 29 27 32 30 29 40 37 29 35 32 31 29 30 21 24 28 28 31 32 25 19 14 13 10 9 10 11 11 11
22 22 23 24 21 19 20 25 25 24 22 23 23 20 22 23 24 21 25 29 38 32 29 31 28 31 32 24 25 26 26 29 29 25 22 31 35 39 34 26 22 19 15 14 12 12 15 15 16
21 21 20 21 18 17 20 22 23 23 21 23 24 22 20 23 20 22 19 21 27 27 28 30 30 24 38 41 29 27 32 35 32 30 23 25 34 36 31 25 23 21 17 15 13 15 18 16 16
20 19 18 18 17 18 19 19 19 19 21 21 21 22 22 21 21 20 24 22 19 17 23 26 28 28 24 29 19 24 23 29 28 23 26 28 40 26 27 26 27 22 21 15 17 17 17 15 17
20 19 16 17 19 19 20 19 16 15 19 18 19 19 21 23 23 22 24 20 12 9 16 22 27 26 24 20 21 24 28 32 28 27 27 27 30 35 32 33 27 24 20 19 16 17 17 18 18
21 18 14 17 19 18 20 21 16 16 18 18 22 23 19 23 24 24 18 19 13 10 11 20 21 24 21 23 28 30 29 27 33 26 25 25 28 33 38 34 29 28 23 20 18 19 18 20 20
19 16 15 16 16 18 20 20 17 16 16 19 23 21 19 22 26 27 21 16 11 8 6 6 11 17 16 25 29 28 20 21 25 40 32 28 27 37 41 36 32 30 26 24 21 21 21 21 23
19 14 16 16 15 16 22 20 12 13 17 19 21 18 20 21 20 20 14 11 11 10 7 7 8 4 9 5 14 17 19 24 32 38 39 25 34 41 48 43 37 32 29 24 23 23 22 21 23
17 15 18 18 17 14 21 23 13 13 16 20 23 26 27 21 17 19 11 13 9 11 11 10 10 10 10 12 17 19 15 18 35 48 41 39 33 39 44 44 38 35 30 27 24 27 23 22 24
16 18 22 22 20 15 19 23 14 16 20 24 24 22 18 19 18 16 13 15 16 11 12 15 17 15 14 15 16 15 11 21 20 33 41 43 36 42 48 49 41 40 32 25 27 26 24 24 27
17 19 21 23 23 18 20 24 13 16 18 18 20 19 24 24 18 17 14 15 16 17 17 16 16 15 15 15 15 15 10 13 34 41 41 37 36 42 38 42 46 40 33 27 29 29 26 24 27
19 17 20 23 22 18 20 22 21 14 16 20 25 23 22 23 24 18 21 19 15 13 13 15 16 18 16 16 14 15 14 22 26 29 34 34 36 39 42 39 39 37 35 33 32 30 28 26 25
22 18 21 24 23 18 17 19 24 16 12 19 26 23 21 21 25 24 21 17 14 9 8 11 12 19 19 19 16 17 17 20 35 31 31 28 32 33 30 24 28 37 29 34 35 30 29 25 25
23 21 22 28 24 19 17 13 24 23 17 17 25 23 18 19 22 19 16 14 12 9 9 11 16 21 19 17 16 18 17 20 23 25 24 27 27 24 22 21 22 43 34 30 24 28 26 21 22
21 19 24 30 25 23 20 18 22 27 21 17 25 25 18 17 19 18 15 12 12 10 12 14 18 19 11 11 17 18 19 23 17 25 24 20 22 20 19 19 15 24 26 25 21 21 20 21 22
22 23 29 27 28 25 24 21 18 24 21 20 20 25 16 16 14 15 12 11 12 9 8 13 14 14 8 12 17 21 19 21 19 20 19 15 18 21 18 18 18 22 22 22 22 21 22 26 26
29 30 28 26 29 28 25 19 20 22 22 16 20 18 16 14 11 11 9 8 9 7 8 12 9 6 7 14 14 11 18 22 23 17 17 18 19 20 22 23 21 20 23 17 22 24 26 26 23
31 30 26 24 29 29 27 21 21 24 22 13 15 17 15 14 9 10 9 6 5 5 8 10 8 4 9 13 16 19 19 23 23 26 21 20 23 25 23 24 23 21 25 23 25 25 31 25 22
33 31 27 26 32 31 28 19 15 20 17 14 16 18 16 12 10 9 10 6 5 6 6 7 6 7 2 7 13 17 24 30 28 29 24 23 26 29 29 28 30 27 27 26 27 28 25 21 22
37 29 31 30 34 31 30 18 8 18 19 15 17 20 19 12 10 8 9 7 4 5 7 6 3 2 3 2 1 5 13 23 29 28 26 27 30 31 32 33 32 30 30 25 25 24 22 20 22
32 33 36 36 37 36 24 29 10 12 14 15 15 20 23 17 13 12 7 8 6 3 4 5 5 1 1 1 3 5 4 7 25 25 25 24 21 22 31 28 27 27 28 25 25 22 22 24 24
37 37 37 38 39 38 21 30 7 9 15 14 12 18 22 21 15 11 9 11 9 5 6 7 6 5 1 3 2 3 2 5 9 13 13 12 12 11 11 12 16 17 20 22 24 26 27 26 26
40 38 37 39 40 33 26 31 17 11 17 15 14 16 21 22 19 14 14 12 12 9 6 10 9 7 4 3 4 5 5 7 9 9 10 13 12 13 15 17 17 19 23 25 28 26 27 28 26
37 38 40 40 39 35 29 35 19 12 16 17 11 15 16 22 23 22 21 17 12 11 8 8 8 8 6 6 5 5 6 7 8 9 11 13 13 16 16 17 17 20 21 23 22 23 26 26 26
38 43 34 38 41 40 38 33 24 17 18 17 14 16 18 20 22 20 17 17 14 13 14 13 13 11 12 12 11 10 7 6 7 8 9 11 15 17 17 17 19 21 22 22 23 26 28 29 31
37 35 38 42 42 41 41 35 26 17 21 17 13 17 21 20 20 20 16 19 15 15 16 17 16 16 17 16 15 14 13 13 11 10 11 14 17 19 20 22 23 23 25 23 25 28 30 31 33
32 34 35 38 41 42 41 38 28 18 16 14 13 20 21 22 20 26 23 22 20 17 16 16 16 16 18 18 19 19 18 18 18 17 20 19 21 25 26 27 26 27 26 31 37 34 36 33 39
39 38 38 41 41 43 42 41 36 22 20 17 17 19 21 24 24 25 27 26 25 23 23 20 19 18 17 20 23 21 24 22 22 23 20 19 22 26 29 32 33 34 33 31 33 39 45 47 54

GFSSGP_500_spd_078.txt.gz
Wind_Speed
31 31 28 26 23 23 23 22 20 23 23 25 23 23 24 24 25 23 25 25 26 24 26 30 30 35 40 41 35 35 38 26 26 21 21 25 25 26 23 22 21 18 19 21 18 12 10 9 8
31 29 26 24 22 20 23 20 22 22 22 22 22 22 23 24 25 25 26 27 26 27 26 30 33 33 33 37 40 33 31 31 28 19 16 23 24 34 25 20 25 25 23 20 17 14 12 11 11
30 26 24 24 21 17 18 20 22 23 21 20 21 22 24 25 25 26 27 26 23 26 31 34 34 30 27 31 26 33 33 30 33 29 23 21 30 29 26 22 29 28 23 19 17 15 13 13 13
26 24 24 24 22 14 16 20 22 23 20 19 20 21 25 25 25 26 25 25 27 27 28 31 36 33 32 27 41 38 38 38 34 30 32 23 28 38 31 29 31 27 23 20 18 17 15 14 14
25 27 24 22 18 14 17 20 23 22 19 18 19 21 23 24 26 25 26 27 29 27 28 27 26 26 26 24 22 16 23 32 35 31 27 27 29 36 29 34 31 28 24 28 23 19 16 15 15
27 26 22 21 15 15 17 20 21 20 20 20 19 19 23 25 23 27 25 27 26 27 29 22 22 30 29 34 26 25 28 27 22 32 32 28 29 35 39 36 36 30 27 26 24 19 17 17 17
27 24 22 19 16 16 18 21 20 18 20 20 19 19 21 27 25 25 25 26 19 22 28 24 19 22 20 20 20 18 27 26 24 24 30 33 30 34 32 44 38 31 31 28 24 21 18 18 18
27 23 23 17 16 18 18 22 21 19 19 20 19 19 21 22 22 23 23 23 20 22 26 23 13 21 22 20 19 19 22 26 23 24 30 37 31 32 36 29 34 33 33 29 26 22 18 18 18
26 22 20 16 16 18 18 23 22 20 21 21 18 20 21 22 28 26 21 19 17 15 19 20 9 13 19 24 22 23 22 24 23 19 23 33 34 30 35 28 39 36 35 30 27 21 20 19 17
24 22 19 16 18 18 19 20 21 21 22 22 19 19 21 23 24 19 21 17 15 12 9 15 12 5 13 18 20 19 20 19 18 23 21 31 27 30 31 29 43 40 35 33 29 25 22 20 20
24 21 20 18 20 19 19 20 20 21 20 21 21 22 21 19 20 22 18 17 17 15 16 11 11 11 13 12 14 16 16 18 22 25 37 42 39 33 30 36 46 42 36 33 30 27 25 22 22
22 22 21 23 22 21 20 19 19 22 21 17 20 19 18 22 21 20 16 16 20 23 19 16 15 15 15 14 12 16 19 23 23 35 37 44 38 30 36 36 41 44 35 38 32 29 26 23 23
21 24 20 24 23 22 19 18 18 23 21 17 19 20 24 24 23 19 16 15 17 23 22 21 21 19 18 17 17 17 21 22 16 31 42 49 45 44 43 34 42 51 44 40 33 29 30 28 26
24 24 19 21 25 20 18 18 20 22 20 20 20 21 23 21 23 20 15 13 19 19 20 20 22 22 21 20 20 21 22 19 11 28 39 40 42 42 35 34 38 50 46 45 40 32 28 29 29
25 23 22 20 25 21 20 18 19 19 22 21 20 20 19 22 21 19 17 15 17 14 17 16 17 18 19 20 23 23 24 19 18 23 38 41 48 40 39 35 45 46 51 49 42 34 30 29 37
26 24 22 21 27 24 21 19 21 21 24 22 22 24 16 20 21 18 18 14 13 12 17 17 17 19 21 22 23 23 24 24 19 32 30 34 41 36 40 39 44 39 51 45 40 38 34 35 38
27 23 23 26 30 28 22 18 23 21 24 21 21 22 19 18 21 18 17 16 10 11 12 13 17 21 22 22 21 21 23 22 19 19 34 31 39 36 31 35 27 35 28 28 39 33 33 33 34
28 25 28 28 33 30 25 20 21 18 21 20 21 22 18 14 20 18 16 14 11 10 11 14 17 19 18 16 16 21 21 19 17 12 14 27 24 27 18 18 24 22 21 23 36 31 26 26 24
35 29 30 30 33 29 29 25 19 18 17 19 21 19 18 12 18 18 15 11 8 9 7 6 11 11 9 14 13 18 20 15 13 14 19 16 13 19 20 15 16 14 16 19 23 27 27 26 26
37 32 28 32 35 33 30 25 23 20 18 18 17 17 18 15 17 17 15 8 5 5 2 5 8 4 7 8 12 13 11 15 18 20 15 19 15 12 14 13 17 16 18 19 23 25 26 26 26
38 34 28 34 38 36 34 24 26 19 16 15 18 19 18 19 16 16 14 7 5 4 3 5 6 4 5 14 13 19 20 16 18 20 17 14 13 15 16 19 20 19 22 22 26 26 26 28 24
40 32 34 37 41 38 38 26 21 13 17 20 18 18 19 20 16 16 15 8 5 5 4 3 4 4 2 2 4 7 16 20 21 22 18 18 21 17 19 23 25 25 24 24 27 27 27 27 24
37 38 37 41 41 41 36 33 23 14 16 21 18 15 17 20 16 17 15 12 7 6 5 3 3 2 2 2 1 1 3 10 21 28 25 23 22 21 23 29 31 31 29 28 29 30 27 25 24
41 40 40 39 39 44 32 38 19 15 16 20 18 16 14 18 17 15 11 15 12 9 8 7 6 5 4 3 2 1 1 3 4 16 19 20 25 24 23 22 25 25 24 24 25 26 23 21 24
45 42 41 39 41 43 36 40 21 19 17 18 17 18 15 18 17 15 13 18 17 12 10 10 9 7 5 3 3 3 3 4 4 6 7 6 10 14 15 15 15 15 14 15 18 18 18 25 24
43 42 43 43 42 41 42 42 30 19 19 18 16 17 15 14 17 19 18 18 22 13 12 11 7 6 5 4 2 4 5 6 8 10 12 12 11 13 14 14 14 13 12 14 16 20 22 25 27
42 46 42 44 47 46 42 43 33 21 23 19 18 18 14 16 18 18 18 14 16 14 15 15 12 10 9 10 8 6 6 6 7 8 9 10 14 16 17 17 18 19 19 18 19 19 22 28 28
43 42 42 43 44 45 43 40 36 21 22 19 18 18 17 20 20 18 18 15 16 17 17 15 16 14 14 15 15 13 10 10 9 11 13 14 16 16 17 19 21 23 22 21 23 24 26 27 28
35 40 39 41 43 40 38 27 36 19 20 17 16 18 19 23 26 24 22 22 19 18 18 15 14 16 15 16 16 15 14 14 13 13 14 14 13 18 20 23 24 24 26 27 28 28 30 32 36
34 36 36 40 38 39 39 36 40 23 24 19 16 20 21 23 25 27 25 23 25 23 21 18 17 18 20 20 20 18 19 20 21 19 19 19 17 18 19 22 27 30 31 31 31 35 36 40 38

GFSSGP_500_spd_081.txt.gz
Wind_Speed
30 30 31 30 25 21 19 25 19 23 23 23 25 25 25 24 24 25 27 31 30 28 23 24 24 23 24 28 33 37 33 36 38 23 26 29 29 31 30 33 27 26 26 23 19 17 15 15 14
29 29 29 27 21 14 13 31 22 23 23 24 25 27 25 21 23 29 29 28 27 24 24 25 27 28 27 26 27 30 34 35 36 31 28 25 28 30 28 34 28 24 23 20 20 19 19 22 19
29 28 26 25 23 17 14 32 24 27 23 24 26 25 22 22 23 26 27 26 25 25 25 27 31 32 32 28 29 32 34 34 39 31 27 21 29 28 29 34 26 27 22 22 22 24 23 19 16
27 28 25 25 23 24 19 27 24 26 24 23 25 25 23 21 22 24 26 26 26 27 27 30 32 33 36 35 32 30 34 43 41 32 33 25 25 32 32 36 28 23 22 24 22 21 20 18 16
26 27 25 27 23 27 19 22 24 24 24 25 25 24 21 20 23 25 25 25 27 26 30 33 38 36 36 42 32 43 30 38 34 38 27 27 28 33 36 32 26 27 27 24 23 22 20 18 18
26 24 23 19 17 28 20 19 24 22 25 25 26 23 23 21 24 23 24 25 25 24 26 30 34 34 26 24 30 32 30 33 39 38 29 29 30 31 34 43 31 29 31 27 26 24 23 21 18
26 24 22 21 21 30 23 21 23 22 23 26 26 24 23 19 22 20 24 27 26 24 23 28 31 29 25 27 33 34 29 25 15 18 35 36 35 31 31 29 29 30 34 32 29 26 25 21 19
27 25 23 21 23 24 25 22 23 22 24 24 26 22 22 21 21 24 29 26 23 20 20 24 25 24 17 19 21 21 18 19 15 20 20 32 31 32 28 33 35 36 41 38 29 29 26 22 19
27 26 22 18 23 23 26 21 26 22 23 24 23 21 20 21 21 22 24 25 23 17 16 15 17 20 16 17 19 16 18 17 16 22 24 20 29 30 32 40 35 41 42 39 32 31 28 22 21
27 27 21 22 25 25 27 20 24 25 23 25 21 18 22 22 19 19 25 25 21 14 13 15 14 16 14 18 19 20 20 22 22 24 23 21 28 37 35 34 35 43 40 37 36 31 29 25 23
28 25 26 26 24 26 28 21 24 25 25 22 21 21 20 21 20 22 25 25 20 16 16 17 18 16 15 13 17 23 24 25 25 26 24 23 21 39 39 36 34 32 39 37 37 32 31 29 25
33 26 29 26 25 25 29 25 24 25 28 22 18 19 20 21 23 24 23 22 23 18 18 18 19 20 17 16 14 20 25 26 25 26 26 29 32 41 38 40 38 32 40 41 40 35 35 33 28
35 28 30 27 26 25 28 25 21 25 25 23 20 18 19 20 19 19 20 20 22 20 22 21 19 19 21 18 17 19 22 24 25 29 30 28 26 33 30 40 37 37 40 47 42 39 37 35 31
33 31 29 28 27 25 23 22 21 26 24 24 24 19 21 20 16 16 19 19 17 18 20 20 18 19 19 22 20 23 25 25 27 25 26 37 42 51 42 49 48 41 34 46 46 41 37 35 32
35 32 29 27 27 25 23 19 23 24 24 24 24 23 22 20 16 14 17 19 18 16 17 18 18 18 17 19 22 23 24 28 29 26 23 32 35 40 48 49 43 36 35 35 48 44 38 37 32
34 33 29 24 28 26 26 17 28 23 24 24 23 24 23 20 15 11 15 18 18 16 16 18 21 21 21 22 24 22 24 26 28 29 20 22 33 45 51 40 41 43 40 40 48 50 46 43 36
36 30 28 25 26 30 27 21 20 23 25 23 22 23 22 21 16 10 13 18 18 17 15 15 18 23 25 25 25 24 25 25 25 29 21 18 24 39 41 31 36 44 36 42 38 48 51 47 38
29 30 28 25 22 33 30 22 25 26 24 23 22 25 23 19 17 11 12 15 17 16 13 14 16 21 24 23 21 22 18 20 17 23 12 22 38 39 38 42 34 33 37 38 33 35 43 39 42
31 32 27 21 25 38 30 29 25 24 21 22 22 24 24 19 16 13 12 14 14 12 13 13 16 20 19 14 16 18 13 16 14 21 15 11 24 27 26 24 24 23 24 26 28 33 33 34 31
38 37 32 26 33 40 31 33 27 24 21 21 25 25 24 20 16 14 12 12 14 10 8 10 11 11 8 8 11 13 12 14 15 17 13 15 10 14 19 17 15 17 15 16 22 20 24 27 26
41 39 30 29 33 47 32 34 28 24 22 25 26 23 22 20 15 12 11 13 14 10 7 8 9 8 8 10 11 9 11 8 11 14 16 19 15 14 12 15 11 10 14 18 19 21 22 22 25
43 36 32 35 40 43 34 35 26 25 19 26 25 25 21 17 12 12 9 12 13 11 8 7 7 7 7 8 8 11 12 15 17 17 16 15 12 10 11 13 13 14 16 15 17 18 23 23 24
40 36 36 39 43 43 37 38 27 27 23 25 26 24 22 15 10 12 9 11 11 12 10 9 8 6 7 8 9 8 7 2 6 15 20 19 16 15 17 16 17 18 21 22 21 20 20 23 26
40 41 41 42 42 45 38 35 31 24 23 23 27 25 23 17 13 12 9 9 8 8 10 10 12 10 6 6 7 9 8 7 3 7 17 21 20 18 20 20 19 20 19 23 23 21 21 22 18
49 44 44 43 44 46 36 36 33 26 26 25 26 25 24 18 16 13 12 14 13 14 11 10 10 12 10 6 6 7 7 7 6 2 6 9 11 13 11 10 14 14 17 21 19 17 20 16 16
48 48 44 39 34 33 30 40 32 31 27 26 24 27 24 19 16 16 17 15 18 17 13 11 9 6 7 7 4 6 8 7 6 4 2 7 9 8 8 9 10 11 10 11 12 18 18 18 20
51 54 45 37 34 34 29 20 28 22 25 26 24 26 24 22 19 18 16 16 17 16 14 10 11 10 9 9 10 10 10 9 8 7 7 8 12 14 14 12 13 14 14 15 14 16 16 17 18
51 48 48 50 45 45 42 28 22 21 23 27 21 24 25 20 21 19 17 17 16 15 13 12 11 11 9 11 11 11 13 11 9 11 11 12 14 14 16 16 18 19 20 20 20 21 21 22 21
43 46 45 38 40 37 31 24 22 21 23 20 24 23 23 20 22 23 22 19 18 17 17 16 14 13 12 11 12 12 11 12 13 14 14 15 13 14 16 18 22 22 22 24 25 24 25 26 26
27 35 38 36 30 27 33 26 21 26 23 25 21 18 22 21 24 26 26 24 22 21 22 21 19 19 16 17 15 15 15 12 15 18 19 20 18 16 18 18 20 21 24 28 28 29 29 30 31

GFSSGP_500_spd_084.txt.gz
Wind_Speed
25 27 27 25 27 22 15 13 28 26 27 23 24 27 27 27 30 33 29 29 32 32 26 26 25 23 23 26 27 28 29 31 31 33 33 31 33 31 36 33 29 31 34 27 28 26 24 23 19
26 28 27 25 21 17 13 22 33 39 31 28 26 25 27 27 30 25 22 25 26 25 22 22 24 24 25 25 26 29 31 29 28 32 37 34 32 33 33 37 32 31 31 29 27 26 24 21 18
26 28 27 24 21 16 5 29 35 36 32 28 26 26 25 27 23 25 22 23 20 21 21 22 26 27 30 28 28 30 32 31 30 32 32 33 29 30 32 34 34 33 32 28 26 25 23 19 21
28 26 26 23 21 11 23 30 32 30 32 25 24 28 27 20 24 24 24 26 21 21 24 24 27 29 31 33 33 35 34 36 36 35 37 31 32 29 33 32 30 35 35 32 30 26 24 23 24
29 28 24 23 19 18 30 23 24 29 32 28 24 24 30 22 23 21 25 22 21 22 26 25 27 28 29 32 33 38 40 40 31 38 35 33 29 24 33 32 32 36 33 34 30 25 25 23 21
29 29 25 21 6 16 36 32 21 27 28 27 25 23 27 27 22 21 24 23 25 25 26 29 30 27 28 27 36 35 34 45 42 26 34 36 30 28 34 35 35 38 34 25 23 27 22 20 20
30 32 25 21 17 15 33 34 21 27 25 25 25 25 28 22 21 21 22 22 24 23 25 27 26 25 21 25 29 27 30 28 35 36 40 39 30 33 31 35 28 26 29 30 28 29 26 21 21
31 33 29 22 19 16 20 36 22 26 26 24 26 23 28 25 21 22 21 19 21 23 24 23 20 20 17 22 22 19 32 26 25 23 34 33 29 31 34 33 29 33 36 31 32 30 30 25 23
32 34 29 21 14 17 30 34 25 27 25 24 28 23 25 22 22 26 17 21 21 21 21 19 15 17 17 21 20 19 13 16 20 22 30 31 32 35 32 37 33 31 25 34 35 36 34 25 25
34 34 26 24 17 30 31 37 24 30 28 26 29 28 22 22 21 24 22 17 24 20 20 18 17 15 18 16 18 13 16 18 19 24 19 18 23 26 27 30 37 35 34 35 38 41 36 28 27
33 35 26 28 30 32 29 31 30 29 28 26 27 27 30 19 23 26 27 24 24 21 20 19 19 20 16 16 16 16 17 18 19 17 22 21 21 23 20 23 31 37 34 39 42 42 36 32 30
39 36 30 31 34 33 27 29 30 29 30 30 26 26 25 30 24 26 22 20 19 21 22 20 19 19 18 16 14 16 19 23 23 20 20 19 21 20 25 27 26 32 41 39 44 44 35 35 32
43 38 32 33 35 34 30 29 29 27 29 27 26 26 25 25 26 24 21 19 17 20 22 21 20 19 18 16 15 15 15 19 21 20 22 23 25 30 22 29 33 35 31 31 39 40 37 37 36
40 40 37 35 35 33 32 30 31 21 29 24 25 26 28 26 27 25 17 19 16 16 18 21 20 17 17 16 18 19 18 16 21 24 24 25 28 30 30 34 41 37 37 35 33 40 39 39 40
43 47 39 36 32 33 31 31 26 22 27 24 25 25 29 26 25 23 15 17 17 18 17 19 18 15 17 18 17 19 22 21 22 26 25 27 31 34 34 34 41 38 37 37 38 43 44 41 43
49 45 43 30 33 30 33 28 25 25 27 22 23 24 28 24 23 23 15 15 13 15 16 19 19 19 18 19 21 21 22 24 24 24 25 28 32 30 34 41 44 40 39 46 38 35 49 46 45
51 45 39 32 32 29 34 27 23 28 25 20 22 26 26 21 22 24 15 13 12 14 15 18 19 19 21 21 24 24 25 27 29 25 24 24 30 23 33 48 51 51 44 42 45 39 39 40 49
45 43 37 35 23 26 31 30 24 26 24 23 21 24 25 23 20 23 16 12 10 13 16 18 20 20 23 22 19 23 25 22 27 23 25 18 28 20 24 28 28 40 37 41 40 38 39 39 43
45 44 40 34 18 20 33 33 26 25 25 25 24 22 24 23 23 20 17 12 8 11 15 18 17 18 22 21 13 14 16 18 21 16 27 24 25 22 16 23 27 33 37 34 38 38 39 34 34
51 46 41 36 25 25 33 38 29 28 23 22 23 23 26 25 23 18 18 12 7 11 13 14 14 16 19 16 8 8 12 13 16 14 5 16 15 19 23 33 35 36 33 32 32 34 30 21 26
54 45 42 38 31 31 31 41 31 28 24 25 24 22 21 23 25 18 16 12 6 8 11 13 12 14 16 16 12 6 7 5 5 9 7 11 14 15 21 27 28 29 26 24 20 18 16 23 28
52 44 44 40 37 39 26 40 31 28 21 24 17 21 21 19 24 19 15 12 6 7 9 12 13 14 12 12 13 10 8 9 12 13 12 10 17 12 14 18 14 11 13 7 7 10 16 20 24
54 46 42 45 40 39 39 46 32 23 24 22 27 25 21 20 20 19 16 14 7 7 8 8 11 12 13 10 9 9 7 5 5 11 18 14 14 12 10 9 4 7 8 9 9 12 13 12 16
44 48 49 45 41 48 41 45 36 27 22 19 22 28 23 19 18 18 14 15 10 6 5 8 9 12 12 10 8 8 8 7 4 5 14 18 17 12 15 13 14 12 14 13 15 15 16 18 20
44 44 43 40 42 45 37 40 35 27 22 21 25 30 23 21 20 18 14 19 15 10 8 7 8 10 10 9 7 6 7 8 7 6 5 17 19 20 18 18 19 19 18 18 17 16 19 21 19
48 45 37 42 38 38 36 40 35 29 28 27 30 29 26 26 20 20 15 23 19 15 14 13 9 8 8 8 6 6 7 8 8 6 1 5 11 14 14 13 14 13 12 14 19 22 22 22 21
46 47 37 36 36 36 36 29 26 28 25 23 28 34 26 28 23 19 19 22 22 17 15 11 9 8 8 9 11 12 12 9 6 6 5 2 5 7 9 10 11 13 14 16 17 16 17 20 20
45 36 39 44 33 30 28 25 26 18 16 22 24 30 33 27 24 21 20 20 21 18 15 13 11 10 9 10 10 9 9 10 10 10 9 8 8 8 9 11 13 14 13 14 14 15 17 17 18
45 43 43 43 44 35 31 28 27 23 26 26 29 32 32 28 23 22 21 22 24 20 16 15 13 13 13 13 12 11 11 10 12 13 12 13 13 12 12 13 15 14 16 17 15 19 20 20 22
28 31 40 38 42 47 21 31 38 33 31 31 29 29 30 26 25 22 23 25 26 25 21 19 18 16 16 17 16 15 15 14 14 14 15 15 13 15 17 16 15 17 16 17 17 21 24 23 24

GFSSGP_500_spd_087.txt.gz
Wind_Speed
24 25 25 22 20 17 18 21 14 21 23 23 23 32 29 29 29 30 28 26 25 27 28 26 26 26 27 25 25 23 23 24 28 30 31 34 34 33 33 34 35 31 32 28 25 23 24 26 26
26 27 26 25 20 16 21 25 15 24 30 28 33 30 29 32 27 22 18 22 23 25 25 23 26 25 25 26 25 26 25 26 29 32 32 32 32 28 30 31 35 33 31 31 30 27 26 28 25
27 26 27 25 20 15 23 21 25 24 23 28 30 28 29 27 25 21 17 20 24 27 26 28 28 25 25 26 28 28 28 28 30 34 34 34 33 33 29 31 32 36 33 30 33 33 29 28 26
27 26 27 24 19 18 16 20 25 22 28 26 26 29 27 24 22 22 21 23 24 25 25 27 27 26 28 28 29 25 29 31 34 36 37 35 33 27 32 32 34 35 34 32 34 34 30 31 27
26 28 27 24 19 19 18 21 17 23 33 33 21 25 31 21 22 20 23 23 21 25 26 25 24 24 27 29 28 27 27 30 38 40 40 31 33 28 32 35 33 34 34 33 36 36 33 29 25
27 29 28 23 22 25 30 20 24 32 28 37 27 24 32 22 20 23 21 24 24 26 25 24 25 23 23 25 25 25 26 31 34 41 44 42 33 39 34 34 34 32 36 35 36 36 37 34 24
29 31 28 25 21 23 22 28 30 27 19 28 29 24 28 23 21 23 26 25 26 26 23 22 23 23 19 19 22 21 23 24 25 25 40 44 38 42 33 29 34 36 34 35 36 39 39 34 27
32 36 33 23 19 15 23 28 33 31 24 24 27 28 31 24 24 23 23 23 29 28 23 20 20 20 16 15 17 17 17 20 19 22 26 53 42 31 36 32 28 33 38 39 35 36 26 25 30
36 40 35 20 20 24 22 24 35 30 20 24 26 26 32 21 26 26 23 24 29 31 25 20 17 19 17 17 16 18 19 14 14 21 29 36 35 30 34 35 36 38 34 44 46 30 28 32 35
40 39 31 25 23 29 26 28 36 31 28 23 27 28 26 25 23 27 24 24 29 32 29 21 17 19 20 22 17 14 14 13 9 15 25 41 43 38 30 34 33 37 32 29 29 32 31 34 35
37 41 33 30 29 35 36 30 38 35 29 27 27 30 31 28 27 25 28 24 23 23 22 20 18 18 18 19 16 14 12 14 12 12 15 32 34 30 31 32 29 33 34 32 24 29 27 34 37
42 40 38 32 32 36 40 30 33 38 25 28 29 29 28 32 31 28 29 28 19 20 22 22 19 18 19 20 16 14 12 13 17 14 22 22 22 25 22 24 30 27 35 32 32 31 32 38 40
45 43 41 38 37 38 40 35 29 35 28 28 30 27 21 28 35 32 30 31 22 19 21 22 18 18 19 19 16 14 14 11 14 17 23 21 21 22 26 20 30 26 29 37 35 32 37 41 42
44 46 45 43 43 37 41 38 33 28 29 29 29 26 23 26 29 30 26 28 22 18 20 20 18 17 20 17 16 15 16 16 14 15 20 20 20 21 25 25 26 30 26 31 33 38 37 41 43
47 49 48 50 47 40 40 42 33 24 32 30 26 25 24 26 26 27 23 24 24 13 17 18 19 16 16 16 17 17 16 19 19 20 20 22 21 23 28 27 27 30 36 33 30 28 32 33 39
51 53 52 50 42 39 41 40 28 25 31 28 24 25 20 24 26 24 21 22 21 14 15 16 15 17 17 17 19 22 18 17 18 21 22 22 23 27 29 32 37 36 36 34 33 32 30 33 38
53 53 50 46 42 39 37 37 25 28 33 31 25 22 21 17 24 23 18 21 18 15 12 14 15 16 18 18 19 20 24 23 20 21 22 24 25 28 26 33 37 38 36 39 37 35 36 35 38
47 52 50 47 37 37 36 40 29 31 31 30 23 20 21 21 16 19 17 20 16 13 11 11 12 15 16 17 17 17 20 22 23 23 25 26 29 29 24 28 33 36 37 40 36 38 38 43 37
50 59 57 49 42 34 37 41 34 29 29 28 23 20 21 23 17 12 17 18 15 12 10 7 11 13 13 18 17 13 16 17 17 20 20 22 25 29 22 20 25 38 44 44 43 47 38 35 39
56 52 54 53 36 36 33 30 28 34 30 27 24 20 18 19 20 12 12 16 13 10 8 6 8 11 13 14 17 9 8 8 9 11 12 16 25 26 22 25 30 29 39 47 35 37 28 35 35
49 48 50 50 35 45 46 33 34 34 28 25 22 18 19 20 25 17 9 15 13 10 9 6 7 9 11 12 13 7 6 6 6 9 14 17 23 25 14 21 25 31 34 26 28 32 37 38 37
48 45 55 54 47 47 45 47 34 32 29 27 23 20 18 17 24 19 9 16 15 12 11 7 7 8 9 12 12 9 5 4 4 8 13 11 11 12 11 20 29 30 33 35 36 34 36 33 27
45 49 56 59 48 50 50 52 40 28 32 29 27 20 19 19 22 20 11 16 15 15 12 8 5 7 8 9 11 10 7 6 6 5 9 10 9 11 9 11 14 15 21 21 13 16 18 16 13
44 41 52 49 49 50 46 52 48 36 25 18 20 20 20 15 20 17 12 15 15 17 12 8 5 6 7 7 8 10 9 7 8 7 7 11 10 8 10 10 9 5 9 11 11 14 16 17 15
33 40 38 42 44 49 46 50 48 31 28 22 28 25 20 19 21 17 12 15 17 17 16 11 7 6 7 4 4 4 6 8 7 7 6 8 15 16 13 14 18 17 19 21 22 22 21 19 19
40 40 41 46 54 50 43 50 44 25 26 24 25 20 24 25 24 18 14 14 18 18 21 16 12 10 7 4 4 2 5 6 7 5 4 4 9 15 17 18 19 21 20 23 23 23 23 23 22
38 45 37 40 43 45 42 44 26 28 27 25 28 30 25 26 27 22 18 16 18 17 21 21 13 13 10 8 8 8 6 5 4 5 3 1 3 5 6 8 10 11 14 16 16 16 18 19 21
31 43 39 40 31 37 36 31 27 21 21 27 29 32 31 33 30 29 22 18 20 18 21 20 16 16 13 12 11 8 6 5 4 3 3 4 4 5 7 8 9 11 12 13 14 14 15 16 15
33 40 45 44 38 33 33 32 34 31 32 35 36 36 33 31 30 28 25 19 22 22 21 21 18 18 16 16 15 11 9 7 7 7 6 5 5 7 8 8 9 10 13 14 16 17 17 17 19
44 38 32 35 37 36 32 26 41 42 41 32 35 37 34 31 31 32 29 22 24 24 24 24 21 20 19 19 18 17 14 12 10 12 11 10 9 9 10 11 11 11 14 14 15 17 19 17 18

GFSSGP_500_spd_090.txt.gz
Wind_Speed
22 22 22 19 18 20 24 26 26 26 21 10 13 21 28 29 25 27 28 28 26 24 25 27 29 30 29 28 25 26 26 26 26 28 28 29 31 35 36 33 33 31 30 29 27 25 23 21 20
24 23 24 20 19 19 24 27 27 25 17 12 17 24 28 25 23 24 25 26 27 24 26 28 29 29 29 27 25 26 25 25 27 28 29 30 32 33 35 35 33 33 32 29 29 28 25 22 21
25 24 26 21 17 19 25 31 27 24 18 13 19 23 25 20 24 23 24 23 22 24 25 27 28 30 31 30 28 26 27 29 31 30 31 33 34 36 37 34 31 31 32 33 31 33 30 24 23
27 27 30 21 18 22 24 30 28 27 22 15 18 27 23 20 23 23 24 25 23 24 23 26 26 26 29 29 30 30 29 30 28 28 31 34 36 40 40 34 29 32 31 34 31 32 31 30 29
31 30 31 22 19 24 26 30 28 25 29 22 18 25 23 22 25 26 25 24 25 24 25 26 26 24 22 24 26 30 28 26 31 31 35 36 36 32 43 33 32 29 31 33 32 30 31 33 31
35 35 33 25 21 27 26 30 33 26 24 28 26 25 24 19 26 26 26 25 26 26 28 29 26 24 21 22 23 23 23 27 30 34 35 36 39 32 34 37 33 28 32 28 33 31 33 33 33
37 39 37 30 19 24 27 34 35 29 20 28 26 28 27 21 23 28 25 26 28 27 30 28 26 24 21 17 15 19 19 25 29 28 32 39 42 30 27 37 33 33 36 28 31 33 35 39 34
39 43 40 28 22 19 37 37 34 25 26 27 23 26 26 22 21 28 27 26 28 31 31 28 25 24 21 17 14 15 19 22 23 26 27 36 36 41 40 35 37 31 35 30 30 34 38 38 35
43 43 38 23 26 24 36 39 37 33 33 26 21 24 27 25 21 25 25 25 29 35 34 29 24 23 22 19 18 18 20 19 21 22 22 30 29 39 44 28 29 33 36 37 34 34 36 35 39
44 41 37 26 28 31 38 40 40 37 38 28 24 27 24 26 27 22 23 23 28 36 35 28 22 20 23 22 19 18 20 19 16 20 18 18 29 39 38 33 36 37 32 40 36 33 35 40 35
40 40 36 31 30 35 41 42 41 39 41 27 25 27 24 25 28 24 19 22 27 33 33 26 25 22 23 21 19 18 20 18 14 17 12 14 22 41 37 33 34 30 33 31 35 34 40 40 25
42 40 38 33 34 40 43 41 43 37 37 30 27 28 26 27 28 24 17 20 24 30 28 24 25 21 21 19 19 19 19 18 15 13 12 8 30 38 45 36 26 28 29 32 32 28 28 28 27
44 38 39 38 38 42 45 46 42 39 35 33 29 32 29 28 27 27 19 19 23 27 26 23 21 18 19 18 18 18 18 18 15 9 16 11 23 32 37 33 27 33 32 28 33 34 34 27 27
42 42 40 43 41 44 48 47 43 39 30 36 33 33 32 28 26 28 22 22 22 25 24 26 20 17 19 17 16 16 18 17 18 13 11 16 16 16 20 27 23 24 29 30 32 34 34 33 30
41 42 43 45 43 45 47 48 44 41 31 32 34 33 33 26 28 27 25 22 22 23 25 27 20 16 16 16 15 16 18 18 18 18 15 13 15 16 21 25 27 23 30 27 28 31 33 33 32
43 47 48 43 41 44 46 46 42 40 35 32 33 36 32 26 26 25 23 18 20 20 24 25 18 17 16 14 15 15 17 18 20 18 19 16 17 18 18 22 22 28 27 32 31 28 28 35 34
45 48 49 45 38 42 45 44 37 35 37 37 38 36 29 26 25 25 19 15 19 18 21 20 17 16 13 12 13 14 17 18 21 22 20 18 17 20 24 27 28 28 29 30 31 34 33 34 27
41 45 48 49 40 41 47 49 44 41 40 40 37 34 29 27 23 22 17 21 16 17 18 17 14 12 10 10 11 14 14 17 18 21 22 22 22 25 26 28 30 29 32 31 36 36 38 38 34
45 49 52 48 39 41 48 53 42 42 43 43 38 32 28 24 23 17 17 21 15 15 16 14 12 10 9 10 12 14 12 14 16 18 20 22 24 26 26 27 27 26 29 29 33 36 39 39 36
45 50 47 40 39 51 52 47 47 39 42 45 37 34 28 25 23 20 16 17 14 12 15 12 12 10 8 11 12 14 11 8 7 11 13 15 18 22 27 28 28 24 22 25 32 33 40 36 39
44 44 42 44 45 51 50 46 52 40 45 49 43 32 23 22 23 21 12 12 13 13 15 13 13 11 9 10 11 10 11 8 5 6 7 12 16 19 21 22 25 28 22 23 24 36 38 39 43
43 42 48 51 50 49 47 42 46 41 46 43 43 31 25 23 23 15 8 10 15 13 15 15 13 11 11 11 10 8 9 7 5 7 11 12 15 16 19 23 26 19 20 20 30 35 35 34 31
37 45 49 50 50 49 41 51 34 41 45 32 34 31 25 25 21 13 9 11 15 13 15 16 14 13 10 10 10 8 8 8 6 9 11 12 17 13 16 22 24 30 34 27 32 35 30 34 35
41 46 44 45 49 44 38 49 40 44 35 31 30 30 26 26 21 15 13 11 16 15 15 16 14 14 9 10 9 8 7 7 7 9 10 9 14 10 11 11 14 24 26 27 31 29 26 26 29
40 38 35 36 42 38 37 40 46 36 37 25 23 26 25 27 22 18 13 12 17 16 17 17 14 12 11 10 8 8 5 4 5 7 10 9 6 9 5 11 11 10 13 15 17 17 17 18 22
30 28 27 35 39 39 34 41 40 32 42 37 30 30 31 25 24 17 14 16 16 18 18 20 18 15 15 13 11 9 8 6 3 3 5 9 4 5 10 11 11 9 14 15 18 19 21 21 24
23 27 25 33 33 35 31 33 29 33 42 35 32 37 29 23 27 19 18 17 19 22 20 20 22 19 19 17 15 12 11 8 5 4 2 2 4 1 3 6 7 9 10 12 17 22 22 25 26
23 27 29 31 31 33 28 28 31 34 27 33 36 35 30 29 27 23 21 19 17 23 22 23 21 21 20 20 20 15 13 9 7 4 4 4 3 3 5 6 7 8 10 10 11 13 16 15 17
22 29 31 40 39 34 27 25 27 30 33 31 34 36 34 34 32 29 21 19 21 24 24 24 22 22 22 22 22 19 15 14 11 10 8 7 6 7 8 9 10 11 12 12 12 15 17 18 18
17 27 27 32 38 39 32 23 24 26 35 36 41 40 35 38 33 31 27 26 25 27 27 29 27 24 24 24 23 22 20 18 16 13 12 10 9 10 11 12 16 15 15 14 15 15 17 19 21

GFSSGP_500_spd_093.txt.gz
Wind_Speed
20 20 21 20 20 21 27 28 24 24 21 17 18 17 14 16 23 29 25 27 29 31 32 31 28 28 29 29 26 28 27 25 25 24 25 26 27 27 27 27 27 29 30 28 28 25 21 23 21
22 22 22 20 20 22 29 28 25 23 20 17 23 21 18 18 20 22 22 26 28 30 30 28 27 27 29 29 29 29 27 26 26 24 25 26 27 27 28 28 28 27 31 32 28 26 24 24 22
24 25 25 22 19 23 29 30 29 24 23 24 23 22 17 15 18 20 22 26 29 31 31 28 27 27 28 29 29 28 28 29 29 28 29 31 31 32 32 32 32 30 29 31 30 28 27 27 24
27 28 30 26 19 26 28 34 32 25 24 27 25 25 18 17 17 20 21 24 28 29 27 26 27 28 29 30 28 26 28 30 32 31 33 33 33 35 34 33 35 35 26 29 33 32 28 27 25
31 33 34 29 20 24 26 33 34 29 24 29 31 26 17 17 17 21 22 23 26 27 25 26 27 30 28 28 27 28 29 29 28 32 36 36 35 34 34 32 37 38 29 29 30 34 28 29 29
35 37 37 32 23 26 25 33 35 34 31 28 33 32 20 17 21 21 22 24 26 24 24 26 28 32 28 26 25 23 24 26 25 29 33 35 37 37 28 28 25 40 29 27 28 32 31 33 30
38 41 40 37 25 24 27 39 36 37 37 29 32 33 24 21 20 22 22 24 26 26 24 27 31 32 26 23 23 21 21 22 24 28 32 34 35 32 37 37 38 44 31 26 27 31 31 28 27
41 44 41 38 26 21 31 41 39 37 39 37 31 32 26 22 19 21 25 25 26 27 25 27 31 30 26 24 22 22 22 23 23 27 29 31 29 29 35 30 26 28 32 26 28 27 30 29 30
42 42 39 34 26 21 36 39 40 40 38 39 33 33 30 26 20 19 21 27 26 27 27 28 32 27 23 21 22 23 25 25 23 24 28 26 29 33 33 33 26 30 32 27 28 26 27 29 33
44 42 39 31 28 29 36 41 41 43 41 38 37 33 31 27 22 22 19 26 27 27 27 28 33 28 24 20 23 23 25 26 24 23 24 24 28 30 32 33 35 34 38 25 31 27 25 30 33
42 43 39 36 31 33 37 41 42 44 44 38 37 34 33 24 24 24 19 22 26 26 27 27 32 28 28 24 25 21 23 26 24 23 24 23 26 29 31 33 37 34 36 33 35 30 25 29 32
45 45 43 37 33 37 38 41 45 45 44 39 38 36 34 28 26 25 21 19 24 25 27 27 29 27 28 24 22 20 22 26 23 22 20 22 19 24 30 39 41 37 42 32 34 34 32 28 33
47 46 44 42 38 38 40 41 45 46 45 37 37 39 38 30 26 26 23 19 21 24 25 27 27 26 26 24 22 20 20 25 22 20 16 21 10 10 25 40 37 40 40 29 33 27 27 27 34
45 46 43 42 41 40 39 36 42 44 40 37 38 38 39 36 28 26 24 20 19 22 24 26 25 24 24 23 22 18 16 20 20 19 15 16 10 16 32 38 38 34 33 30 30 28 28 28 24
46 46 43 43 44 39 36 35 39 39 40 37 38 39 41 38 35 24 25 20 20 22 23 24 24 21 22 24 22 19 17 20 21 19 16 15 17 12 18 32 35 27 32 31 35 28 23 29 29
43 46 47 44 40 39 37 42 38 39 40 40 42 39 41 43 37 29 23 23 24 20 22 23 23 19 20 25 20 15 14 19 22 21 17 17 16 14 13 14 26 24 21 19 26 28 22 25 29
43 46 43 41 38 39 41 44 41 40 42 43 44 46 45 41 40 28 24 26 25 21 21 23 22 17 20 19 16 14 16 20 24 24 20 17 17 15 15 13 13 18 25 21 22 31 25 20 28
38 39 39 40 39 38 40 48 48 40 43 48 48 49 44 45 39 29 26 27 26 19 21 23 20 15 18 15 15 14 18 18 21 25 23 21 19 18 18 17 21 23 24 25 24 26 30 28 32
41 42 41 40 38 37 45 48 47 45 44 45 47 46 42 44 31 34 29 26 23 21 22 23 18 15 17 14 13 13 16 16 15 19 22 22 23 24 23 24 21 31 32 27 29 30 29 34 34
36 35 35 34 34 40 44 48 46 43 40 44 40 42 41 38 34 33 30 24 21 22 21 21 16 16 17 15 15 13 13 14 13 14 16 20 22 24 25 25 33 33 32 27 28 33 32 37 35
33 34 31 34 36 40 46 56 51 39 41 41 37 41 45 39 36 35 30 24 23 22 20 19 16 17 16 16 17 15 12 11 11 13 11 14 17 20 19 27 32 40 29 32 29 23 29 35 34
32 29 32 36 39 44 46 56 47 40 40 37 40 41 45 40 37 32 29 23 21 22 19 19 16 18 17 16 15 15 13 10 11 12 11 14 15 19 20 24 28 34 32 29 36 37 33 33 31
29 29 32 35 39 46 47 52 40 38 38 40 42 42 46 39 40 33 26 20 23 22 18 19 17 18 17 16 14 15 13 12 11 11 12 13 14 17 19 18 24 27 28 32 25 21 24 28 29
30 31 31 33 39 49 43 48 35 36 24 38 42 41 45 39 39 33 27 26 25 22 18 19 17 19 18 16 13 13 12 12 12 12 12 12 11 16 14 14 20 27 36 34 33 31 30 29 33
29 31 33 36 39 39 37 42 35 33 28 33 32 39 36 38 36 29 28 23 22 21 20 18 17 19 18 17 14 13 10 11 11 11 11 11 10 10 4 10 12 21 35 25 24 32 38 36 34
29 30 28 33 37 36 33 31 28 27 26 33 37 40 40 41 35 27 26 24 24 21 21 20 19 21 20 17 16 15 11 10 13 14 12 8 6 5 11 8 7 6 6 12 17 21 24 20 19
25 25 26 29 30 33 32 30 28 23 25 33 37 37 34 34 28 24 27 27 23 20 21 21 19 23 23 20 19 18 15 12 11 12 13 10 5 1 4 6 6 7 7 8 12 15 19 19 20
21 23 23 28 30 29 25 24 21 19 20 24 30 41 33 33 31 29 27 28 24 21 23 23 22 21 26 23 22 21 18 16 11 11 10 11 10 7 3 2 4 6 7 9 10 11 12 11 14
19 21 24 28 22 31 24 16 13 16 17 22 27 37 41 36 33 31 30 30 27 25 25 25 24 22 25 25 24 24 20 18 17 14 12 13 12 11 11 8 8 10 10 10 12 13 14 14 17
15 17 21 28 30 33 34 25 17 22 16 20 25 25 38 38 39 36 34 29 27 27 28 31 26 24 27 25 24 25 23 22 20 19 16 15 13 12 13 14 15 15 14 14 15 17 17 18 19

GFSSGP_500_spd_096.txt.gz
Wind_Speed
28 25 22 21 21 20 24 27 24 22 21 24 19 17 21 23 22 24 23 22 22 23 24 26 29 29 27 27 25 25 24 23 23 24 23 22 20 20 20 20 19 21 23 26 26 23 21 19 18
28 26 23 23 22 20 27 28 26 23 23 24 23 22 24 21 21 21 22 21 20 22 24 26 27 26 27 27 27 27 24 24 24 23 23 23 23 21 21 21 20 20 22 25 28 27 24 20 18
29 26 26 25 20 22 28 29 28 25 23 23 25 24 24 19 19 23 24 21 19 21 24 27 24 23 25 28 30 28 25 24 23 24 26 27 26 28 29 28 27 25 24 25 27 29 26 23 19
30 29 29 26 21 23 30 29 32 27 24 24 27 25 24 24 25 21 23 22 21 21 22 23 23 23 24 30 32 31 26 25 26 25 27 29 29 32 32 30 31 29 26 26 29 29 30 24 22
33 30 33 27 21 22 30 31 36 32 27 27 30 26 26 25 24 22 21 23 23 22 23 23 23 24 25 29 30 30 27 24 25 24 27 29 29 37 26 27 31 30 30 27 26 31 31 29 26
36 32 35 29 23 24 26 31 38 36 32 29 30 29 28 26 23 24 23 23 24 23 22 22 23 25 28 30 27 26 26 24 20 20 24 26 30 34 27 26 27 33 33 27 26 27 33 32 29
36 34 37 33 26 25 24 34 38 36 36 34 33 29 29 28 25 22 23 23 25 24 23 21 22 24 30 30 27 25 23 22 20 22 22 26 27 28 32 27 32 34 36 33 27 27 30 34 31
36 37 37 33 26 22 24 35 39 37 38 36 35 32 29 29 25 25 24 26 25 26 24 24 22 24 28 28 25 22 22 22 22 23 24 25 24 26 27 27 27 32 32 34 25 26 28 33 31
38 40 35 30 23 18 24 36 37 37 39 37 37 35 30 30 24 25 27 28 27 25 27 24 20 22 27 27 23 21 21 22 24 23 25 26 24 26 27 27 25 27 28 24 27 25 27 31 28
41 39 35 24 24 25 30 35 37 38 41 40 38 36 30 30 26 27 29 27 27 26 28 26 21 22 25 27 26 23 22 23 25 23 24 25 25 25 26 28 29 24 24 23 25 26 25 26 25
39 41 35 31 27 29 32 35 35 39 41 40 40 36 32 30 27 28 31 27 26 24 30 28 23 20 24 28 25 23 22 23 26 26 25 25 25 25 23 27 27 28 25 28 30 25 23 23 24
42 41 40 35 32 34 34 35 39 39 39 39 40 37 33 29 28 27 32 28 26 25 30 29 23 20 23 27 24 23 20 22 25 26 26 25 25 27 32 27 30 30 34 40 33 22 25 24 24
44 42 40 39 39 40 39 38 38 43 37 38 40 36 33 31 30 31 31 27 25 27 29 31 23 20 24 26 23 22 20 23 26 24 22 23 25 29 24 26 33 37 39 40 34 30 25 29 26
41 42 41 42 42 42 42 36 41 39 37 40 38 36 32 33 33 33 30 28 24 26 30 30 21 20 23 25 23 21 21 23 23 21 20 22 23 25 14 16 30 36 38 40 41 29 25 31 31
46 47 46 44 44 42 42 43 43 34 40 42 40 37 34 34 35 33 33 26 25 25 30 30 20 21 23 24 20 20 22 22 23 22 20 21 21 21 10 14 28 39 38 38 37 27 29 29 30
46 46 46 45 45 43 42 40 43 39 40 41 41 42 39 37 38 37 38 28 27 26 28 28 22 23 22 23 19 20 18 18 21 24 23 20 19 18 20 11 27 41 37 33 29 26 31 30 30
47 46 44 44 44 46 47 45 45 43 45 44 44 45 43 40 40 38 41 31 30 28 29 26 24 23 21 22 18 19 16 17 21 24 24 20 20 18 16 13 20 30 32 31 27 25 32 31 28
39 42 43 45 45 46 47 45 49 45 46 45 42 43 43 43 41 41 38 36 31 30 32 27 24 24 21 20 16 17 16 16 20 22 22 18 19 22 18 16 11 24 36 27 25 19 23 24 27
42 43 46 46 47 47 48 45 50 47 42 39 36 39 44 46 43 40 37 38 33 31 33 29 25 25 20 19 17 16 16 16 17 18 19 17 18 22 22 19 15 22 13 22 22 22 24 26 29
41 42 44 46 45 47 46 46 47 46 40 36 36 36 36 42 45 38 38 35 33 33 36 31 26 24 19 18 17 17 17 17 15 15 19 18 16 19 24 22 21 20 25 28 23 21 25 26 31
38 40 41 41 42 43 45 46 45 40 37 33 37 37 33 42 44 39 35 33 33 34 36 31 27 23 19 18 17 16 17 17 16 14 14 17 15 15 20 22 23 29 34 32 32 28 27 23 32
37 37 37 38 39 39 41 47 38 37 32 36 34 31 31 39 42 41 36 38 32 32 36 34 27 22 20 18 17 15 15 15 15 14 12 12 15 15 18 22 27 28 33 34 35 36 33 25 23
33 32 34 35 36 37 40 39 40 35 36 31 31 33 33 36 41 42 39 37 34 31 35 35 28 22 20 19 17 15 15 15 15 13 12 11 12 13 17 21 24 24 31 38 32 30 30 31 31
31 32 32 33 35 38 33 35 37 34 32 28 28 35 38 35 42 39 40 42 37 38 36 34 27 23 20 19 17 15 14 16 14 11 10 13 11 12 15 20 23 24 26 36 41 35 28 21 25
32 31 32 33 31 30 29 35 29 28 26 34 29 35 39 37 44 38 40 34 36 38 34 32 28 23 20 18 18 17 13 15 14 12 10 11 12 12 12 13 18 17 24 30 30 28 30 35 27
31 31 29 27 27 27 24 27 30 23 23 23 27 27 31 35 42 37 39 38 37 33 33 32 30 22 20 19 19 19 15 15 13 13 13 11 11 10 11 12 5 5 5 28 31 27 28 29 31
32 30 26 24 24 27 24 22 25 20 17 21 23 27 30 32 37 32 34 33 34 29 32 32 29 24 22 22 21 21 18 16 15 12 11 10 10 8 7 13 13 9 7 6 6 11 19 20 18
31 26 23 23 24 24 23 25 19 16 17 22 22 25 28 31 31 29 37 34 33 31 32 31 28 24 20 25 23 24 22 20 18 15 12 10 8 8 8 6 6 7 8 9 10 12 12 14 18
26 25 22 21 23 23 24 25 16 13 15 16 23 27 29 28 31 33 34 35 32 34 33 33 29 25 22 24 26 27 25 21 21 18 16 13 11 10 9 10 10 9 9 8 8 9 11 14 18
25 23 22 22 22 25 29 26 19 19 14 13 18 26 26 31 34 40 39 35 32 36 38 34 31 28 25 24 25 26 27 23 23 23 21 19 16 13 12 13 13 12 12 12 13 13 15 16 17

GFSSGP_500_spd_099.txt.gz
Wind_Speed
28 29 29 28 26 22 21 25 21 19 18 17 18 19 19 20 22 25 27 28 27 21 19 18 18 19 19 20 20 20 21 22 21 20 20 19 17 16 13 14 17 20 20 20 22 22 22 22 21
30 32 32 30 27 22 22 27 23 21 19 19 19 21 20 20 23 24 26 29 29 25 20 20 20 20 21 21 21 21 23 24 22 19 18 19 20 20 19 17 16 17 19 19 20 22 23 23 22
32 34 34 33 26 20 23 27 25 24 20 19 20 22 21 21 23 23 25 29 29 26 22 21 21 22 21 24 25 25 27 25 21 18 20 21 23 25 24 23 20 19 20 20 20 22 23 24 24
33 36 36 35 23 21 24 28 27 27 23 21 22 22 22 21 21 22 24 27 27 26 25 21 21 22 22 22 25 27 28 25 20 18 20 25 24 25 27 28 24 22 24 24 23 22 22 25 26
36 38 39 35 24 20 27 30 29 30 25 24 26 22 23 22 23 22 25 28 28 27 24 23 22 21 23 25 24 27 27 24 19 18 20 22 22 25 31 33 21 19 23 25 25 25 24 26 29
39 40 41 36 25 22 25 30 31 30 26 26 26 25 26 23 21 22 24 25 27 27 25 23 21 21 23 23 25 25 24 23 17 17 19 21 22 22 24 24 23 29 17 25 30 30 29 30 31
41 40 41 37 28 25 24 28 33 31 28 28 28 28 26 26 22 22 24 26 27 29 28 24 20 21 22 23 25 24 23 21 17 18 18 21 20 19 21 25 29 28 24 23 28 37 26 34 33
41 42 42 38 27 24 24 27 34 31 31 29 30 28 26 28 27 20 22 25 27 30 31 26 22 20 22 21 24 23 22 20 18 20 18 20 22 20 21 22 25 24 23 26 22 29 22 29 34
43 45 44 36 29 25 25 29 34 33 31 30 31 30 30 30 29 20 22 25 26 28 33 31 24 21 20 20 21 20 19 20 19 19 20 19 20 21 21 21 25 25 22 19 20 20 25 27 32
47 45 42 35 30 29 32 32 34 34 31 32 32 32 31 32 26 20 21 25 26 27 32 32 28 23 22 21 19 21 19 20 20 20 22 21 21 22 22 22 23 23 20 19 23 17 27 25 27
46 44 42 38 33 33 34 32 34 34 33 35 36 33 33 33 27 23 21 23 25 27 31 33 32 26 25 22 20 21 21 19 20 20 23 22 22 23 24 23 20 22 24 21 20 24 26 26 27
45 44 43 41 36 38 35 33 34 34 34 38 37 36 34 33 28 25 23 22 26 27 32 33 34 29 25 24 20 21 20 17 17 19 21 23 23 23 25 25 25 24 24 29 26 27 30 29 27
46 45 44 43 38 37 37 34 34 36 39 38 37 37 36 34 29 27 26 23 26 28 32 34 35 30 24 25 23 20 20 17 17 19 22 22 22 23 24 26 31 27 27 33 30 29 31 28 27
47 46 43 41 39 39 39 34 36 39 41 39 39 40 39 36 31 31 27 25 24 28 33 33 34 30 26 26 25 20 18 17 17 20 23 22 23 23 22 27 28 23 35 35 35 34 31 25 28
49 48 45 41 40 38 40 37 36 38 41 42 44 44 42 40 36 33 30 25 24 26 34 32 31 30 26 28 26 20 18 15 17 20 22 23 24 24 22 21 20 24 29 33 44 40 40 29 33
51 50 47 44 43 44 45 40 39 40 41 42 44 44 44 40 37 35 33 25 26 25 33 32 31 29 25 28 26 17 17 16 17 18 22 24 25 25 21 17 19 19 31 37 39 39 36 32 28
51 51 47 47 47 45 43 42 44 44 48 43 45 46 47 43 42 39 35 32 31 26 32 33 30 30 25 28 26 16 15 15 18 20 23 23 22 22 20 16 19 13 30 35 39 46 40 32 28
45 43 45 47 48 49 46 44 44 44 46 46 48 50 50 49 47 43 38 36 36 28 32 33 30 30 25 30 26 16 15 15 17 19 21 20 18 20 18 17 15 7 33 34 37 44 35 31 33
47 47 48 49 50 49 48 47 46 48 47 49 49 49 49 50 49 46 41 39 39 31 31 35 32 31 26 31 26 18 16 17 17 18 19 18 15 19 16 18 15 15 18 37 36 36 33 33 33
47 45 44 45 46 48 46 42 43 46 48 48 46 43 45 44 46 44 39 38 41 35 33 38 34 31 28 30 29 20 16 18 16 17 18 18 16 16 17 17 18 16 14 30 38 38 33 32 32
42 43 43 43 43 43 43 38 40 46 46 47 43 39 38 38 40 41 39 39 43 37 34 34 36 34 29 30 29 21 17 16 15 16 16 15 15 15 15 15 19 21 18 19 19 19 20 20 21
38 38 40 40 40 39 38 43 40 38 37 38 39 38 38 39 37 36 38 41 40 35 36 36 37 35 32 29 27 22 18 15 13 14 15 15 12 11 13 15 19 21 22 23 27 26 30 21 17
37 38 38 36 36 37 36 38 40 36 36 40 40 39 39 40 41 39 38 38 37 38 38 37 39 38 32 30 26 22 19 15 13 13 13 15 12 11 10 11 17 23 30 24 24 28 32 27 26
34 34 32 32 31 33 30 30 33 36 39 35 31 33 36 38 41 41 38 39 41 40 39 38 38 37 31 30 26 21 20 15 13 12 11 13 11 12 12 14 16 19 21 23 28 32 34 30 29
32 30 29 29 28 28 28 28 26 33 36 28 27 28 34 35 35 38 36 38 40 39 38 36 38 35 32 30 27 23 21 16 13 12 10 12 10 11 13 15 17 18 21 25 29 27 34 33 30
29 28 27 27 25 24 23 22 26 30 26 22 24 27 28 30 32 35 33 35 40 40 38 34 37 37 35 30 28 24 21 19 14 13 11 10 10 8 7 10 13 11 15 15 23 31 33 32 35
28 27 26 25 25 24 21 21 24 23 15 19 22 18 22 24 29 32 37 35 38 38 36 34 38 38 38 29 28 25 22 20 17 15 13 11 8 7 5 3 11 14 12 8 10 23 28 31 29
29 26 25 24 24 23 22 21 20 16 14 16 18 19 21 26 28 31 32 39 39 34 34 38 40 39 38 29 29 27 25 22 20 18 15 14 10 7 9 7 5 7 7 6 8 10 14 13 16
25 25 26 24 23 24 23 21 11 11 11 16 21 22 23 23 24 25 29 38 40 36 41 34 39 39 31 29 30 29 29 25 23 21 19 17 15 12 9 10 10 9 7 7 7 8 9 14 15
25 27 26 24 23 24 25 20 17 16 19 18 17 16 21 19 24 28 30 32 34 42 39 34 40 36 32 29 29 28 27 27 26 24 22 20 18 17 15 11 9 10 10 11 11 12 13 14 15

GFSSGP_500_spd_102.txt.gz
Wind_Speed
32 31 30 29 28 28 25 24 22 20 20 19 16 15 15 16 17 18 20 20 20 20 20 17 16 18 20 18 18 20 21 23 23 24 19 17 15 16 16 17 19 21 22 21 22 22 21 20 21
33 31 31 31 31 27 25 27 24 22 22 21 18 17 15 16 17 18 19 21 21 20 22 22 21 20 20 19 18 20 21 21 23 22 19 18 17 15 18 18 18 18 18 18 18 19 21 22 23
33 33 34 34 33 26 26 30 28 25 23 22 18 18 17 17 16 18 18 21 22 21 22 22 23 23 22 20 20 21 21 20 20 19 18 18 19 20 18 21 19 20 20 18 17 17 19 21 24
34 35 35 35 30 27 28 30 31 27 23 22 20 20 18 18 17 17 18 21 21 22 23 23 23 23 23 23 22 22 21 22 19 18 18 18 20 20 19 18 16 20 22 23 20 18 18 21 24
34 36 37 36 29 28 30 33 34 29 24 22 21 19 19 18 17 17 19 21 21 21 21 22 22 23 25 24 24 23 23 21 19 17 19 18 19 16 15 10 18 23 33 28 21 22 23 23 26
37 37 37 37 30 30 31 37 36 31 28 23 23 21 19 20 19 17 18 20 22 24 20 20 22 23 25 26 23 22 21 22 19 16 17 18 21 20 15 19 21 22 22 22 20 27 26 28 30
40 39 39 40 35 34 31 37 35 32 32 27 24 23 20 23 21 19 18 20 24 26 21 19 21 23 25 26 24 22 21 21 19 17 16 19 21 21 17 18 21 19 23 29 21 23 23 30 35
42 42 42 43 35 31 32 33 36 34 37 30 29 28 22 23 24 19 16 19 25 26 25 21 19 23 24 24 23 22 23 22 19 17 17 20 20 19 17 19 20 20 23 24 20 22 27 27 40
43 43 43 42 35 33 31 33 37 37 40 34 32 30 25 25 25 21 17 19 24 26 26 26 22 22 23 24 21 22 23 23 22 18 17 19 21 21 18 18 20 20 21 21 18 19 16 21 36
46 44 42 44 37 34 34 37 41 40 43 38 37 31 27 26 26 24 19 20 24 26 25 27 26 23 23 24 22 24 23 23 23 19 17 19 22 21 21 21 22 20 19 20 17 21 23 25 30
44 44 43 44 39 40 38 41 44 42 42 40 37 33 32 30 29 28 21 20 25 28 25 28 28 25 26 24 24 24 25 22 22 19 16 18 22 22 23 23 22 22 20 20 20 19 23 29 28
47 46 47 47 42 42 40 43 46 42 42 42 38 35 33 33 33 31 25 22 26 27 27 28 30 28 27 26 27 24 26 24 20 18 17 17 19 21 24 25 23 23 23 23 25 19 19 27 26
50 49 49 49 46 45 43 45 46 43 42 45 41 36 36 37 36 34 30 22 26 25 29 29 31 29 27 27 27 26 26 25 21 18 17 20 20 21 22 23 24 23 21 26 28 25 26 30 28
53 53 51 50 49 46 44 45 48 45 43 45 44 39 39 40 39 38 32 25 24 29 30 30 32 29 26 26 27 26 28 24 22 19 17 19 22 23 22 24 25 27 26 32 33 33 23 33 31
56 55 54 53 51 47 46 44 45 46 44 44 45 44 44 43 42 39 36 30 25 31 33 32 34 31 27 26 27 26 28 23 20 19 17 18 22 24 24 23 24 23 29 30 34 31 29 36 34
55 57 56 53 54 49 46 41 47 45 42 42 45 48 47 44 45 43 38 34 29 33 36 36 36 34 27 25 28 27 26 24 19 19 17 18 23 24 23 23 23 21 22 26 39 29 40 33 36
58 56 57 55 52 51 48 44 44 45 44 46 49 49 50 47 47 44 39 37 34 34 38 37 37 36 27 25 27 27 26 24 19 19 20 19 24 23 20 20 20 18 22 29 38 43 40 39 43
59 53 50 51 52 52 49 48 48 48 47 50 50 49 49 50 48 46 43 40 40 38 40 40 38 36 29 27 27 27 26 24 21 20 21 21 23 21 20 19 18 17 19 29 36 33 46 41 50
53 52 51 54 53 50 50 51 50 49 45 47 48 47 45 47 48 49 48 47 46 43 40 40 39 39 34 28 28 27 26 24 21 21 23 22 22 21 18 18 16 17 18 22 33 39 31 39 42
53 52 50 52 51 51 49 49 49 48 47 47 49 47 46 47 49 49 48 48 48 46 43 42 42 41 37 30 29 28 27 25 21 22 22 22 19 19 15 15 16 15 16 7 36 36 35 43 40
50 49 49 48 49 49 50 48 50 49 49 49 46 45 45 47 48 48 47 46 47 47 45 41 43 42 39 33 30 29 27 26 21 22 20 21 18 17 15 13 14 14 13 13 19 31 38 46 40
47 45 45 46 45 44 46 48 47 43 44 45 45 43 44 44 43 43 43 45 45 43 45 44 43 46 42 34 31 30 28 25 23 22 17 19 17 16 14 12 12 15 16 17 14 21 32 42 41
43 43 41 38 39 42 42 44 46 41 38 39 41 39 39 39 38 38 40 43 45 46 44 45 44 47 42 35 33 30 29 27 24 22 17 17 15 16 15 13 11 12 15 19 21 17 19 22 24
45 42 38 35 36 41 35 37 41 40 34 38 36 35 37 36 38 40 41 42 45 46 42 45 43 45 40 36 33 30 29 28 25 21 18 14 15 15 16 16 14 15 16 19 21 20 18 23 29
41 33 32 32 35 36 33 33 35 36 31 29 29 30 33 36 39 39 42 45 45 45 44 41 43 42 39 35 34 31 29 29 27 21 17 13 15 14 16 17 18 17 15 16 17 25 24 24 29
27 28 29 29 29 30 28 29 32 29 30 28 26 27 30 33 39 38 39 40 42 41 41 41 40 43 36 34 33 31 29 31 28 22 17 12 13 14 15 14 15 13 11 15 18 20 30 33 30
27 28 27 27 26 25 26 22 25 26 28 29 27 27 32 36 35 31 31 35 35 35 36 39 43 38 38 31 31 33 31 31 29 24 19 13 11 11 13 10 10 11 11 12 14 13 21 27 26
28 25 24 24 24 22 21 19 25 23 27 28 28 31 31 32 28 24 29 34 33 36 37 41 42 41 33 31 34 35 31 31 29 26 21 16 13 11 10 9 9 9 11 13 15 13 9 21 20
22 22 23 23 22 21 20 22 20 22 23 24 28 27 29 31 27 26 29 33 38 38 41 43 43 44 33 33 37 34 29 31 30 29 23 20 17 14 10 11 11 10 8 9 10 11 12 11 15
22 23 22 22 22 21 19 19 19 22 23 25 23 22 27 30 29 30 33 36 40 41 41 44 53 39 35 36 39 35 29 31 31 31 27 22 20 17 16 12 12 13 13 12 11 11 11 11 12

GFSSGP_500_spd_105.txt.gz
Wind_Speed
38 37 34 32 32 31 27 24 26 27 25 23 20 18 17 17 17 18 16 14 13 13 13 15 15 16 16 17 19 21 22 22 22 22 20 21 19 18 20 20 18 18 20 24 24 22 24 23 23
41 38 36 35 34 32 23 21 31 27 31 24 23 19 20 18 18 15 15 15 15 15 14 15 17 17 17 18 20 20 20 21 22 22 21 19 19 18 18 17 19 18 18 18 20 20 21 23 24
36 36 36 36 36 33 20 21 32 33 29 27 24 21 22 21 18 16 13 15 16 15 16 14 16 17 19 20 20 20 21 21 21 21 21 18 19 17 15 16 19 20 20 20 18 18 20 22 24
34 35 37 38 36 29 30 27 37 34 32 29 26 23 19 23 19 16 15 15 18 18 17 16 17 17 18 20 21 22 23 23 21 20 20 20 18 15 16 14 20 18 23 20 21 21 17 18 23
33 35 36 38 38 29 34 35 34 33 35 31 27 26 21 22 19 18 17 16 19 20 18 17 19 18 18 20 21 24 23 23 21 20 21 19 14 16 15 16 6 16 21 21 26 27 20 19 23
37 36 38 37 35 29 34 37 37 34 36 33 29 26 24 25 23 19 17 17 19 21 20 17 19 19 20 20 21 23 24 23 21 20 19 17 19 19 19 12 19 19 20 25 29 28 20 27 25
39 39 38 38 37 33 35 37 38 35 35 34 34 29 26 28 27 19 16 17 20 24 24 19 20 19 20 21 21 22 24 23 22 22 20 19 19 20 21 16 17 20 21 21 14 20 26 24 28
41 43 42 40 41 40 35 39 39 38 37 42 32 33 31 34 23 23 17 18 21 24 26 24 21 20 19 21 21 21 23 24 23 24 22 21 20 20 19 15 17 21 22 21 24 22 18 16 24
43 46 47 41 41 41 41 41 36 41 41 42 36 37 38 29 29 28 19 20 22 25 27 27 25 22 19 20 21 21 22 23 25 25 23 23 21 21 20 19 19 21 23 20 22 22 17 17 22
48 46 42 42 42 46 42 40 41 43 43 46 42 42 39 35 32 32 22 21 23 26 27 28 29 25 21 19 21 22 22 23 26 26 24 23 23 23 23 22 21 21 22 21 20 20 22 19 22
49 47 41 44 47 51 39 42 44 46 44 47 50 45 42 36 34 31 27 23 24 26 28 31 31 29 23 18 21 22 22 23 26 26 25 22 22 23 24 25 24 24 22 22 21 22 24 23 24
53 49 46 45 50 52 43 44 45 48 46 48 52 49 42 38 34 32 31 26 25 28 30 34 33 31 26 21 22 23 23 23 26 27 25 23 23 23 21 23 25 24 24 23 23 25 26 25 26
58 53 52 51 52 54 44 48 47 47 51 51 50 52 48 42 37 35 34 31 27 28 32 36 35 33 29 26 21 23 23 23 27 27 25 24 23 22 21 21 22 23 24 25 25 26 28 25 27
62 63 58 56 56 54 50 49 50 50 51 54 49 53 50 43 39 40 39 35 29 30 35 36 36 36 33 30 23 24 23 23 26 26 25 24 23 22 19 23 24 25 24 26 28 25 31 22 26
66 66 65 60 58 55 52 51 50 48 52 54 51 53 51 46 42 39 39 37 34 33 36 36 37 37 37 34 26 25 23 23 27 26 26 23 22 20 19 23 26 28 27 27 28 29 30 23 30
67 67 66 62 60 58 55 51 47 49 52 53 51 51 53 49 45 42 41 40 39 35 38 39 39 39 40 37 31 27 25 24 26 26 25 23 22 21 21 23 25 27 26 28 26 31 31 30 33
66 66 66 63 60 61 58 52 48 48 51 53 51 49 52 50 49 45 43 40 39 40 40 41 40 39 41 40 35 29 27 26 26 25 25 23 24 22 22 23 23 24 26 27 27 31 36 34 33
66 66 66 62 61 61 57 53 52 48 51 52 51 50 51 50 46 45 45 44 44 43 41 40 42 42 42 43 39 33 30 27 26 25 25 24 25 24 24 23 23 22 25 24 30 31 39 39 38
61 54 55 64 62 60 58 57 54 49 52 53 52 50 47 47 47 46 48 47 48 46 43 40 42 41 44 45 43 37 32 28 27 25 26 26 26 26 25 23 22 21 23 24 27 34 42 37 33
62 62 64 63 58 62 60 55 53 52 51 51 50 47 48 48 47 48 48 48 48 47 45 42 40 41 44 46 46 42 36 28 28 26 26 27 26 27 22 22 20 19 21 22 23 28 43 37 47
65 64 60 56 55 60 59 54 52 49 50 50 49 50 49 48 48 49 49 49 49 47 48 46 43 40 42 43 47 47 40 30 27 26 25 27 26 26 21 21 19 19 18 20 21 24 36 39 42
62 61 55 54 55 55 47 49 34 49 52 50 51 50 50 49 50 49 48 48 49 49 48 46 47 41 42 41 45 47 42 33 28 26 26 28 27 26 21 20 18 18 16 17 16 8 34 31 33
53 48 44 47 48 50 50 49 39 43 44 46 47 48 48 49 46 46 46 47 47 45 45 43 45 43 43 40 44 47 40 35 28 26 26 27 26 26 20 20 18 17 16 16 18 13 9 23 32
42 41 41 36 33 44 44 42 24 30 41 45 43 42 44 44 44 43 44 44 43 43 43 42 42 42 42 40 44 46 38 38 28 27 25 26 26 25 21 19 18 19 17 16 16 15 15 11 10
42 38 30 30 34 41 25 33 25 34 39 34 38 40 41 43 44 44 42 41 42 41 43 44 40 41 41 38 44 45 39 39 28 27 23 26 25 23 21 20 18 19 19 17 17 17 24 19 18
38 37 31 29 22 24 31 26 22 39 29 29 33 38 36 39 40 41 40 41 41 42 44 46 43 43 42 39 44 43 43 36 28 26 23 26 23 21 19 20 17 16 16 15 14 14 20 23 25
32 36 33 18 25 25 15 21 28 27 33 28 31 32 33 33 35 37 39 40 39 42 46 45 43 43 44 41 42 43 40 34 28 25 23 27 23 21 17 15 15 13 10 10 9 11 13 17 25
20 32 33 29 24 21 14 15 22 20 27 26 28 27 28 32 34 36 36 38 40 40 40 40 41 42 42 39 42 42 39 34 28 23 25 27 25 23 18 13 14 11 11 11 12 14 15 13 21
29 26 26 25 25 19 15 19 25 22 23 23 27 25 27 32 35 36 36 35 36 37 39 39 38 41 35 40 41 46 41 30 26 23 25 26 26 24 21 14 14 13 11 10 10 9 10 9 10
21 21 24 24 24 23 20 19 16 19 22 25 25 23 25 32 34 37 34 32 36 40 39 35 34 34 37 41 48 49 32 29 27 23 25 26 28 24 24 21 15 13 14 14 14 12 11 9 10

GFSSGP_500_spd_108.txt.gz
Wind_Speed
41 40 39 38 37 35 31 24 21 13 33 29 24 23 19 19 22 23 17 16 12 10 9 10 10 12 13 13 14 15 16 17 19 20 22 21 21 21 20 19 19 19 18 17 20 21 24 25 26
42 43 43 42 41 39 32 21 14 21 39 31 21 25 20 23 24 21 19 18 15 12 9 11 12 12 13 15 17 16 16 18 19 21 21 22 21 20 17 17 16 18 19 19 18 18 20 23 25
39 40 41 41 40 38 30 7 12 33 43 31 25 25 25 25 26 21 17 20 17 15 11 12 15 15 14 16 17 17 16 18 19 21 22 21 21 18 16 18 19 21 20 21 19 18 15 18 24
37 39 42 39 37 34 26 22 22 31 45 28 26 28 31 28 26 25 17 19 18 18 15 13 17 16 16 16 17 18 18 20 21 21 21 20 19 17 17 17 18 16 23 20 17 18 19 22 21
37 38 41 40 38 32 29 32 34 41 46 32 29 27 30 30 29 27 19 21 19 20 17 14 18 18 16 17 17 17 18 20 21 20 19 18 17 17 18 18 17 19 13 17 18 17 21 24 19
41 39 40 39 33 30 27 30 40 45 42 36 32 27 33 32 28 30 24 21 19 22 18 15 19 19 18 17 17 17 18 19 21 20 17 17 17 19 21 20 18 18 20 20 18 21 26 29 24
42 43 41 38 36 33 28 26 36 43 38 39 33 34 29 36 33 33 24 22 20 23 20 18 18 19 18 18 19 17 18 18 20 20 19 19 18 18 21 22 20 19 20 22 21 20 17 15 26
43 44 45 43 42 38 31 19 38 44 40 35 40 41 32 36 39 26 28 23 23 23 23 20 19 20 19 19 20 17 18 18 20 20 21 20 20 18 20 22 21 22 21 23 21 19 17 21 20
48 49 49 47 44 40 35 33 41 44 39 41 46 43 39 39 37 31 34 26 25 24 25 23 21 22 22 20 21 18 18 19 20 21 22 22 21 20 19 21 22 23 25 23 20 19 19 24 22
54 53 48 44 43 42 42 38 47 47 36 43 49 48 40 39 38 38 36 33 25 26 27 25 24 25 25 23 22 22 18 18 20 21 23 22 23 22 20 21 23 24 26 25 22 19 21 24 24
55 55 49 45 44 44 46 44 55 43 46 46 49 47 44 44 41 41 37 36 29 27 28 27 27 28 28 27 24 23 21 19 20 21 23 23 24 24 22 22 22 23 25 25 22 21 24 25 24
63 54 55 50 47 49 50 51 52 43 44 46 49 53 49 43 42 41 38 37 34 29 28 29 30 31 31 31 26 24 23 21 20 21 23 24 24 25 23 22 23 21 23 24 23 24 25 24 26
66 58 59 56 51 50 51 55 51 47 46 49 51 51 50 45 42 40 42 39 38 32 29 28 33 34 33 33 27 28 25 24 21 21 23 24 25 24 24 22 22 21 20 21 24 24 26 25 28
64 64 62 62 58 56 55 57 52 49 51 52 52 48 46 50 49 43 43 42 39 38 32 29 34 36 35 34 29 29 26 25 25 23 23 24 26 27 23 22 22 21 22 23 25 26 25 26 27
62 69 66 67 64 62 59 61 55 52 47 50 52 49 48 53 53 48 44 43 42 39 38 35 31 38 35 37 33 33 28 27 27 25 23 24 25 27 25 22 21 23 23 25 27 27 28 27 31
62 65 71 65 68 65 65 61 56 53 51 51 51 53 52 52 53 51 46 44 43 40 39 41 32 35 37 40 39 36 32 27 30 28 26 24 25 25 26 24 24 26 24 25 27 30 30 28 25
60 63 65 67 66 64 68 62 57 54 52 52 53 50 50 50 51 51 47 44 44 43 40 41 37 30 40 42 41 41 35 31 31 31 29 26 24 26 27 24 25 26 24 24 27 29 31 29 23
60 59 59 63 65 63 64 65 61 56 53 53 53 52 50 50 49 48 46 45 45 42 40 41 40 29 36 40 42 42 39 36 32 32 32 29 26 26 28 26 26 27 25 26 27 27 28 32 26
56 55 52 56 59 51 61 64 60 61 52 55 54 54 50 48 48 45 47 45 43 42 42 46 41 33 33 38 41 42 41 39 35 34 34 32 28 26 28 27 27 25 25 26 27 26 30 35 34
56 53 51 46 35 32 42 36 43 60 59 55 54 52 47 48 49 44 46 45 43 44 46 47 40 36 32 37 41 44 44 40 39 33 36 34 31 27 27 26 27 24 24 25 26 25 31 28 35
54 51 51 49 40 36 28 49 54 61 57 49 50 49 46 46 47 46 44 44 48 48 48 47 45 38 35 36 41 45 45 40 41 34 33 35 33 27 27 25 27 25 23 23 25 22 26 26 38
46 42 48 50 40 39 36 47 55 50 52 53 49 47 46 51 51 48 47 48 49 48 47 47 46 46 39 38 39 43 41 41 42 38 29 33 32 27 27 25 27 24 23 22 20 21 24 21 41
40 34 39 49 55 52 49 45 46 19 16 35 58 54 50 47 47 47 48 48 48 49 49 48 49 44 42 35 36 40 41 42 42 40 29 34 29 27 26 27 25 23 22 19 21 22 24 15 34
35 38 40 45 48 56 55 53 45 33 28 32 44 49 42 48 51 52 50 49 48 46 47 47 48 48 41 38 35 37 39 41 41 39 29 33 30 25 25 27 26 23 22 20 19 19 18 12 10
39 40 39 37 40 41 48 47 46 31 37 36 41 34 42 40 43 46 44 44 44 42 43 44 46 48 44 37 35 37 38 40 41 37 29 32 29 25 24 26 26 23 23 19 19 19 18 18 10
34 33 32 34 37 36 27 25 28 37 29 26 31 32 35 44 45 46 45 44 43 43 42 44 45 46 45 38 37 36 40 38 40 33 30 32 27 26 23 25 23 22 21 18 17 19 16 19 20
23 24 24 28 14 23 30 23 19 22 33 35 34 32 36 34 33 39 41 42 41 41 42 44 45 45 46 42 40 37 38 38 40 28 32 33 25 26 23 25 21 20 16 14 12 13 13 14 18
21 21 34 21 20 22 25 23 24 42 43 37 31 32 34 29 32 36 37 37 39 40 41 41 43 46 46 45 42 39 38 37 35 31 32 31 24 25 25 26 20 20 15 13 14 15 15 14 14
20 29 30 28 18 16 18 20 22 30 24 22 26 29 26 29 31 32 35 35 37 37 38 38 38 38 41 42 34 36 35 36 34 32 36 27 26 24 26 26 22 20 18 13 13 13 12 12 13
18 24 24 29 25 23 24 23 14 9 10 21 17 19 24 28 29 31 32 33 34 35 36 33 32 32 34 32 35 36 35 37 36 38 41 22 25 25 25 26 23 22 20 17 15 14 14 12 12

GFSSGP_500_spd_111.txt.gz
Wind_Speed
41 41 40 39 38 36 32 24 21 16 20 23 34 37 30 26 27 25 19 16 13 15 13 10 7 8 8 9 10 13 14 13 15 16 17 19 20 19 18 17 16 16 16 15 15 19 20 20 23
39 40 41 42 39 39 34 27 24 16 24 28 30 38 30 30 32 24 19 18 16 17 16 11 8 9 9 10 11 11 13 15 15 16 18 18 18 19 17 17 17 17 18 17 17 18 17 18 20
38 38 38 38 35 32 29 22 27 31 19 29 36 34 33 34 29 25 18 20 20 19 18 14 10 10 11 11 13 12 13 14 16 17 18 17 17 19 17 17 18 17 17 17 17 17 18 20 16
43 43 41 42 40 34 30 22 20 25 28 35 41 43 37 35 29 25 20 23 23 22 21 17 14 11 12 12 13 12 13 14 15 16 17 17 17 18 17 16 16 18 16 17 17 16 19 18 19
46 48 46 45 46 38 33 24 35 36 31 43 45 41 33 35 29 29 26 22 24 22 24 19 16 14 13 13 13 12 13 14 15 16 17 17 16 16 17 17 18 18 19 15 15 18 19 21 21
45 47 49 46 40 37 33 26 39 40 35 43 45 37 36 35 32 29 29 23 23 23 26 21 17 16 15 14 14 14 13 14 14 16 17 17 16 16 18 17 17 18 19 18 18 19 19 23 25
48 45 46 46 45 41 33 32 37 34 45 46 46 42 36 40 36 31 29 25 23 25 26 24 19 17 17 17 15 16 14 14 14 15 19 18 16 16 17 19 17 18 19 19 20 20 19 17 17
50 51 49 47 47 45 36 33 35 41 45 44 45 44 39 43 40 34 25 26 27 26 27 27 22 19 19 18 17 18 18 16 15 15 17 19 17 17 18 18 19 18 19 20 18 19 17 18 17
54 58 55 50 48 41 35 35 37 40 41 43 43 43 43 40 43 38 28 25 31 29 27 28 26 23 21 19 19 19 20 18 20 17 17 19 19 18 18 20 18 19 20 22 20 17 18 20 20
62 61 57 53 46 44 40 35 36 42 44 49 45 40 46 46 41 41 36 29 32 32 29 30 29 27 25 23 20 20 21 20 20 20 19 19 19 19 21 21 20 19 20 21 21 20 21 21 20
64 65 56 55 50 47 45 43 37 48 52 54 43 46 46 45 44 45 40 34 32 32 33 31 31 30 28 28 23 21 21 21 21 22 21 20 21 20 21 23 22 20 21 22 21 22 23 22 21
62 60 64 61 57 53 50 47 49 49 56 56 47 45 50 48 46 46 42 37 34 31 34 34 32 30 30 31 27 24 23 22 22 23 24 21 21 21 21 23 23 21 22 21 17 19 22 23 22
63 55 64 65 63 58 53 52 49 50 56 54 52 48 51 52 47 46 44 39 36 36 33 33 34 32 31 33 29 27 25 25 23 23 25 24 21 21 22 21 22 23 22 22 19 20 23 23 23
61 58 59 62 67 63 61 56 54 52 57 53 50 51 48 49 48 45 42 40 41 40 36 32 33 33 32 33 32 29 27 28 25 24 27 26 24 23 23 22 20 22 23 23 21 22 25 25 25
61 64 63 60 62 68 64 65 62 55 59 54 49 50 49 49 51 49 42 39 42 43 38 34 33 30 33 33 33 32 30 29 28 25 28 29 26 26 24 24 22 22 22 24 24 24 26 27 26
63 66 67 52 56 64 67 71 61 59 59 54 46 46 47 47 49 51 49 46 45 42 39 34 37 34 31 34 34 33 32 31 32 27 29 31 30 28 28 25 24 24 24 24 25 25 27 27 28
66 67 64 58 61 59 66 71 65 60 59 54 50 50 48 49 49 50 50 48 46 42 42 39 40 38 34 30 38 35 34 31 33 32 29 30 32 30 29 28 27 25 26 27 26 27 27 27 28
67 65 61 59 58 56 59 67 65 61 58 57 51 50 51 49 49 49 47 46 45 43 43 43 42 37 38 30 34 37 35 32 32 36 32 31 32 31 30 30 27 26 28 28 26 28 27 27 26
57 64 63 58 52 48 51 57 59 59 55 58 53 51 52 50 48 46 46 42 40 41 42 42 41 37 37 29 31 40 37 35 33 36 33 32 32 31 30 30 27 27 27 27 26 29 28 28 27
50 55 57 57 54 29 33 48 53 49 54 56 53 52 49 52 47 45 43 44 39 39 37 41 39 39 38 32 32 42 40 39 36 36 35 32 33 30 30 28 28 27 26 28 28 29 29 29 29
46 49 48 49 46 41 42 39 41 40 41 42 53 54 53 47 44 42 42 45 45 40 38 40 40 37 39 38 31 37 40 40 38 35 39 37 33 28 28 27 28 27 26 28 27 29 27 26 27
40 39 41 36 36 43 37 45 40 35 40 51 53 39 40 46 46 46 49 47 46 47 45 41 41 44 44 41 33 37 41 39 37 37 41 39 33 28 25 26 27 27 26 27 27 28 24 21 23
27 27 29 32 40 42 43 32 39 40 34 37 33 34 42 47 52 53 47 45 45 45 44 44 42 42 42 40 38 37 41 39 38 37 40 39 35 27 24 26 28 27 26 27 26 27 24 22 23
16 25 29 34 37 40 49 31 33 30 23 29 37 41 46 49 48 46 44 45 44 43 43 44 44 45 44 43 40 35 38 41 38 37 37 36 34 26 24 26 28 26 26 27 27 25 25 21 21
30 30 32 33 34 40 42 36 32 26 28 23 29 35 39 39 43 51 50 47 45 45 42 42 45 46 45 42 38 32 37 41 41 41 37 36 31 25 25 26 29 25 26 27 27 23 26 22 19
28 32 29 31 34 32 33 39 40 46 37 33 36 38 33 34 41 43 42 47 46 43 41 42 41 41 41 42 38 30 37 40 41 40 38 38 31 25 25 26 29 26 25 25 24 22 25 21 19
28 30 27 26 27 24 24 22 21 35 42 49 47 42 38 34 34 37 40 44 42 40 40 39 40 42 43 43 41 36 37 39 39 38 39 36 31 26 26 27 28 25 24 24 23 20 20 17 17
21 17 29 30 20 13 11 23 30 33 47 41 49 42 38 37 30 27 33 38 41 44 44 42 41 41 42 44 45 40 35 40 41 39 39 35 28 26 28 28 29 25 23 23 21 20 17 16 16
17 22 25 27 26 25 20 29 19 38 21 19 55 38 38 37 26 32 32 34 37 38 38 39 40 42 42 44 44 40 37 39 41 39 40 35 29 26 31 29 27 26 24 24 20 20 20 20 20
16 18 31 26 26 11 19 21 19 44 20 23 23 34 36 38 31 32 33 34 32 34 35 36 38 39 39 40 39 36 34 38 40 41 40 31 31 30 31 30 28 27 24 25 22 21 19 17 15

GFSSGP_500_spd_117.txt.gz
Wind_Speed
37 36 36 36 37 35 33 32 26 23 28 31 31 29 29 29 25 25 25 24 22 21 22 25 18 15 15 14 13 13 11 9 11 12 13 14 17 18 16 17 16 15 14 14 14 13 13 16 18
34 35 36 36 36 36 33 31 29 32 37 33 34 34 32 30 27 28 31 30 27 24 23 26 23 18 18 16 15 15 12 10 11 11 12 14 17 17 17 15 14 14 14 13 13 13 14 14 16
37 35 34 34 33 29 29 23 24 28 33 34 35 38 38 36 33 32 33 31 31 25 24 27 24 22 20 19 18 16 14 12 11 10 12 13 15 18 17 16 13 13 13 16 14 14 14 13 15
34 36 36 33 29 28 27 28 30 30 30 33 37 38 37 40 39 35 34 33 31 28 25 29 26 24 22 21 20 17 15 14 13 13 12 12 14 16 18 17 15 15 16 16 14 14 13 14 14
37 36 34 27 22 24 29 31 32 30 34 35 40 42 40 39 41 41 37 35 32 30 27 29 28 28 24 23 21 20 17 15 15 16 14 13 14 16 17 17 16 16 17 16 14 13 14 16 17
39 38 33 24 16 25 29 32 31 30 33 39 41 41 42 42 42 45 42 37 31 26 26 28 29 29 28 25 23 22 19 18 18 18 17 15 16 18 17 16 16 16 17 16 15 16 16 18 19
42 40 32 27 22 21 26 32 30 28 33 41 43 40 39 42 44 43 38 34 31 26 25 27 30 30 30 27 25 24 21 20 19 18 19 18 18 18 19 18 16 16 17 18 17 18 18 19 21
47 45 36 31 28 21 25 30 32 31 31 38 45 42 41 41 40 45 49 39 33 30 27 26 30 30 30 29 27 26 24 20 20 19 19 18 19 19 19 18 16 16 17 18 19 19 19 19 21
45 47 39 36 34 28 33 32 34 34 32 38 46 42 45 47 45 44 42 44 35 33 30 28 30 29 30 29 27 27 26 23 21 21 18 19 19 19 19 17 16 16 17 19 21 22 22 21 20
45 43 40 40 39 37 38 36 36 38 37 39 45 48 46 48 51 52 46 49 46 36 35 33 30 30 28 28 29 28 28 26 23 21 20 19 19 20 19 16 15 15 17 18 20 22 23 24 21
48 43 43 46 44 42 41 41 43 42 40 43 46 50 49 48 53 56 53 49 49 45 37 34 31 32 28 27 28 28 29 28 26 23 22 20 20 20 21 17 16 16 17 18 20 21 23 23 22
53 49 49 46 47 48 48 48 49 48 41 46 51 54 53 49 53 58 54 53 46 41 42 37 33 32 29 28 28 27 27 29 29 25 23 20 20 20 21 20 18 16 17 18 19 21 22 22 20
52 51 51 53 52 54 58 54 54 48 44 52 54 58 58 53 52 57 59 57 49 39 33 33 35 34 32 32 29 26 27 29 30 26 25 21 20 20 21 21 20 18 17 18 19 20 22 22 22
58 59 59 58 60 62 66 61 61 45 51 54 57 63 62 59 57 59 62 59 53 39 34 31 35 35 34 32 29 27 28 29 30 28 26 23 21 20 21 22 22 20 18 17 19 20 20 22 24
67 69 69 62 68 71 74 74 69 57 59 55 62 62 67 64 64 62 63 59 57 43 35 33 35 34 34 34 33 29 29 31 29 30 28 26 24 22 21 22 23 21 20 18 18 22 22 24 24
77 80 80 72 80 81 81 83 72 67 70 62 59 64 66 70 66 66 66 61 56 47 38 31 35 35 35 34 34 34 32 31 30 30 31 27 27 25 23 22 23 24 22 21 19 21 24 25 25
86 91 94 85 85 85 84 88 76 73 74 69 64 64 68 68 70 72 70 61 56 47 41 37 37 38 38 36 35 35 35 33 33 31 30 28 30 29 25 23 24 26 25 22 20 21 24 26 27
95 96 96 97 87 80 83 85 77 66 73 71 67 62 66 68 69 70 72 60 56 47 43 41 41 41 40 39 37 35 32 34 36 34 30 30 30 32 27 25 26 26 27 26 22 21 25 26 28
95 92 88 88 75 74 80 80 72 63 72 68 63 61 66 69 70 66 67 59 57 51 46 42 42 41 39 38 37 36 33 34 38 37 34 30 31 32 29 27 28 29 28 28 24 23 25 26 29
54 56 60 56 45 55 71 75 70 71 69 64 60 60 61 67 73 64 65 63 62 55 49 44 43 42 35 33 33 36 35 35 38 38 36 27 32 33 32 29 30 30 30 31 27 24 25 26 29
35 38 35 36 34 47 56 64 69 66 63 60 55 51 55 63 65 76 75 71 64 56 48 44 43 41 34 32 34 34 35 38 36 32 35 33 33 36 34 34 33 30 31 32 29 27 26 27 28
31 25 26 23 31 36 37 49 54 54 55 54 52 46 54 60 67 64 71 67 57 51 48 44 45 41 36 35 35 33 35 38 36 35 35 36 31 37 38 35 32 31 32 32 32 29 28 28 28
20 20 17 25 26 28 28 33 22 28 30 33 47 42 47 52 57 63 54 50 51 49 46 43 41 41 38 37 37 37 36 37 39 39 39 35 37 38 41 36 33 33 32 32 32 31 29 29 28
20 17 16 21 20 25 19 20 20 23 27 29 32 39 44 45 49 57 52 51 51 52 50 45 41 43 44 41 40 36 38 38 40 39 44 36 38 42 43 41 37 36 34 34 33 32 30 29 29
14 14 13 14 15 4 15 17 18 17 24 25 30 35 37 39 40 45 50 50 53 50 47 44 43 43 45 44 40 40 40 42 41 34 30 31 36 39 42 44 42 38 38 36 34 33 32 29 30
15 15 14 13 9 1 13 13 19 22 25 27 34 29 37 38 41 43 46 47 49 48 42 42 46 47 44 44 45 43 43 42 39 37 36 41 42 43 39 42 44 39 39 37 36 34 32 30 29
11 12 7 12 7 8 13 11 24 27 30 15 31 38 41 44 43 46 46 47 44 42 41 41 42 43 43 46 47 45 43 43 40 40 42 43 42 42 42 42 42 38 40 38 38 35 32 29 30
12 13 15 15 11 5 13 12 22 21 19 20 19 34 39 31 52 38 34 38 41 42 40 41 45 47 47 47 48 47 44 43 42 42 42 41 44 45 46 43 40 38 41 38 39 36 33 29 30
11 13 16 14 15 5 5 18 21 16 11 13 17 11 21 22 29 34 36 37 35 35 35 38 42 45 46 47 48 48 48 47 44 40 44 45 46 46 47 44 40 39 41 40 40 37 34 30 30
5 11 16 17 14 13 17 4 18 21 18 23 24 21 22 33 34 37 34 34 33 32 35 40 39 42 44 44 45 45 46 46 42 39 45 46 46 45 48 46 42 42 42 40 41 38 36 31 31

GFSSGP_500_spd_120.txt.gz
Wind_Speed
33 34 34 33 34 32 29 31 26 23 25 30 31 30 29 29 30 29 26 24 22 17 17 16 18 20 19 18 15 15 13 13 13 10 7 8 10 13 15 17 16 14 13 13 12 12 12 12 13
34 33 33 35 34 31 29 21 22 29 33 33 32 33 32 33 34 34 35 32 25 23 20 18 19 22 21 21 19 17 15 13 14 11 9 9 10 12 15 16 17 15 13 13 12 12 11 13 14
35 33 33 31 29 28 24 22 22 22 25 28 28 30 30 32 32 33 37 38 32 28 25 21 21 22 22 23 22 20 18 15 14 13 12 12 11 13 13 16 17 16 13 13 14 14 15 14 13
35 34 33 32 27 25 25 25 28 26 28 28 26 26 28 30 32 34 36 38 34 33 29 26 22 23 25 26 25 23 21 19 15 14 14 14 13 14 15 16 17 16 15 14 15 14 14 13 13
36 35 33 30 27 24 26 24 29 27 25 30 31 28 33 36 38 38 38 39 38 37 33 29 26 24 25 26 25 24 23 21 19 17 16 16 16 15 17 18 18 18 16 13 14 14 14 15 15
37 35 34 30 27 27 26 28 25 22 24 29 31 30 32 34 36 37 38 42 42 41 40 32 27 25 26 25 25 25 24 23 21 19 17 17 18 17 16 18 19 18 16 15 14 15 15 16 17
40 38 32 31 31 29 27 28 27 26 24 27 32 29 31 37 36 37 40 41 42 43 35 29 26 27 26 25 26 26 24 24 23 21 18 17 18 18 16 18 18 18 16 16 15 16 16 16 18
42 39 36 34 34 36 36 31 30 30 27 28 31 31 31 36 39 41 38 42 48 44 34 30 30 29 26 26 26 25 25 23 25 23 20 18 18 18 17 17 17 17 17 17 16 16 17 17 18
45 44 41 42 44 45 43 41 34 36 32 32 35 32 33 34 38 40 43 40 42 43 37 29 30 31 31 27 26 26 24 23 23 24 23 20 19 17 17 16 17 16 16 17 17 16 17 18 17
46 44 44 43 44 46 46 44 40 37 37 35 36 40 35 36 39 41 43 46 45 40 42 32 32 34 32 30 29 27 25 24 24 24 23 22 20 18 18 17 16 16 15 16 18 17 18 18 16
48 47 47 47 48 48 47 47 45 38 37 41 40 43 40 39 38 39 43 48 51 48 45 43 39 37 32 33 30 29 28 25 24 25 23 22 22 19 19 18 16 17 16 16 17 17 17 18 17
49 48 50 50 51 53 54 52 48 44 40 41 44 46 45 43 44 41 43 49 52 51 48 40 41 38 30 32 30 30 29 28 25 25 24 23 22 20 19 18 16 16 16 16 16 17 18 18 18
55 55 54 57 57 53 54 53 54 48 47 46 44 49 49 47 48 49 47 50 54 56 52 43 36 35 34 36 32 29 28 30 29 25 25 23 22 21 20 19 17 17 17 17 17 17 18 18 19
57 59 60 58 58 59 60 56 57 49 56 51 51 49 52 52 52 52 52 52 55 60 58 47 39 35 34 33 34 30 32 30 29 27 27 25 24 21 21 21 20 17 18 18 18 18 19 18 19
58 60 59 60 63 64 69 66 61 59 65 62 59 56 53 56 56 53 55 55 56 60 61 57 41 36 37 34 31 32 29 31 29 28 28 26 26 23 22 22 22 19 18 19 20 19 19 20 19
60 63 66 64 68 72 81 78 72 72 75 70 69 62 61 60 62 58 59 61 61 62 65 62 45 36 37 35 32 34 33 34 32 30 30 29 28 27 23 23 23 22 20 20 22 21 20 21 21
65 69 72 70 77 82 90 89 78 82 83 81 78 76 64 61 65 65 64 67 66 64 64 63 50 40 37 35 34 33 36 33 33 32 31 33 32 28 26 26 24 23 23 22 23 23 22 22 23
74 78 80 80 80 93 96 101 97 90 94 95 91 87 76 68 62 68 70 72 71 68 67 67 52 46 41 43 40 38 35 33 33 34 34 35 34 31 29 29 25 24 25 25 25 24 25 25 25
82 87 89 90 89 94 105 109 109 104 100 104 98 96 85 72 63 69 73 75 75 74 72 71 55 48 46 47 46 42 35 34 36 34 36 35 34 35 33 31 26 26 28 27 27 25 26 26 27
76 77 69 71 64 73 85 76 76 80 89 93 87 81 73 66 65 66 74 73 73 74 75 72 58 52 49 47 45 42 39 37 37 37 38 37 36 37 34 33 29 29 30 30 28 27 28 27 28
59 46 45 45 40 47 49 53 45 44 41 47 62 68 68 66 66 64 74 76 74 73 72 69 59 55 52 48 44 41 42 38 39 38 38 36 37 39 40 37 34 32 33 33 32 28 29 28 29
43 40 39 34 27 24 27 44 32 30 31 42 50 61 66 68 65 64 71 76 78 76 68 63 62 51 50 47 39 37 40 41 39 40 41 39 41 42 45 42 33 27 32 34 35 31 29 30 30
36 38 35 29 17 26 20 34 18 19 26 30 34 44 57 54 56 60 65 72 72 72 66 67 62 48 46 44 39 37 41 43 40 36 33 40 41 41 44 42 37 37 36 37 36 34 31 30 31
34 28 26 18 18 20 6 18 8 8 13 16 23 31 46 48 50 55 57 63 71 67 72 61 58 54 49 46 42 41 42 43 40 37 34 36 39 43 47 47 44 40 37 38 38 39 35 32 33
22 13 11 12 13 8 10 10 9 16 2 13 16 20 34 41 44 46 51 52 56 61 66 54 63 56 53 47 43 43 43 43 40 40 40 42 36 41 38 54 48 39 40 37 41 43 39 34 35
19 11 9 11 10 6 4 4 12 12 4 19 8 16 22 28 34 37 42 43 45 45 43 44 49 48 46 45 45 46 45 44 42 43 42 43 40 39 42 39 37 44 41 38 39 42 41 36 36
16 9 9 11 11 10 8 14 7 12 15 2 8 17 20 25 31 37 37 38 39 41 43 41 41 44 46 46 46 47 45 44 45 46 46 44 46 46 41 45 45 47 44 40 37 38 41 38 37
10 12 11 8 10 6 9 3 6 4 10 8 10 22 19 21 30 33 34 38 37 40 42 44 44 45 47 47 48 49 48 47 47 47 48 44 46 47 45 47 48 47 42 40 38 37 40 39 39
8 6 9 11 15 19 19 7 7 11 5 6 11 7 6 26 26 28 32 33 32 33 37 41 41 42 45 45 46 48 50 50 50 47 46 46 46 48 48 47 48 45 43 43 41 38 39 41 40
5 9 8 11 10 15 15 9 18 5 10 11 9 2 4 9 27 34 32 42 38 35 36 38 36 35 37 38 42 45 48 51 50 49 48 47 49 50 47 48 47 45 45 45 45 43 41 43 40

GFSSGP_500_spd_123.txt.gz
Wind_Speed
34 34 34 34 33 32 31 28 26 26 28 30 30 30 28 28 27 25 26 24 25 24 24 21 17 16 16 12 13 14 16 17 14 11 10 8 7 9 11 13 15 15 13 12 12 11 11 10 10
33 33 34 35 35 33 31 23 19 24 26 28 31 33 31 29 29 27 27 27 29 29 27 26 21 18 19 15 14 16 17 18 18 14 11 10 8 9 11 12 15 16 14 13 12 12 12 13 14
32 32 33 33 33 30 26 25 20 22 25 23 22 24 27 28 26 22 22 25 26 29 27 25 25 21 20 19 18 17 18 18 20 17 14 12 11 10 10 12 14 16 17 14 12 12 12 13 14
33 33 34 36 33 26 24 26 28 28 29 23 22 20 21 24 23 25 29 28 30 30 28 26 25 28 22 21 21 19 17 18 20 20 18 15 13 12 11 12 13 15 16 16 13 12 11 13 12
36 35 36 36 30 27 27 27 29 26 27 30 29 24 28 27 27 29 30 31 32 34 32 29 30 30 28 25 23 19 18 18 18 20 20 19 15 14 13 12 13 14 15 16 15 12 12 12 13
34 33 34 34 33 31 30 28 28 26 25 28 32 32 29 30 28 27 29 33 34 35 34 34 34 34 29 25 26 21 19 19 19 19 21 20 17 15 14 13 14 14 14 14 15 13 12 12 13
35 37 37 37 35 33 32 30 28 29 27 28 34 32 27 28 27 29 31 35 38 38 38 38 36 35 29 26 28 22 21 20 20 19 20 20 18 16 15 14 14 15 14 14 14 14 13 13 13
36 38 39 37 36 37 38 35 34 32 32 34 36 35 28 26 29 31 32 37 40 41 40 42 36 31 31 29 28 25 23 21 20 19 19 19 19 17 16 16 15 15 15 15 14 14 15 15 14
38 41 41 40 41 42 43 41 37 36 37 38 38 38 34 32 31 32 35 36 39 41 39 38 37 33 28 30 28 26 23 22 21 20 20 19 19 19 17 17 17 17 15 15 14 15 15 16 15
41 42 42 42 43 43 44 43 39 37 39 41 41 40 37 34 34 34 34 37 40 40 40 40 37 31 28 30 31 30 28 24 22 21 21 20 19 18 18 19 19 19 17 15 14 14 14 15 16
41 43 43 47 48 47 46 46 44 36 35 39 42 43 44 40 38 36 36 37 40 43 42 42 43 40 37 35 33 31 31 25 24 22 21 21 20 18 18 19 20 20 19 17 15 14 14 14 15
47 45 47 48 47 48 49 49 47 46 40 38 39 40 43 44 42 40 38 40 42 44 47 46 40 41 38 34 30 32 31 28 26 23 22 22 21 18 18 19 20 21 20 18 16 15 14 15 14
49 51 51 51 52 52 53 52 54 51 50 45 42 41 42 46 46 44 44 43 44 45 47 49 46 41 40 34 29 31 34 33 29 26 25 25 23 19 19 19 20 21 22 20 20 16 15 15 15
47 49 52 55 58 62 63 60 61 57 58 54 50 47 46 47 48 48 48 47 45 48 49 50 52 48 38 35 32 33 33 34 33 29 28 27 25 23 22 21 21 21 22 22 21 17 17 16 16
51 54 53 55 58 59 63 61 61 62 67 65 61 55 54 49 51 51 50 50 50 52 55 53 54 51 45 38 34 35 33 34 33 31 28 26 26 26 24 24 24 22 22 22 21 19 17 18 18
51 52 55 56 58 62 65 64 66 68 71 71 71 68 62 59 55 54 54 55 56 57 58 58 56 57 49 42 34 37 38 36 33 30 29 28 27 26 27 27 26 25 22 22 22 21 19 18 19
52 53 55 58 63 69 74 67 72 74 75 76 76 77 74 68 68 60 61 61 62 61 61 62 60 59 54 44 37 37 38 40 36 31 31 29 29 28 28 29 30 29 25 23 23 23 21 20 20
52 54 56 58 67 78 79 76 72 80 85 86 87 87 84 80 73 70 65 65 66 66 65 65 63 62 59 47 44 43 40 38 37 33 32 33 32 31 31 30 32 32 29 26 25 24 23 22 22
59 62 64 66 69 86 85 91 85 86 95 99 101 99 94 89 87 78 69 69 70 70 70 69 66 65 63 58 49 47 38 38 39 37 38 38 33 33 35 33 33 34 33 30 27 26 26 24 25
65 69 71 70 74 78 78 77 71 75 78 76 92 104 108 103 101 96 73 71 74 75 73 74 70 70 65 63 54 51 45 44 44 43 43 39 35 35 38 36 36 36 35 31 31 30 29 26 27
60 57 59 62 61 50 53 51 45 34 38 53 57 57 67 89 100 100 82 69 74 76 76 76 74 72 68 62 56 54 47 47 46 41 40 41 39 38 40 41 38 37 36 34 36 33 31 28 29
43 39 42 43 41 40 33 34 24 17 21 20 23 26 25 36 57 70 65 67 71 75 76 77 77 75 72 67 63 58 53 50 44 41 44 47 46 42 40 42 44 42 36 38 40 35 33 32 31
31 38 39 32 26 18 15 25 22 20 15 16 16 17 18 18 27 46 55 66 70 75 74 77 76 73 69 67 67 64 58 56 47 42 47 49 49 44 40 44 44 46 46 42 38 38 35 34 33
32 31 27 17 13 9 16 22 11 9 24 17 17 17 13 16 18 29 41 56 67 72 72 71 67 67 65 62 67 68 63 55 47 44 44 44 46 43 44 45 45 48 51 46 40 41 37 34 36
29 22 16 10 13 7 15 16 11 26 33 16 14 8 5 9 14 17 22 40 58 66 70 68 64 60 62 65 64 58 60 52 47 45 44 43 43 41 43 45 46 47 44 41 48 42 40 35 37
24 19 14 10 13 13 16 18 21 24 27 23 12 11 9 4 11 19 23 30 41 53 60 66 63 64 62 61 61 60 58 51 47 46 42 41 43 41 45 46 47 47 48 48 40 43 40 39 39
21 16 12 14 12 16 22 10 17 19 24 24 15 9 8 6 16 19 23 27 34 42 47 54 59 55 51 66 52 64 60 53 52 46 44 43 43 42 46 46 44 42 40 32 32 36 38 40 41
19 10 12 14 10 22 23 24 25 8 17 21 16 7 8 8 12 21 24 28 32 36 39 39 42 46 46 43 60 58 64 50 52 46 46 47 45 46 48 47 44 44 44 42 41 45 44 42 41
13 12 9 12 14 14 20 22 25 9 11 15 13 5 8 11 10 16 20 27 29 30 32 33 36 37 38 39 42 37 41 43 42 47 46 47 47 48 49 49 48 46 47 46 46 46 44 41 41
9 6 6 9 12 16 18 16 23 11 6 6 12 10 11 6 19 21 19 17 23 21 23 28 28 28 29 27 31 33 37 43 43 44 49 48 49 49 50 51 49 49 47 48 46 46 45 43 44

GFSSGP_500_spd_126.txt.gz
Wind_Speed
33 33 33 34 31 30 28 27 24 27 27 28 29 29 28 26 26 26 26 21 20 20 20 19 21 24 21 19 16 16 15 14 13 12 11 10 10 9 9 10 12 13 14 13 12 11 10 10 9
33 32 32 32 32 31 30 29 26 26 24 24 26 29 30 31 30 28 28 27 23 22 19 18 18 17 18 18 20 17 17 15 15 13 13 11 11 11 9 9 10 13 13 14 13 12 11 11 11
29 29 30 31 30 28 28 30 28 28 26 24 25 27 29 31 30 29 29 27 24 22 21 21 17 16 13 16 21 21 18 16 16 15 14 14 13 13 11 9 9 11 12 12 13 11 11 11 12
30 31 32 32 32 29 29 28 28 28 31 28 28 28 29 31 28 26 26 26 25 26 27 25 23 19 19 17 19 23 22 19 17 16 16 16 15 15 15 12 10 10 12 11 12 11 10 11 12
34 34 35 34 33 33 29 28 29 29 30 34 34 30 30 32 27 25 28 29 29 29 30 28 25 22 22 23 23 22 22 20 19 16 16 16 16 16 17 15 12 10 11 13 12 11 10 11 12
36 35 35 34 35 30 27 29 30 31 34 34 37 34 36 37 32 30 29 30 30 31 31 31 29 26 27 28 27 22 21 20 20 17 16 16 15 16 16 16 14 12 11 11 12 12 11 11 12
33 32 34 33 35 31 31 32 32 33 34 36 37 37 35 39 37 35 32 32 31 31 32 33 31 29 31 32 28 24 21 20 20 18 16 16 15 15 15 16 15 15 12 11 12 11 12 11 12
33 35 36 34 32 36 35 34 36 35 33 35 37 39 39 33 35 35 33 33 31 32 34 35 34 34 32 28 27 28 24 20 20 18 17 16 16 15 15 15 15 16 15 12 12 12 12 13 13
34 36 35 35 36 39 38 34 35 34 35 36 38 40 41 38 37 37 36 35 33 33 36 37 38 36 33 30 26 25 24 22 21 20 19 18 18 15 15 15 16 16 18 15 13 13 11 12 13
34 34 36 36 39 39 40 38 36 36 35 34 39 43 44 44 40 41 40 38 37 37 38 38 39 38 37 32 25 26 24 23 24 22 20 18 18 17 16 15 16 16 17 19 16 14 12 11 13
35 38 39 40 41 41 44 45 43 40 38 39 37 40 44 47 46 44 44 43 40 39 40 39 40 40 40 37 32 30 31 28 27 26 23 20 18 18 17 17 18 17 17 18 18 16 14 10 12
41 40 42 44 46 48 47 47 46 46 41 39 40 40 42 46 48 48 45 45 44 43 42 41 41 42 42 42 42 33 30 28 28 28 25 24 19 19 18 19 19 19 19 19 19 19 16 13 12
35 38 39 41 43 46 50 50 51 51 48 44 43 42 45 47 49 50 50 50 49 47 47 45 45 43 42 44 42 37 29 30 32 33 29 27 24 22 21 20 21 21 21 20 19 19 18 16 15
41 44 43 45 47 49 49 50 53 56 56 56 53 50 47 50 51 53 54 53 53 52 51 50 48 46 45 43 42 38 35 33 31 34 34 31 27 27 24 23 21 25 23 23 22 19 19 18 16
44 46 47 48 49 51 53 52 58 59 63 62 60 54 53 51 54 56 55 58 54 54 55 53 52 50 47 47 41 37 37 36 35 33 35 33 30 29 25 23 23 27 24 24 25 22 20 19 18
46 47 48 52 52 52 54 55 59 63 65 65 65 65 60 56 57 59 59 57 59 56 57 57 55 52 50 48 47 39 36 40 39 37 34 33 31 30 28 26 26 25 26 26 27 26 23 21 20
47 43 47 51 54 55 56 55 62 65 68 68 70 70 70 65 61 66 65 64 63 60 60 60 59 57 55 53 51 45 39 42 43 40 36 32 32 31 29 28 28 28 26 28 28 28 28 24 22
42 43 46 52 58 58 59 56 64 70 75 76 77 75 74 74 74 70 71 73 69 67 63 62 62 61 60 57 56 54 45 43 45 41 38 38 35 33 29 29 31 32 30 29 30 29 30 27 25
43 46 49 56 64 64 70 68 71 78 83 88 86 85 86 84 84 83 80 79 74 75 71 67 65 63 64 63 59 55 52 44 48 42 42 40 39 35 31 31 34 36 34 33 31 29 31 30 27
48 52 55 58 65 67 66 70 72 75 76 82 80 85 89 94 97 97 94 87 80 80 79 75 71 69 67 66 62 60 57 48 49 48 45 43 43 36 34 37 37 38 38 35 34 30 33 33 31
54 57 58 58 62 60 64 64 43 48 53 48 38 40 50 66 77 87 101 102 95 83 83 81 77 74 71 68 67 65 62 59 52 52 44 40 42 41 39 40 41 41 41 38 37 36 35 35 34
55 46 49 53 52 50 42 40 28 23 25 26 23 24 27 30 38 52 69 84 90 81 77 84 81 77 73 71 70 71 66 57 50 51 46 46 48 48 47 45 44 44 44 44 42 40 40 41 37
39 39 41 41 43 33 25 23 17 10 17 26 26 27 26 26 28 32 37 52 65 67 79 81 84 80 75 74 74 70 68 56 50 51 48 48 48 50 50 48 46 46 46 50 49 46 44 44 40
29 32 36 36 26 14 12 18 12 21 20 20 27 26 20 19 22 26 30 32 44 66 82 86 84 78 75 74 74 77 54 54 53 52 53 53 57 56 54 49 48 48 50 53 53 48 47 46 43
27 29 31 27 12 12 20 26 22 27 23 30 28 20 18 9 10 13 15 20 34 51 58 68 68 71 71 71 70 71 63 53 55 56 57 60 64 58 55 52 50 46 49 53 52 48 53 48 42
24 28 27 17 17 18 22 22 27 30 25 29 35 20 7 5 2 9 10 12 23 35 43 52 60 63 65 69 68 68 65 61 59 57 61 63 56 62 56 53 50 46 49 50 50 49 45 43 45
22 21 20 15 16 19 20 18 21 25 24 28 29 27 14 8 1 2 10 13 16 22 35 37 57 68 65 64 65 65 63 61 60 63 66 64 58 58 57 53 50 46 49 48 50 39 40 37 32
21 24 17 14 20 21 25 16 21 22 19 19 19 21 15 10 13 2 10 13 18 22 29 36 45 46 59 60 63 60 60 62 62 63 61 62 58 52 52 51 48 48 52 51 46 37 39 40 37
18 15 13 16 19 21 23 18 22 16 18 16 21 22 15 4 8 9 9 13 18 21 27 35 46 49 49 50 55 57 59 57 61 62 65 60 61 62 56 46 46 46 50 48 44 38 43 40 40
20 13 11 14 14 18 22 21 21 11 12 15 19 17 16 12 6 14 14 9 14 12 19 25 32 41 44 43 46 57 54 53 48 47 59 53 50 53 54 48 47 48 49 48 46 45 45 45 42

GFSSGP_500_spd_129.txt.gz
Wind_Speed
30 29 29 29 29 28 28 24 26 25 26 28 30 30 30 28 28 23 30 21 25 24 24 22 21 20 18 15 16 18 18 20 19 16 14 12 10 9 8 8 7 10 11 11 11 11 11 10 9
31 31 29 29 28 27 16 21 26 28 30 31 31 30 32 33 33 33 34 28 26 23 25 24 20 17 13 11 13 16 17 18 20 19 16 16 13 12 10 10 9 10 11 12 11 11 10 9 9
28 28 27 26 26 23 14 30 28 28 28 29 29 30 32 36 38 34 33 31 30 27 24 23 20 17 16 13 12 13 17 19 18 18 19 17 16 14 13 12 11 10 12 12 13 11 10 9 10
30 30 29 29 27 25 28 30 29 28 28 29 31 30 33 36 36 34 33 32 31 28 24 25 25 21 20 17 16 15 19 19 19 18 17 19 18 16 15 15 14 12 11 11 12 13 10 9 10
30 31 31 33 30 31 37 27 29 30 32 32 33 32 35 39 33 33 31 31 31 30 28 28 27 22 19 20 18 20 19 19 19 19 18 17 16 17 17 16 16 14 13 11 11 11 12 9 10
34 32 33 33 33 29 38 27 33 31 34 34 37 35 32 39 36 34 31 31 33 32 32 31 27 23 21 22 21 21 18 19 18 18 19 17 15 16 17 16 15 15 13 12 10 10 12 13 10
34 35 34 33 33 32 35 30 32 31 33 37 36 34 35 42 33 37 38 36 37 34 33 32 29 27 25 26 25 24 21 19 19 18 18 17 16 16 16 16 15 14 14 13 12 10 11 12 12
34 36 34 32 32 34 36 35 32 36 35 36 39 38 40 44 31 39 40 40 42 39 36 34 32 30 29 29 28 26 23 22 20 19 18 17 17 17 16 16 15 15 14 14 14 13 10 12 12
32 33 32 31 37 37 38 33 32 35 34 36 39 38 43 40 39 38 39 40 41 41 39 35 34 33 33 33 31 28 24 23 21 20 20 19 18 18 17 16 15 15 15 16 16 14 14 12 11
29 31 30 38 33 38 35 37 32 37 36 37 38 40 43 41 42 42 42 42 42 42 42 40 38 37 37 37 34 31 26 24 24 22 21 21 20 17 18 16 15 16 16 16 17 17 15 15 11
30 32 36 37 38 37 37 39 37 36 36 40 41 40 41 42 45 47 47 45 44 45 44 42 41 40 40 39 36 34 30 27 28 30 27 23 22 20 18 16 16 16 17 17 18 17 17 16 15
36 40 41 43 44 44 44 48 48 44 44 39 41 44 43 45 45 47 49 51 49 49 49 46 44 42 42 42 39 37 34 33 32 33 32 29 25 23 22 19 19 20 18 19 20 18 18 18 17
36 35 37 38 39 42 42 43 44 44 43 44 46 47 44 45 46 47 48 51 54 53 51 50 48 46 44 43 41 40 39 35 34 34 33 32 31 26 24 23 23 22 20 19 21 20 20 18 18
37 37 39 41 43 44 45 45 46 49 51 50 44 46 47 50 50 50 51 51 52 56 56 53 51 49 47 46 44 43 43 36 34 35 33 33 33 30 26 26 25 23 21 20 24 22 21 21 20
40 41 42 44 46 47 50 50 51 54 53 52 52 50 50 51 53 56 56 55 56 56 59 58 57 53 51 49 48 46 46 39 34 36 35 33 32 31 31 29 27 24 23 24 23 25 22 23 22
43 45 47 52 52 49 51 50 51 55 58 58 60 60 58 54 55 58 60 60 60 62 61 62 60 59 55 52 52 52 49 44 38 38 38 36 34 32 31 33 31 29 25 25 25 25 26 23 24
43 44 46 47 51 53 51 52 53 57 59 60 61 64 64 64 61 61 61 64 65 65 66 61 62 61 59 57 55 54 54 47 43 40 41 39 35 34 32 32 34 33 30 27 27 26 27 27 27
38 42 44 46 46 49 49 51 57 62 64 66 67 70 71 73 73 68 66 67 70 70 71 72 65 62 62 60 57 57 56 55 46 43 43 41 38 37 36 33 35 39 34 31 29 30 29 29 29
41 41 43 46 49 50 52 53 62 68 72 73 74 78 80 82 82 83 81 79 74 74 75 74 72 66 64 62 62 61 60 57 51 44 44 43 41 40 38 38 37 39 37 34 34 34 31 30 32
41 42 45 50 53 55 56 58 65 68 75 78 78 78 80 85 89 91 92 92 88 82 79 78 79 75 71 65 64 62 61 57 56 50 46 47 47 45 41 39 36 39 40 39 37 37 35 35 33
41 43 47 51 54 57 61 60 61 58 61 65 43 30 35 46 57 65 75 87 95 94 85 84 83 83 78 71 67 66 65 63 61 57 52 49 50 46 43 38 40 40 44 42 40 40 40 38 36
42 46 48 51 50 48 49 56 34 39 29 27 28 32 39 42 43 42 40 46 61 82 89 93 90 86 86 80 73 70 67 65 60 60 57 51 51 46 44 40 45 47 47 47 45 44 45 43 40
44 46 47 44 41 45 35 21 27 15 25 31 27 32 39 40 38 37 44 46 48 49 63 76 89 89 88 83 78 70 71 65 67 65 67 59 54 49 46 45 48 50 49 48 51 47 47 49 47
43 41 38 32 34 37 16 18 23 22 28 25 27 36 37 36 29 32 38 42 41 44 46 53 73 83 88 86 80 75 70 68 69 69 72 63 53 51 48 48 48 48 50 47 50 51 50 48 51
37 34 24 28 25 15 17 22 20 25 27 27 29 35 30 26 22 30 36 36 32 32 36 43 70 85 88 88 83 80 74 69 70 66 24 74 56 45 50 47 49 50 53 50 51 56 56 54 55
35 22 21 26 24 22 16 19 22 26 26 30 32 34 39 22 17 18 18 13 10 14 19 28 51 74 81 83 85 82 76 75 73 80 72 40 40 44 49 54 55 56 52 55 54 57 58 57 54
26 19 25 27 24 19 19 16 22 26 26 28 30 34 32 27 18 20 13 11 16 7 7 17 23 41 59 66 73 74 76 76 79 76 76 83 42 42 48 54 58 52 52 55 58 59 59 57 54
17 23 25 24 23 20 17 21 22 27 26 24 27 32 29 22 16 7 7 9 8 3 6 14 14 26 41 54 67 68 68 76 70 73 84 68 43 47 54 56 59 53 52 58 58 59 62 59 55
16 24 23 22 23 24 26 24 26 28 27 23 24 24 21 15 13 5 5 3 4 4 4 14 14 19 37 43 54 59 50 70 46 56 49 46 51 55 57 59 55 53 55 60 58 63 64 62 55
21 25 23 21 18 18 21 25 24 29 21 19 21 21 17 15 15 8 7 7 14 5 8 16 18 24 17 51 45 57 64 63 53 53 59 60 57 60 59 60 56 60 58 59 63 62 66 62 52